[[{"header":{"parameterUnit":"m.s-1","parameterCategory":1,"la1":30.6,"la2":28.766,"lo1":-90.7593,"lo2":-88.6598,"dy":0.0162,"dx":0.0183,"nx":116,"ny":114,"refTime":"2023-05-06T00:00:00:Z","depth":0,"parameterNumber":2,"parameterNumberName":"U-component_of_WINDS"},"data":[0.0,0.0,0.0,0.0,0.0,0.0,0.0,0.0,0.0,0.0,0.0,0.0,0.0,0.0,0.0,0.0,0.0,0.0,0.0,0.0,0.0,0.0,0.0,0.0,0.0,0.0,0.0,0.0,0.0,0.0,0.0,0.0,0.0,0.0,0.0,0.0,0.0,0.0,0.0,0.0,0.0,0.0,0.0,0.0,0.0,0.0,0.0,0.0,0.0,0.0,0.0,0.0,0.0,0.0,0.0,0.0,0.0,0.0,0.0,0.0,0.0,0.0,0.0,0.0,0.0,0.0,0.0,0.0,0.0,0.0,0.0,0.0,0.0,0.0,0.0,0.0,0.0,0.0,0.0,0.0,0.0,0.0,0.0,0.0,0.0,0.0,0.0,0.0,0.0,0.0,0.0,0.0,0.0,0.0,0.0,0.0,0.0,0.0,0.0,0.0,0.0,0.0,0.0,0.0,0.0,0.0,0.0,0.0,0.0,0.0,0.0,0.0,0.0,0.0,0.0,0.0,0.0,0.0,0.0,0.0,0.0,0.0,0.0,0.0,0.0,0.0,0.0,0.0,0.0,0.0,0.0,0.0,0.0,0.0,0.0,0.0,0.0,0.0,0.0,0.0,0.0,0.0,0.0,0.0,0.0,0.0,0.0,0.0,0.0,0.0,0.0,0.0,0.0,0.0,0.0,0.0,0.0,0.0,0.0,0.0,0.0,0.0,0.0,0.0,0.0,0.0,0.0,0.0,0.0,0.0,0.0,0.0,0.0,0.0,0.0,0.0,0.0,0.0,0.0,0.0,0.0,0.0,0.0,0.0,0.0,0.0,0.0,0.0,0.0,0.0,0.0,0.0,0.0,0.0,0.0,0.0,0.0,0.0,0.0,0.0,0.0,0.0,0.0,0.0,0.0,0.0,0.0,0.0,0.0,0.0,0.0,0.0,0.0,0.0,0.0,0.0,0.0,0.0,0.0,0.0,0.0,0.0,0.0,0.0,0.0,0.0,0.0,0.0,0.0,0.0,0.0,0.0,0.0,0.0,0.0,0.0,0.0,0.0,0.0,0.0,0.0,0.0,0.0,0.0,0.0,0.0,0.0,0.0,0.0,0.0,0.0,0.0,0.0,0.0,0.0,0.0,0.0,0.0,0.0,0.0,0.0,0.0,0.0,0.0,0.0,0.0,0.0,0.0,0.0,0.0,0.0,0.0,0.0,0.0,0.0,0.0,0.0,0.0,0.0,0.0,0.0,0.0,0.0,0.0,0.0,0.0,0.0,0.0,0.0,0.0,0.0,0.0,0.0,0.0,0.0,0.0,0.0,0.0,0.0,0.0,0.0,0.0,0.0,0.0,0.0,0.0,0.0,0.0,0.0,0.0,0.0,0.0,0.0,0.0,0.0,0.0,0.0,0.0,0.0,0.0,0.0,0.0,0.0,0.0,0.0,0.0,0.0,0.0,0.0,0.0,0.0,0.0,0.0,0.0,0.0,0.0,0.0,0.0,0.0,0.0,0.0,0.0,0.0,0.0,0.0,0.0,0.0,0.0,0.0,0.0,0.0,0.0,0.0,0.0,0.0,0.0,0.0,0.0,0.0,0.0,0.0,0.0,0.0,0.0,0.0,0.0,0.0,0.0,0.0,0.0,0.0,0.0,0.0,0.0,0.0,0.0,0.0,0.0,0.0,0.0,0.0,0.0,0.0,0.0,0.0,0.0,0.0,0.0,0.0,0.0,0.0,0.0,0.0,0.0,0.0,0.0,0.0,0.0,0.0,0.0,0.0,0.0,0.0,0.0,0.0,0.0,0.0,0.0,0.0,0.0,0.0,0.0,0.0,0.0,0.0,0.0,0.0,0.0,0.0,0.0,0.0,0.0,0.0,0.0,0.0,0.0,0.0,0.0,0.0,0.0,0.0,0.0,0.0,0.0,0.0,0.0,0.0,0.0,0.0,0.0,0.0,0.0,0.0,0.0,0.0,0.0,0.0,0.0,0.0,0.0,0.0,0.0,0.0,0.0,0.0,0.0,0.0,0.0,0.0,0.0,0.0,0.0,0.0,0.0,0.0,0.0,0.0,0.0,0.0,0.0,0.0,0.0,0.0,0.0,0.0,0.0,0.0,0.0,0.0,0.0,0.0,0.0,0.0,0.0,0.0,0.0,0.0,0.0,0.0,0.0,0.0,0.0,0.0,0.0,0.0,0.0,0.0,0.0,0.0,0.0,0.0,0.0,0.0,0.0,0.0,0.0,0.0,0.0,0.0,0.0,0.0,0.0,0.0,0.0,0.0,0.0,0.0,0.0,0.0,0.0,0.0,0.0,0.0,0.0,0.0,0.0,0.0,0.0,0.0,0.0,0.0,0.0,0.0,0.0,0.0,0.0,0.0,0.0,0.0,0.0,0.0,0.0,0.0,0.0,0.0,0.0,0.0,0.0,0.0,0.0,0.0,0.0,0.0,0.0,0.0,0.0,0.0,0.0,0.0,0.0,0.0,0.0,0.0,0.0,0.0,0.0,0.0,0.0,0.0,0.0,0.0,0.0,0.0,0.0,0.0,0.0,0.0,0.0,0.0,0.0,0.0,0.0,0.0,0.0,0.0,0.0,0.0,0.0,0.0,0.0,0.0,0.0,0.0,0.0,0.0,0.0,0.0,0.0,0.0,0.0,0.0,0.0,0.0,0.0,0.0,0.0,0.0,0.0,0.0,0.0,0.0,0.0,0.0,0.0,0.0,0.0,0.0,0.0,0.0,0.0,0.0,0.0,0.0,0.0,0.0,0.0,0.0,0.0,0.0,0.0,0.0,0.0,0.0,0.0,0.0,0.0,0.0,0.0,0.0,0.0,0.0,0.0,0.0,0.0,0.0,0.0,0.0,0.0,0.0,0.0,0.0,0.0,0.0,0.0,0.0,0.0,0.0,0.0,0.0,0.0,0.0,0.0,0.0,0.0,0.0,0.0,0.0,0.0,0.0,0.0,0.0,0.0,0.0,0.0,0.0,0.0,0.0,0.0,0.0,0.0,0.0,0.0,0.0,0.0,0.0,0.0,0.0,0.0,0.0,0.0,0.0,0.0,0.0,0.0,0.0,0.0,0.0,0.0,0.0,0.0,0.0,0.0,0.0,0.0,0.0,0.0,0.0,0.0,0.0,0.0,0.0,0.0,0.0,0.0,0.0,0.0,0.0,0.0,0.0,0.0,0.0,0.0,0.0,0.0,0.0,0.0,0.0,0.0,0.0,0.0,0.0,0.0,0.0,0.0,0.0,0.0,0.0,0.0,0.0,0.0,0.0,0.0,0.0,0.0,0.0,0.0,0.0,0.0,0.0,0.0,0.0,0.0,0.0,0.0,0.0,0.0,0.0,0.0,0.0,0.0,0.0,0.0,0.0,0.0,0.0,0.0,0.0,0.0,0.0,0.0,0.0,0.0,0.0,0.0,0.0,0.0,0.0,0.0,0.0,0.0,0.0,0.0,0.0,0.0,0.0,0.0,0.0,0.0,0.0,0.0,0.0,0.0,0.0,0.0,0.0,0.0,0.0,0.0,0.0,0.0,0.0,0.0,0.0,0.0,0.0,0.0,0.0,0.0,0.0,0.0,0.0,0.0,0.0,0.0,0.0,0.0,0.0,0.0,0.0,0.0,0.0,0.0,0.0,0.0,0.0,0.0,0.0,0.0,0.0,0.0,0.0,0.0,0.0,0.0,0.0,0.0,0.0,0.0,0.0,0.0,0.0,0.0,0.0,0.0,0.0,0.0,0.0,0.0,0.0,0.0,0.0,0.0,0.0,0.0,0.0,0.0,0.0,0.0,0.0,0.0,0.0,0.0,0.0,0.0,0.0,0.0,0.0,0.0,0.0,0.0,0.0,0.0,0.0,0.0,0.0,0.0,0.0,0.0,0.0,0.0,0.0,0.0,0.0,0.0,0.0,0.0,0.0,0.0,0.0,0.0,0.0,0.0,0.0,0.0,0.0,0.0,0.0,0.0,0.0,0.0,0.0,0.0,0.0,0.0,0.0,0.0,0.0,0.0,0.0,0.0,0.0,0.0,0.0,0.0,0.0,0.0,0.0,0.0,0.0,0.0,0.0,0.0,0.0,0.0,0.0,0.0,0.0,0.0,0.0,0.0,0.0,0.0,0.0,0.0,0.0,0.0,0.0,0.0,0.0,0.0,0.0,0.0,0.0,0.0,0.0,0.0,0.0,0.0,0.0,0.0,0.0,0.0,0.0,0.0,0.0,0.0,0.0,0.0,0.0,0.0,0.0,0.0,0.0,0.0,0.0,0.0,0.0,0.0,0.0,0.0,0.0,0.0,0.0,0.0,0.0,0.0,0.0,0.0,0.0,0.0,0.0,0.0,0.0,0.0,0.0,0.0,0.0,0.0,0.0,0.0,0.0,0.0,0.0,0.0,0.0,0.0,0.0,0.0,0.0,0.0,0.0,0.0,0.0,0.0,0.0,0.0,0.0,0.0,0.0,0.0,0.0,0.0,0.0,0.0,0.0,0.0,0.0,0.0,0.0,0.0,0.0,0.0,0.0,0.0,0.0,0.0,0.0,0.0,0.0,0.0,0.0,0.0,0.0,0.0,0.0,0.0,0.0,0.0,0.0,0.0,0.0,0.0,0.0,0.0,0.0,0.0,0.0,0.0,0.0,0.0,0.0,0.0,0.0,0.0,0.0,0.0,0.0,0.0,0.0,0.0,0.0,0.0,0.0,0.0,0.0,0.0,0.0,0.0,0.0,0.0,0.0,0.0,0.0,0.0,0.0,0.0,0.0,0.0,0.0,0.0,0.0,0.0,0.0,0.0,0.0,0.0,0.0,0.0,0.0,0.0,0.0,0.0,0.0,0.0,0.0,0.0,0.0,0.0,0.0,0.0,0.0,0.0,0.0,0.0,0.0,0.0,0.0,0.0,0.0,0.0,0.0,0.0,0.0,0.0,0.0,0.0,0.0,0.0,0.0,0.0,0.0,0.0,0.0,0.0,0.0,0.0,0.0,0.0,0.0,0.0,0.0,0.0,0.0,0.0,0.0,0.0,0.0,0.0,0.0,0.0,0.0,0.0,0.0,0.0,0.0,0.0,0.0,0.0,0.0,0.0,0.0,0.0,0.0,0.0,0.0,0.0,0.0,0.0,0.0,0.0,0.0,0.0,0.0,0.0,0.0,0.0,0.0,0.0,0.0,0.0,0.0,0.0,0.0,0.0,0.0,0.0,0.0,0.0,0.0,0.0,0.0,0.0,0.0,0.0,0.0,0.0,0.0,0.0,0.0,0.0,0.0,0.0,0.0,0.0,0.0,0.0,0.0,0.0,0.0,0.0,0.0,0.0,0.0,0.0,0.0,0.0,0.0,0.0,0.0,0.0,0.0,0.0,0.0,0.0,0.0,0.0,0.0,0.0,0.0,0.0,0.0,0.0,0.0,0.0,0.0,0.0,0.0,0.0,0.0,0.0,0.0,0.0,0.0,0.0,0.0,0.0,0.0,0.0,0.0,0.0,0.0,0.0,0.0,0.0,0.0,0.0,0.0,0.0,0.0,0.0,0.0,0.0,0.0,0.0,0.0,0.0,0.0,0.0,0.0,0.0,0.0,0.0,0.0,0.0,0.0,0.0,0.0,0.0,0.0,0.0,0.0,0.0,0.0,0.0,0.0,0.0,0.0,0.0,0.0,0.0,0.0,0.0,0.0,0.0,0.0,0.0,0.0,0.0,0.0,0.0,0.0,0.0,0.0,0.0,0.0,0.0,0.0,0.0,0.0,0.0,0.0,0.0,0.0,0.0,0.0,0.0,0.0,0.0,0.0,0.0,0.0,0.0,0.0,0.0,0.0,0.0,0.0,0.0,0.0,0.0,0.0,0.0,0.0,0.0,0.0,0.0,0.0,0.0,0.0,0.0,0.0,0.0,0.0,0.0,0.0,0.0,0.0,0.0,0.0,0.0,0.0,0.0,0.0,0.0,0.0,0.0,0.0,0.0,0.0,0.0,0.0,0.0,0.0,0.0,0.0,0.0,0.0,0.0,0.0,0.0,0.0,0.0,0.0,0.0,0.0,0.0,0.0,0.0,0.0,0.0,0.0,0.0,0.0,0.0,0.0,0.0,0.0,0.0,0.0,0.0,-3.9923,-3.939,0.0,0.0,0.0,0.0,0.0,0.0,0.0,0.0,0.0,0.0,0.0,0.0,0.0,0.0,0.0,0.0,0.0,0.0,0.0,0.0,0.0,0.0,0.0,0.0,0.0,0.0,0.0,0.0,0.0,0.0,0.0,0.0,0.0,0.0,0.0,0.0,0.0,-3.2923,-3.4278,-3.5506,-3.6579,-3.7577,-3.7729,-3.7174,0.0,0.0,0.0,0.0,0.0,0.0,0.0,0.0,0.0,0.0,0.0,0.0,0.0,0.0,0.0,0.0,0.0,0.0,0.0,0.0,0.0,0.0,0.0,0.0,0.0,0.0,0.0,0.0,0.0,0.0,0.0,0.0,0.0,0.0,0.0,0.0,0.0,0.0,0.0,0.0,0.0,0.0,0.0,0.0,0.0,0.0,0.0,0.0,0.0,0.0,0.0,0.0,0.0,0.0,0.0,0.0,0.0,0.0,0.0,0.0,0.0,0.0,0.0,0.0,0.0,0.0,0.0,0.0,0.0,0.0,-4.0305,-3.9913,0.0,0.0,0.0,0.0,0.0,0.0,0.0,0.0,0.0,0.0,0.0,0.0,0.0,0.0,0.0,0.0,0.0,0.0,0.0,0.0,0.0,0.0,0.0,-2.9933,-2.9905,-3.0294,-3.0135,-3.0009,0.0,0.0,0.0,0.0,0.0,0.0,0.0,-3.0904,-3.1571,-3.2449,-3.4308,-3.5854,-3.7026,-3.7549,-3.7479,-3.6893,-3.7241,0.0,0.0,0.0,0.0,0.0,0.0,0.0,0.0,0.0,0.0,0.0,0.0,0.0,0.0,0.0,0.0,0.0,0.0,0.0,0.0,0.0,0.0,0.0,0.0,0.0,0.0,0.0,0.0,0.0,0.0,0.0,0.0,0.0,0.0,0.0,0.0,0.0,0.0,0.0,0.0,0.0,0.0,0.0,0.0,0.0,0.0,0.0,0.0,0.0,0.0,0.0,0.0,0.0,0.0,0.0,0.0,0.0,0.0,0.0,0.0,0.0,0.0,0.0,-4.0568,-4.0804,-4.0891,-4.0988,-4.1141,-4.1233,-4.0788,-4.0619,-4.0526,-3.9299,0.0,0.0,0.0,0.0,0.0,0.0,0.0,0.0,0.0,0.0,0.0,0.0,0.0,0.0,0.0,0.0,0.0,0.0,0.0,0.0,0.0,-2.9635,-2.963,-3.0017,-2.9547,-2.9258,-2.9254,0.0,0.0,0.0,0.0,0.0,-2.9975,-3.0062,-3.09,-3.2564,-3.4413,-3.5476,-3.5927,-3.6616,-3.715,-3.7484,-3.7782,-3.7496,-3.6808,0.0,0.0,0.0,0.0,0.0,0.0,0.0,0.0,0.0,0.0,0.0,0.0,0.0,0.0,0.0,0.0,0.0,0.0,0.0,0.0,0.0,0.0,0.0,0.0,0.0,0.0,0.0,0.0,0.0,0.0,0.0,0.0,0.0,0.0,0.0,0.0,0.0,0.0,0.0,0.0,0.0,-3.5971,-3.6338,0.0,0.0,0.0,0.0,0.0,0.0,0.0,0.0,0.0,0.0,0.0,0.0,0.0,-3.8732,-3.8857,-3.9683,-4.0347,-4.0887,-4.1696,-4.2324,-4.2825,-4.2523,-4.2348,-4.2346,-4.1342,0.0,-4.107,-3.9772,0.0,0.0,0.0,0.0,0.0,0.0,0.0,0.0,0.0,0.0,0.0,0.0,0.0,0.0,0.0,0.0,0.0,0.0,0.0,0.0,0.0,-2.913,-2.9184,-2.9329,-2.9076,-2.8946,-2.8925,-2.8673,0.0,0.0,0.0,-2.859,-2.8957,-2.9603,-3.0906,-3.2806,-3.3827,-3.4618,-3.5316,-3.6232,-3.6727,-3.692,-3.7714,-3.7882,-3.7521,-3.751,0.0,0.0,0.0,0.0,0.0,0.0,0.0,0.0,0.0,0.0,0.0,0.0,0.0,0.0,0.0,0.0,0.0,0.0,0.0,0.0,0.0,0.0,0.0,0.0,0.0,0.0,0.0,0.0,0.0,0.0,0.0,0.0,0.0,0.0,0.0,0.0,0.0,0.0,0.0,-3.5667,-3.5946,-3.6057,-3.5856,-3.5652,0.0,0.0,0.0,0.0,0.0,0.0,0.0,0.0,0.0,-3.7813,-3.8753,-3.9337,-3.9464,-4.051,-4.1181,-4.1446,-4.2097,-4.2541,-4.2796,-4.2909,-4.2925,-4.2868,-4.2079,-4.1784,-4.1736,-4.0349,-3.9516,-3.9112,0.0,0.0,0.0,0.0,-3.6921,-3.6684,0.0,0.0,0.0,0.0,0.0,0.0,0.0,0.0,0.0,0.0,0.0,0.0,-2.8556,-2.8643,-2.8746,-2.871,-2.8594,-2.8558,-2.8563,-2.8386,-2.815,-2.7935,-2.795,-2.8017,-2.8096,-2.9454,-3.0908,-3.2437,-3.3158,-3.3894,-3.4748,-3.5845,-3.6354,-3.6425,-3.7488,-3.7953,-3.798,-3.7967,-3.7559,-3.6863,0.0,0.0,0.0,0.0,0.0,0.0,0.0,0.0,0.0,0.0,0.0,0.0,0.0,0.0,0.0,0.0,0.0,0.0,0.0,0.0,0.0,0.0,0.0,0.0,0.0,0.0,0.0,0.0,0.0,0.0,0.0,0.0,0.0,0.0,0.0,0.0,0.0,-3.5654,-3.6,-3.6179,-3.5944,-3.5735,0.0,0.0,0.0,0.0,0.0,0.0,-3.6837,-3.7414,-3.779,-3.7989,-3.9173,-3.9932,-4.0199,-4.1164,-4.1746,-4.1943,-4.2373,-4.267,-4.287,-4.3076,-4.3229,-4.3245,-4.2576,-4.2178,-4.1937,-4.0699,-3.9892,-3.9386,-3.8712,-3.8178,-3.7725,-3.7222,-3.6896,-3.6772,0.0,0.0,0.0,0.0,0.0,0.0,0.0,0.0,0.0,0.0,0.0,-2.8326,-2.8308,-2.8301,-2.8376,-2.8497,-2.8096,-2.7877,-2.7957,-2.7718,-2.7444,-2.7272,-2.7228,-2.7462,-2.7928,-2.971,-3.07,-3.0795,-3.2637,-3.3645,-3.3979,-3.5239,-3.6104,-3.661,-3.7292,-3.753,-3.7371,-3.8165,-3.792,-3.7074,-3.7115,0.0,0.0,0.0,0.0,0.0,0.0,0.0,0.0,0.0,0.0,0.0,0.0,0.0,0.0,0.0,0.0,0.0,0.0,0.0,0.0,0.0,0.0,0.0,0.0,0.0,0.0,0.0,0.0,0.0,0.0,0.0,0.0,0.0,0.0,0.0,0.0,0.0,0.0,-3.7348,-3.7096,0.0,0.0,0.0,0.0,-3.7012,-3.6839,-3.678,-3.6807,-3.7927,-3.8554,-3.8554,-3.9687,-4.0395,-4.0662,-4.099,-4.1535,-4.2375,-4.2609,-4.3147,-4.3923,-4.3338,-4.3258,-4.3459,-4.2569,-4.1879,-4.1295,-4.0659,-4.0353,-4.0253,-3.9667,-3.941,-3.931,-3.8653,-3.8039,-3.7477,0.0,0.0,0.0,0.0,0.0,0.0,0.0,0.0,-2.8304,-2.8028,-2.7927,-2.796,-2.8026,-2.8016,-2.7992,-2.8117,-2.7667,-2.7507,-2.7672,-2.7162,-2.6844,-2.6751,-2.6463,-2.6597,-2.7321,-2.8498,-2.9393,-2.9977,-3.1343,-3.2197,-3.2608,-3.41,-3.4767,-3.4944,-3.6099,-3.6496,-3.6398,-3.7557,-3.7842,-3.7467,-3.7304,-3.7078,0.0,0.0,0.0,0.0,0.0,0.0,0.0,0.0,0.0,0.0,0.0,0.0,0.0,0.0,0.0,0.0,0.0,0.0,0.0,0.0,0.0,0.0,0.0,0.0,0.0,0.0,0.0,0.0,0.0,0.0,0.0,0.0,0.0,0.0,0.0,0.0,0.0,-3.7441,-3.7231,0.0,-3.7147,-3.6989,-3.6903,-3.6903,-3.7391,-3.7682,-3.7682,-3.8668,-3.9301,-3.9415,-4.0195,-4.0763,-4.1036,-4.1678,-4.2179,-4.2479,-4.291,-4.3245,-4.3546,-4.3454,-4.3485,-4.3551,-4.2828,-4.2394,-4.2104,-4.1109,-4.0263,-3.9522,-3.9327,-3.9005,-3.8628,-3.8404,-3.8181,-3.7901,0.0,0.0,0.0,0.0,0.0,0.0,0.0,0.0,-2.7807,-2.7729,-2.7661,-2.763,-2.771,-2.7624,-2.7574,-2.7561,-2.7236,-2.7041,-2.7233,-2.6772,-2.6438,-2.6228,-2.5926,-2.6024,-2.6532,-2.7538,-2.838,-2.901,-3.0247,-3.1,-3.1349,-3.2875,-3.3554,-3.3457,-3.4901,-3.5613,-3.5734,-3.6598,-3.7119,-3.7418,-3.7428,-3.7315,-3.7173,0.0,0.0,0.0,0.0,0.0,0.0,0.0,0.0,0.0,0.0,0.0,0.0,0.0,0.0,0.0,0.0,0.0,0.0,0.0,0.0,0.0,0.0,0.0,0.0,0.0,0.0,0.0,0.0,0.0,0.0,0.0,0.0,0.0,0.0,-3.6307,-3.682,-3.7488,-3.7254,-3.7103,-3.7171,-3.7192,-3.7164,-3.7164,-3.7933,-3.8423,-3.8516,-3.9303,-3.9825,-4.0088,-4.0666,-4.108,-4.136,-4.1955,-4.2302,-4.2351,-4.2838,-4.308,-4.3177,-4.3389,-4.3519,-4.3586,-4.3119,-4.2797,-4.2535,-4.1306,-4.0261,-3.9344,-3.9398,-3.9153,-3.878,-3.8573,-3.8504,-3.8394,0.0,0.0,0.0,0.0,0.0,0.0,0.0,-2.7709,-2.7429,-2.7264,-2.7334,-2.7355,-2.7323,-2.7249,-2.7103,-2.6947,-2.6724,-2.6559,-2.6553,-2.6512,-2.6249,-2.5742,-2.5686,-2.5674,-2.5683,-2.705,-2.7765,-2.7765,-2.936,-3.0149,-3.0176,-3.1661,-3.2365,-3.2393,-3.3848,-3.4812,-3.5417,-3.5282,-3.5821,-3.6812,-3.7475,-3.7778,-3.769,0.0,0.0,0.0,0.0,0.0,0.0,0.0,0.0,0.0,0.0,0.0,0.0,0.0,0.0,0.0,0.0,0.0,0.0,0.0,0.0,0.0,0.0,0.0,0.0,0.0,0.0,0.0,0.0,0.0,0.0,0.0,0.0,0.0,-3.533,-3.5673,-3.6359,-3.7568,-3.7332,-3.7286,-3.7861,-3.7942,-3.7932,-3.7932,-3.8482,-3.8948,-3.9226,-3.9708,-4.0104,-4.0386,-4.0961,-4.1411,-4.1696,-4.1696,-4.1845,-4.2079,-4.2351,-4.2595,-4.2887,-4.3115,-4.3389,-4.3553,-4.3355,-4.2931,-4.2309,-4.1153,-4.0327,-3.9841,-3.9936,-3.9952,-3.9883,-3.9304,-3.9069,-3.8833,0.0,0.0,0.0,0.0,0.0,0.0,0.0,-2.7577,-2.7571,-2.7756,-2.7311,-2.7172,-2.7683,-2.7168,-2.7023,-2.763,-2.6998,-2.6783,-2.7285,-2.6781,-2.6207,-2.5597,-2.5479,-2.5438,-2.5528,-2.6594,-2.7145,-2.7145,-2.8427,-2.9206,-2.9511,-3.0438,-3.102,-3.1396,-3.2764,-3.3537,-3.374,-3.469,-3.5445,-3.6039,-3.6515,-3.6845,-3.7072,0.0,0.0,0.0,0.0,0.0,0.0,0.0,0.0,0.0,0.0,0.0,0.0,0.0,0.0,0.0,0.0,0.0,0.0,0.0,0.0,0.0,0.0,0.0,0.0,0.0,0.0,0.0,0.0,0.0,0.0,0.0,-3.4583,-3.5211,-3.6072,-3.6467,-3.7035,-3.8037,-3.7855,-3.7912,-3.8492,-3.854,-3.8546,-3.8546,-3.9045,-3.9402,-3.9501,-4.0053,-4.0425,-4.0462,-4.0805,-4.1047,-4.1134,-4.1498,-4.1746,-4.1796,-4.2092,-4.2239,-4.2324,-4.2373,-4.2471,-4.2506,-4.2471,-4.2328,-4.21,-4.0903,-4.0288,-4.0094,-3.9306,-3.8993,-3.8966,-3.8818,-3.8438,-3.8034,0.0,0.0,0.0,0.0,0.0,0.0,0.0,-2.7419,-2.7477,-2.7643,-2.7275,-2.7148,-2.7605,-2.7151,-2.7031,-2.7476,-2.703,-2.6833,-2.7144,-2.6423,-2.5859,-2.5519,-2.5279,-2.5231,-2.5487,-2.6104,-2.6518,-2.6677,-2.7561,-2.8132,-2.8516,-2.9446,-3.0019,-3.0268,-3.1605,-3.2347,-3.272,-3.3661,-3.4466,-3.5126,-3.5604,-3.621,-3.6751,-3.6903,-3.7033,-3.7169,-3.7176,-3.7221,-3.7358,-3.748,0.0,0.0,0.0,0.0,0.0,0.0,0.0,0.0,0.0,0.0,0.0,0.0,0.0,0.0,0.0,0.0,0.0,0.0,0.0,0.0,0.0,0.0,0.0,0.0,-3.4869,-3.5747,-3.6463,-3.6826,-3.7324,-3.8063,-3.8111,-3.826,-3.8592,-3.8748,-3.8839,-3.8839,-3.9334,-3.9689,-3.9777,-4.016,-4.0402,-4.0504,-4.0643,-4.0744,-4.0744,-4.1147,-4.1335,-4.1398,-4.1733,-4.1931,-4.1931,-4.2029,-4.2079,-4.2079,-4.2079,-4.2079,-4.1985,-4.0731,-4.0158,0.0,0.0,0.0,0.0,0.0,-3.8389,-3.8025,0.0,0.0,0.0,0.0,0.0,0.0,0.0,-2.7269,-2.7361,-2.7309,-2.7261,-2.7292,-2.735,-2.7317,-2.7215,-2.701,-2.6944,-2.6787,-2.6506,-2.5843,-2.5495,-2.5645,-2.5245,-2.524,-2.5657,-2.5836,-2.6092,-2.6425,-2.6925,-2.7314,-2.7622,-2.8668,-2.9195,-2.9308,-3.0416,-3.123,-3.194,-3.2311,-3.3077,-3.4048,-3.4607,-3.5496,-3.647,-3.6365,-3.646,-3.6791,-3.7177,-3.7334,-3.7336,-3.7715,0.0,0.0,0.0,0.0,0.0,0.0,0.0,0.0,0.0,0.0,0.0,0.0,0.0,0.0,0.0,0.0,0.0,0.0,0.0,0.0,0.0,0.0,0.0,0.0,-3.5251,-3.6386,-3.6678,-3.6997,-3.7393,-3.7891,-3.8206,-3.8388,-3.85,-3.8768,-3.8969,-3.9007,-3.9421,-3.9788,-4.0032,-4.0032,0.0,0.0,0.0,-4.0453,-4.0453,-4.0744,-4.0883,-4.0883,-4.1398,-4.1647,-4.1647,-4.1881,-4.2029,-4.2029,-4.2029,-4.2029,-4.1887,-4.0491,-3.9807,-3.9583,-3.8832,-3.8512,-3.8466,-3.8466,-3.8466,-3.8342,0.0,0.0,0.0,0.0,0.0,0.0,0.0,-2.7583,-2.784,-2.7868,-2.7697,-2.763,-2.7748,-2.7715,-2.7696,-2.7687,-2.7229,-2.6778,-2.6532,-2.633,-2.6408,-2.6693,-2.6176,-2.6147,-2.6697,-2.6571,-2.6572,-2.6652,-2.711,-2.7405,-2.7548,-2.807,-2.8555,-2.8922,-2.9752,-3.036,-3.0746,-3.1474,-3.2249,-3.2881,-3.2673,-3.3685,-3.5381,-3.6082,-3.6247,-3.6293,-3.6745,-3.6819,-3.6783,-3.7304,-3.73,-3.7048,-3.6955,-3.6783,0.0,0.0,0.0,0.0,0.0,0.0,0.0,0.0,0.0,0.0,0.0,0.0,0.0,0.0,0.0,0.0,0.0,0.0,0.0,-3.5333,-3.581,-3.6231,-3.6684,-3.737,-3.794,-3.8291,-3.8151,-3.8361,-3.9064,-3.9201,-3.9315,-3.9534,-3.9634,-3.9749,-3.9788,-3.9788,-3.9788,-3.9852,-4.0083,-4.0185,-4.0185,-4.044,-4.0694,-4.0883,0.0,0.0,-4.1361,-4.1411,-4.1461,-4.1461,-4.1461,-4.1461,-4.1369,-3.9959,-3.8692,-3.7697,-3.7919,-3.7887,-3.769,-3.769,-3.7585,-3.7374,0.0,0.0,0.0,0.0,0.0,0.0,0.0,-2.8023,-2.8362,-2.8179,-2.7974,-2.7871,-2.794,-2.8023,-2.8005,-2.7877,-2.7601,-2.7382,-2.7232,-2.7124,-2.7156,-2.7382,-2.6967,-2.6966,-2.7506,-2.7335,-2.7271,-2.7373,-2.7441,-2.7497,-2.7619,-2.8037,-2.8403,-2.8632,-2.9256,-2.9837,-3.0399,-3.0998,-3.1643,-3.2311,-3.2519,-3.3086,-3.3875,-3.4762,-3.5385,-3.5805,-3.6102,-3.6274,-3.6453,-3.6812,-3.6856,-3.6696,-3.6686,-3.6591,-3.6347,0.0,0.0,0.0,0.0,0.0,0.0,0.0,0.0,0.0,0.0,0.0,0.0,0.0,0.0,-3.3979,-3.4316,0.0,-3.5125,-3.6016,-3.6291,-3.6699,-3.7506,-3.7736,-3.7927,-3.8171,-3.8315,-3.8546,-3.9025,-3.9206,-3.9374,-3.9478,-3.9633,-3.9697,-3.9697,-3.9697,-3.9697,-3.9697,-3.9839,-3.989,-3.989,-4.0198,-4.0389,-4.0478,-4.0782,-4.0997,-4.1097,-4.1261,-4.1311,-4.1261,-4.1161,-4.0941,-4.059,-3.9204,-3.7985,-3.7108,-3.7413,-3.7413,-3.7307,-3.7307,-3.7214,-3.7108,0.0,0.0,0.0,0.0,0.0,0.0,0.0,-2.8624,-2.8917,-2.8546,-2.8318,-2.8182,-2.8111,-2.8375,-2.8401,-2.8072,-2.8168,-2.8237,-2.8187,-2.8034,-2.8025,-2.825,-2.808,-2.8137,-2.8479,-2.8387,-2.8364,-2.8398,-2.8136,-2.7957,-2.7919,-2.8379,-2.8582,-2.8585,-2.8973,-2.9511,-3.0186,-3.0507,-3.1051,-3.1709,-3.2381,-3.2562,-3.2552,-3.3301,-3.4173,-3.5057,-3.542,-3.5752,-3.6088,-3.6329,-3.6319,-3.622,-3.6391,-3.6275,-3.6,-3.5551,-3.5289,0.0,0.0,0.0,0.0,0.0,0.0,0.0,0.0,-3.4462,-3.4552,-3.4745,-3.4843,-3.4961,-3.5246,-3.5638,-3.6075,-3.6609,-3.6919,-3.7382,-3.82,-3.8013,-3.7828,-3.7983,-3.8362,-3.8684,-3.8736,-3.8998,-3.9218,-3.931,-3.953,-3.9697,-3.9697,-3.9697,-3.9697,-3.9697,-3.9697,-3.9697,-3.9697,-3.9929,-4.0032,-4.0121,-4.058,-4.0833,-4.0883,-4.1161,-4.1196,-4.1041,-4.0661,-4.0186,-3.9543,-3.8399,-3.7552,-3.6968,-3.6968,-3.6922,-3.6875,-3.6968,-3.7015,-3.6968,0.0,0.0,0.0,0.0,0.0,0.0,0.0,0.0,-2.9704,-2.9233,-2.9048,-2.8851,-2.8554,-2.9014,-2.924,-2.8993,-2.9044,-2.9112,-2.9153,-2.9196,-2.9398,-2.9831,-3.0053,-3.0166,-3.0112,-3.0292,-3.013,-2.9679,-2.9769,-2.9396,-2.87,-2.9109,-2.9231,-2.9203,-2.9236,-2.9422,-2.9672,-2.9735,-3.0005,-3.0492,-3.0555,-3.1313,-3.2424,-3.2495,-3.2985,-3.3796,-3.4984,-3.526,-3.5141,-3.5751,-3.5937,-3.5811,-3.5711,-3.5509,-3.5324,-3.5239,-3.4568,-3.3827,-3.4005,-3.389,-3.371,-3.371,-3.3906,-3.4089,0.0,-3.4089,-3.4089,-3.4089,-3.4854,-3.5579,-3.5829,-3.6722,-3.7481,-3.7765,-3.8029,-3.8175,-3.8056,-3.8188,-3.8218,-3.7995,-3.8056,-3.8198,-3.8409,-3.8684,-3.8998,-3.927,-3.953,-3.9697,-3.9697,-3.9697,-3.9697,-3.9697,-3.9697,-3.9697,-3.9697,-3.9749,-3.9839,-4.007,-4.0389,-4.0643,-4.0883,-4.1161,-4.0924,-4.0205,-3.9393,-3.861,-3.7858,-3.7683,-3.7159,-3.6499,-3.6499,-3.6323,-3.6146,-3.6581,-3.6628,-3.6499,0.0,0.0,0.0,0.0,0.0,0.0,0.0,0.0,0.0,-3.0222,-2.9851,-2.9605,-2.9487,-2.9825,-3.0004,-2.9804,-3.0187,-3.0396,-3.0362,-3.0706,-3.0932,-3.1032,-3.1307,-3.1483,-3.1466,-3.1427,-3.1184,-3.0751,-3.0889,-3.0574,-2.9912,-3.0319,-3.0328,-2.9987,-2.9914,-3.0094,-3.0524,-3.0184,-3.0396,-3.1065,-3.0816,-3.1106,-3.164,-3.1879,-3.2252,-3.2767,-3.4012,-3.4374,0.0,-3.4988,-3.5115,-3.508,-3.5384,-3.5215,-3.4895,-3.4923,-3.4445,-3.3941,-3.4027,-3.3969,-3.397,-3.4208,-3.4389,-3.4618,-3.5065,-3.5186,-3.5235,-3.5588,-3.599,-3.6407,-3.6862,-3.7283,-3.7792,-3.8404,-3.8428,-3.8474,-3.8718,-3.8706,-3.8579,-3.8461,-3.8473,-3.8409,-3.8198,-3.8579,-3.8841,-3.8998,-3.9426,-3.9697,-3.9697,-3.9697,-3.9697,-3.9697,-3.9697,-3.9697,-3.9697,-3.9697,-3.9736,-3.989,-4.0134,-4.0338,-4.0415,-4.0409,-3.9895,-3.9071,-3.8411,-3.7835,-3.7354,-3.7038,-3.6631,-3.6193,-3.6193,-3.6003,-3.5812,-3.6181,-3.6133,-3.5943,0.0,0.0,0.0,0.0,0.0,0.0,0.0,0.0,0.0,0.0,-3.0659,-3.0315,-3.0307,-3.0479,-3.0637,-3.0824,-3.1222,-3.1568,-3.1795,-3.2067,-3.2309,-3.2479,-3.2791,-3.2968,-3.3059,-3.301,-3.2779,-3.2383,-3.2319,-3.1985,-3.1401,-3.1576,-3.1454,-3.1064,-3.0814,-3.0982,-3.1385,-3.0786,-3.0928,-3.1492,-3.1197,-3.1261,-3.1437,-3.1735,-3.207,-3.2434,-3.3316,-3.3645,-3.3738,-3.4353,-3.4412,-3.4261,-3.488,-3.4688,-3.4191,-3.4347,-3.415,-3.3913,-3.4041,-3.4126,-3.4293,-3.4809,-3.4988,-3.5184,-3.5766,-3.5951,-3.6093,-3.6512,-3.6785,-3.7098,-3.7615,-3.784,-3.8164,-3.8981,-3.8929,-3.8901,-3.926,-3.9102,-3.8893,-3.8788,-3.8788,-3.8631,-3.825,-3.8684,-3.8945,-3.8945,-3.9426,-3.9697,-3.9697,-3.9697,-3.9697,-3.9697,-3.9697,-3.9697,-3.9697,-3.9697,-3.9697,-3.9697,-3.9981,-3.9994,-3.9829,-3.9331,-3.8783,-3.8155,-3.7549,-3.7152,-3.6923,-3.6568,-3.6228,-3.6015,-3.6015,-3.5764,-3.5524,-3.5716,-3.5716,-3.562,0.0,0.0,0.0,0.0,0.0,0.0,0.0,0.0,0.0,0.0,0.0,0.0,0.0,-3.0772,-3.1073,-3.2066,-3.1992,-3.2388,-3.3531,-3.309,-3.3295,-3.4481,-3.4633,-3.4888,-3.5217,-3.5535,-3.5427,-3.4902,-3.4485,-3.3921,-3.3208,-3.2746,-3.2503,-3.2426,-3.1964,-3.1852,-3.1929,-3.1405,-3.1242,-3.1297,-3.1224,-3.1602,-3.2285,-3.2465,-3.2714,-3.2924,-3.3084,-3.3191,-3.3399,-3.4096,-3.388,-3.3419,-3.4076,-3.3586,-3.2968,-3.3474,-3.348,-3.3434,-3.3906,-3.4185,-3.4516,-3.505,-3.5397,-3.5552,-3.5627,-3.5809,-3.5991,-3.6042,-3.6653,-3.7387,-3.7991,-3.846,-3.8961,-3.9556,-3.9672,-3.9569,-3.931,-3.927,-3.9154,-3.8841,-3.8788,-3.8788,-3.8788,-3.9102,-3.9258,-3.9258,-3.953,-3.9697,-3.9697,-3.9697,-3.9697,-3.9697,-3.9697,-3.9697,-3.9697,-3.9697,-3.9697,-3.9697,-3.9981,-3.9804,-3.9284,-3.8155,-3.7635,-3.7584,-3.6776,-3.643,-3.643,-3.6417,-3.6228,-3.6015,-3.6015,-3.5668,-3.5223,-3.5223,-3.5368,-3.562,0.0,0.0,0.0,0.0,0.0,0.0,0.0,0.0,0.0,0.0,0.0,0.0,0.0,0.0,0.0,0.0,-3.2628,-3.3161,-3.3906,-3.4124,-3.4542,-3.5296,-3.5487,-3.5869,-3.6434,-3.6152,-3.6125,-3.6401,-3.622,-3.5833,-3.5296,-3.5045,-3.4577,-3.3924,-3.335,-3.2986,-3.2817,-3.2303,-3.2066,-3.2084,-3.2062,-3.2024,-3.1921,-3.1963,-3.2035,-3.2089,0.0,-3.2297,-3.2504,-3.2807,-3.2765,-3.2662,-3.3257,-3.314,-3.2827,-3.3068,-3.3435,-3.3798,-3.3958,-3.432,-3.4751,-3.5258,-3.549,-3.5677,-3.6237,-3.6561,-3.6773,-3.7008,-3.7116,-3.7456,-3.8417,-3.8447,-3.8654,-3.9531,-3.9697,-3.9697,-3.9581,-3.9581,-3.953,-3.9426,-3.9374,-3.9374,-3.9374,-3.9322,-3.931,-3.931,-3.953,-3.9697,-3.9697,-3.9697,-3.9697,-3.9697,-3.9697,-3.9697,-3.9697,-3.9697,-3.9697,-3.9685,-3.9423,-3.8995,-3.8427,-3.7671,-3.7129,-3.6776,-3.654,-3.6405,-3.6405,-3.6405,-3.6133,-3.5716,-3.5716,-3.5416,-3.492,-3.492,-3.4981,-3.5078,0.0,0.0,0.0,0.0,0.0,0.0,0.0,0.0,0.0,0.0,0.0,0.0,0.0,0.0,0.0,0.0,0.0,-3.3984,-3.482,-3.5151,-3.5676,-3.6532,-3.6604,-3.6956,-3.761,-3.7116,-3.7055,-3.7485,-3.7275,-3.7056,-3.6864,-3.655,-3.6164,-3.5716,-3.4961,-3.4447,-3.4135,-3.3493,-3.3033,-3.2828,-3.2704,-3.2345,-3.194,-3.2073,-3.2105,0.0,-3.1847,-3.1832,-3.202,-3.2253,-3.2255,-3.218,-3.2714,-3.2875,-3.2931,-3.2977,-3.3595,-3.4326,-3.4498,-3.4796,-3.5175,-3.5669,-3.5795,-3.5929,-3.6468,-3.6722,-3.6926,-3.711,-3.7039,-3.7167,-3.8047,-3.7993,-3.816,-3.9257,-3.9396,-3.9471,-3.9672,-3.9697,-3.9697,-3.9697,-3.9697,-3.9697,-3.9697,-3.953,-3.9426,-3.9426,-3.9581,-3.9697,-3.9697,-3.9697,-3.9697,-3.9697,-3.9697,-3.9697,-3.9697,-3.9697,-3.9697,-3.9685,-3.8931,-3.8366,-3.799,-3.7236,-3.6744,-3.6405,-3.6405,-3.6405,-3.6405,-3.6405,-3.6086,-3.562,-3.562,-3.5271,-3.4775,-3.4775,-3.4738,-3.4677,0.0,0.0,0.0,0.0,0.0,0.0,0.0,0.0,0.0,0.0,0.0,0.0,0.0,0.0,0.0,0.0,0.0,0.0,-3.6181,-3.6132,-3.6658,-3.801,-3.7919,-3.8122,-3.8729,-3.8407,-3.8277,-3.8323,-3.7795,-3.7687,-3.7972,-3.7287,-3.7212,-3.7555,-3.6714,-3.6148,-3.5792,-3.4895,-3.4107,-3.3499,-3.3232,-3.2785,-3.2377,-3.2769,-3.279,-3.2501,-3.2075,-3.1929,-3.1994,-3.2394,-3.2265,-3.1909,-3.2267,-3.279,-3.3193,-3.3227,-3.4014,-3.4934,-3.5393,-3.5543,-3.5669,-3.6151,-3.6309,-3.6286,-3.6286,-3.6335,-3.6356,-3.6356,-3.6387,-3.6527,-3.713,-3.7156,-3.7529,-3.8718,-3.8919,-3.9108,-3.9622,-3.9697,-3.9697,-3.9697,-3.9697,-3.9697,-3.9697,-3.9697,-3.9697,-3.9697,-3.9697,-3.9697,-3.9697,-3.9697,-3.9697,-3.9697,-3.9697,-3.9697,-3.9697,-3.9697,-3.9685,-3.9634,-3.853,-3.799,-3.7927,-3.6908,-3.6405,-3.6405,-3.6405,-3.6405,-3.6405,-3.6405,-3.6086,-3.562,-3.562,-3.5271,-3.4775,-3.4775,-3.4628,-3.4433,0.0,0.0,0.0,0.0,0.0,0.0,0.0,0.0,0.0,0.0,0.0,0.0,0.0,0.0,0.0,0.0,0.0,0.0,-3.5927,-3.6466,-3.7073,-3.7833,-3.8274,-3.8746,-3.9264,-3.9102,-3.9267,-3.9763,-3.947,-3.9251,-3.9089,-3.8521,-3.8035,-3.7638,-3.6889,-3.6424,-3.62,-3.5764,-3.5312,-3.4899,-3.4735,-3.4017,-3.3136,-3.309,-3.2669,-3.2182,-3.2237,-3.2184,-3.2012,-3.1682,-3.1603,-3.1777,-3.2263,-3.279,-3.3272,-3.3642,-3.446,-3.5359,-3.5485,-3.5795,-3.6117,-3.6297,-3.599,-3.5768,-3.5982,-3.5894,-3.5843,-3.605,-3.5929,-3.6092,-3.7057,-3.6849,-3.7085,-3.8667,-3.8919,-3.9108,-3.9622,-3.9697,-3.9697,-3.9697,-3.9697,-3.9697,-3.9697,-3.9697,-3.9697,-3.9697,-3.9697,-3.9697,-3.9697,-3.9697,-3.9697,-3.9697,-3.9697,-3.9697,-3.9697,-3.9697,-3.9484,-3.912,-3.8354,-3.7789,-3.7374,-3.6719,-3.6405,-3.6405,-3.6405,-3.6405,-3.6405,-3.6405,-3.6086,-3.562,-3.562,-3.5271,-3.4775,-3.4775,-3.4628,-3.4433,0.0,0.0,0.0,0.0,0.0,0.0,0.0,0.0,0.0,0.0,0.0,0.0,0.0,0.0,0.0,0.0,0.0,0.0,0.0,-3.7304,-3.7944,-3.8907,-3.9265,-3.9604,-3.9897,-3.9779,-3.9869,-4.0255,-4.0099,-4.0005,-3.9966,-3.9613,-3.9245,-3.8823,-3.8144,-3.7586,-3.708,-3.6579,-3.599,0.0,0.0,-3.4292,-3.3527,-3.3348,-3.2998,-3.2589,-3.2581,-3.2354,-3.2078,-3.1922,-3.1783,-3.1706,-3.2375,-3.3038,-3.3671,-3.4271,-3.5195,-3.6014,-3.6014,-3.6318,-3.6599,-3.6379,-3.6112,-3.5898,-3.5771,-3.5575,-3.5443,-3.5595,-3.5541,-3.566,-3.637,-3.6321,-3.6651,-3.794,-3.8329,-3.8693,-3.9258,-3.9534,-3.9697,-3.9697,-3.9697,-3.9697,-3.9697,-3.9697,-3.9697,-3.9697,-3.9697,-3.9697,-3.9697,-3.9697,-3.9697,-3.9697,-3.9697,-3.9697,-3.9697,-3.9697,-3.9421,-3.8906,-3.8278,-3.7762,-3.7367,-3.6716,-3.6452,-3.6521,0.0,-3.6006,-3.6006,-3.6006,-3.5724,-3.5289,-3.5534,-3.5271,-3.4775,-3.4775,-3.4628,-3.4384,0.0,0.0,0.0,0.0,0.0,0.0,0.0,0.0,0.0,0.0,0.0,0.0,0.0,0.0,0.0,0.0,0.0,0.0,0.0,0.0,-3.9071,-4.0316,-4.047,-4.0521,-4.0497,-4.0392,-4.0319,-4.0319,-4.022,-4.0333,-4.0656,-4.0488,-4.036,-4.0225,-3.9672,-3.8984,-3.8115,-3.7383,-3.6465,-3.548,-3.4855,-3.4303,-3.382,0.0,-3.3504,-3.3388,-3.2991,-3.2664,-3.2399,-3.2757,-3.2336,-3.1881,-3.2712,-3.3481,-3.4192,-3.5024,-3.5921,-3.67,-3.6754,-3.6869,-3.6932,-3.6508,-3.6285,-3.6074,-3.5615,-3.5254,-3.5016,-3.5053,-3.504,-3.5077,-3.5498,-3.5761,-3.6198,-3.7038,-3.7588,-3.8128,-3.8831,-3.9283,-3.9609,-3.9685,-3.9697,-3.9697,-3.9697,-3.9697,-3.9697,-3.9697,-3.9697,-3.9697,-3.9697,-3.9697,-3.9697,-3.9697,-3.9697,-3.9697,-3.9697,-3.9697,-3.9383,-3.8743,-3.8303,-3.7835,-3.7457,-3.6773,-3.6593,-3.6637,-3.5873,-3.5542,-3.5495,-3.5495,-3.5217,-3.4918,-3.5411,-3.5271,-3.4823,-3.4823,-3.4628,-3.4384,0.0,0.0,0.0,0.0,0.0,0.0,0.0,0.0,0.0,0.0,-3.6733,0.0,0.0,0.0,0.0,0.0,0.0,0.0,0.0,0.0,0.0,-4.0319,-4.0906,-4.1169,-4.1053,-4.103,-4.103,-4.103,-4.1007,-4.0965,-4.0927,-4.0668,-4.0391,-4.004,-3.9433,-3.9125,-3.9038,-3.8247,-3.7652,-3.7182,-3.6362,-3.55,-3.4661,-3.4174,0.0,0.0,-3.3389,-3.3407,-3.3541,-3.3213,-3.2792,-3.2498,-3.3425,-3.4024,-3.4577,-3.5768,-3.636,-3.6754,-3.697,-3.6784,-3.6508,-3.6414,-3.5733,-3.5113,-3.5221,-3.4586,-3.409,-3.4462,-3.4181,-3.4184,-3.5117,-3.5298,-3.5762,-3.7023,-3.7262,-3.7688,-3.873,-3.9007,-3.9182,-3.9634,-3.9697,-3.9697,-3.9697,-3.9697,-3.9697,-3.9697,-3.9697,-3.9697,-3.9697,-3.9697,-3.9697,-3.9697,-3.9697,-3.9697,-3.9697,-3.9697,-3.9182,-3.8153,-3.8263,-3.7815,-3.6861,-3.6913,-3.6875,-3.6684,-3.6079,0.0,-3.5495,-3.5495,-3.5369,-3.5164,-3.5459,-3.5416,-3.5126,-3.4884,-3.4628,-3.4384,0.0,0.0,0.0,0.0,0.0,0.0,0.0,0.0,0.0,-3.8053,-3.7879,-3.7607,0.0,0.0,0.0,0.0,0.0,0.0,0.0,0.0,0.0,0.0,-4.1521,-4.167,-4.1626,-4.1635,-4.1679,-4.1679,0.0,-4.1683,-4.1574,-4.1378,-4.1042,-4.0594,-4.0094,-3.9718,-3.9397,-3.8739,-3.8123,-3.7481,-3.671,-3.5986,-3.5296,0.0,0.0,0.0,-3.3832,-3.3846,-3.3906,-3.4236,-3.3935,-3.3499,-3.3988,-3.4257,-3.4613,-3.5648,-3.632,-3.6738,-3.6718,-3.688,-3.6928,-3.648,-3.6002,-3.5522,-3.5066,-3.4606,-3.4265,-3.422,-3.4078,-3.4118,-3.4665,-3.5077,-3.559,-3.6197,-3.681,-3.7374,-3.7914,-3.8554,-3.902,-3.9233,-3.9521,-3.9697,-3.9697,-3.9697,-3.9697,-3.9697,-3.9697,-3.9697,-3.9697,-3.9697,-3.9697,-3.9697,-3.9697,-3.9697,-3.9697,-3.9697,-3.9132,-3.8002,-3.8261,-3.7873,-3.6909,-3.7062,-3.7121,-3.707,-3.5984,-3.5388,-3.5264,-3.5127,-3.4932,-3.4789,-3.5384,-3.5416,-3.5175,-3.4884,-3.4726,-3.458,0.0,0.0,0.0,0.0,0.0,0.0,0.0,-3.8366,-3.8488,-3.8849,-3.9131,-3.9116,-3.8696,-3.9068,-3.9373,0.0,0.0,0.0,0.0,0.0,0.0,0.0,0.0,0.0,-4.2111,0.0,0.0,-4.2207,-4.231,0.0,0.0,0.0,0.0,0.0,-4.099,-4.0473,-3.9825,-3.9259,-3.8507,0.0,0.0,-3.6345,-3.5844,0.0,0.0,0.0,0.0,-3.4338,-3.4337,-3.5135,-3.4998,-3.4525,-3.4662,-3.4666,-3.482,-3.5616,-3.6323,-3.6757,-3.6621,-3.6945,-3.7173,-3.653,-3.6284,-3.6001,-3.503,-3.4723,-3.449,-3.3982,-3.3954,-3.4028,-3.4197,-3.4707,-3.5219,-3.5458,-3.627,-3.691,-3.7149,-3.7952,-3.8655,-3.8894,-3.9258,-3.9559,-3.9685,-3.9697,-3.9697,-3.9697,-3.9697,-3.9697,-3.9697,-3.9697,-3.9697,-3.9697,-3.9697,-3.9697,-3.9697,-3.9697,-3.9246,-3.829,-3.8423,-3.8095,-3.7381,-3.7312,-3.7366,-3.7394,-3.6025,-3.5366,-3.5276,-3.5025,-3.4798,-3.4624,-3.5382,-3.5572,-3.532,-3.503,-3.4884,-3.4823,0.0,0.0,0.0,0.0,0.0,0.0,0.0,-3.8955,-3.9172,-3.9175,-4.0157,-4.0853,-4.0748,-4.0028,-3.958,0.0,0.0,0.0,0.0,0.0,0.0,0.0,0.0,0.0,0.0,0.0,0.0,-4.2532,-4.257,0.0,0.0,0.0,0.0,0.0,0.0,-4.1192,-4.0659,-3.9995,0.0,0.0,0.0,0.0,0.0,0.0,0.0,0.0,0.0,-3.5305,-3.5669,-3.5335,-3.5221,-3.5257,-3.5558,-3.5596,-3.5675,-3.6456,-3.6751,-3.6838,-3.7092,-3.6799,-3.6493,-3.6407,-3.6051,-3.5534,-3.4944,-3.4428,-3.397,-3.364,-3.3164,-3.3065,-3.3796,-3.401,-3.4374,-3.5332,-3.5583,-3.5997,-3.7048,-3.7274,-3.7726,-3.8806,-3.8957,-3.9145,-3.9647,-3.9697,-3.9697,-3.9697,-3.9697,-3.9697,-3.9697,-3.9697,-3.9697,-3.9697,-3.9697,-3.9697,-3.9697,-3.9697,-3.9549,-3.9158,-3.8885,-3.8601,-3.8256,-3.7996,-3.7703,-3.7466,-3.6845,-3.6289,0.0,-3.5808,-3.5638,-3.5437,-3.5814,-3.5968,-3.586,-3.5368,-3.5175,-3.5126,0.0,0.0,0.0,0.0,0.0,0.0,0.0,-3.9518,-3.9814,-4.0601,-4.1046,-4.1427,-4.1864,-4.1434,-4.11,0.0,0.0,0.0,0.0,0.0,0.0,0.0,0.0,0.0,0.0,0.0,-4.2607,-4.2725,-4.3253,0.0,0.0,0.0,0.0,0.0,0.0,-4.2119,-4.1232,-4.0659,0.0,0.0,0.0,0.0,0.0,0.0,0.0,0.0,0.0,0.0,-3.5642,-3.5961,-3.5886,-3.5704,-3.6059,-3.5922,-3.5762,-3.617,-3.653,-3.6776,-3.6553,-3.6541,-3.659,-3.6449,-3.6093,-3.5649,-3.5098,-3.467,-3.4237,-3.37,-3.3452,-3.3419,-3.372,-3.4107,-3.4388,-3.4653,-3.5297,-3.5844,-3.6144,-3.6772,-3.7475,-3.8266,-3.8655,-3.9082,-3.9634,-3.9697,-3.9697,-3.9697,-3.9697,-3.9697,-3.9697,-3.9697,-3.9697,-3.9697,-3.9697,-3.9697,-3.9697,-3.9697,-3.9574,-3.9284,-3.896,-3.8675,-3.8381,-3.8069,-3.7854,-3.7723,-3.7001,-3.6561,0.0,-3.6022,-3.5839,-3.5764,-3.5934,-3.6015,-3.5955,-3.5572,-3.532,-3.5175,0.0,0.0,0.0,0.0,0.0,0.0,-4.0311,-4.043,-4.0784,-4.1651,-4.1792,-4.1998,-4.245,-4.2264,-4.2103,-4.2103,0.0,0.0,0.0,0.0,0.0,0.0,0.0,0.0,0.0,0.0,-4.2794,-4.3144,-4.3803,-4.4222,0.0,0.0,-4.4877,-4.4196,0.0,0.0,0.0,0.0,0.0,0.0,0.0,0.0,0.0,0.0,0.0,0.0,0.0,0.0,0.0,0.0,0.0,-3.5917,-3.6348,-3.6134,-3.582,-3.6105,-3.6395,-3.6611,-3.6398,-3.6611,-3.6822,-3.6445,-3.6202,-3.5823,-3.5111,-3.476,-3.443,-3.3841,-3.3713,-3.3713,-3.3713,-3.4059,-3.4349,-3.4341,-3.4997,-3.5555,-3.5596,-3.6314,-3.7069,-3.7676,-3.8266,-3.8831,-3.9396,-3.9597,-3.9697,-3.9697,-3.9697,-3.9697,-3.9697,-3.9697,-3.9697,-3.9697,-3.9697,-3.9697,-3.9697,-3.9697,-3.9701,-3.9626,-3.9086,-3.8765,-3.8735,-3.8147,-3.79,-3.7887,-3.7274,-3.7001,0.0,-3.6519,-3.6276,-3.613,-3.6172,-3.6193,-3.6098,-3.5812,-3.562,-3.5428,0.0,0.0,0.0,0.0,0.0,0.0,0.0,-4.185,-4.2184,-4.1923,-4.2429,-4.2706,-4.2524,-4.2264,-4.2103,-4.2103,0.0,0.0,0.0,0.0,0.0,0.0,0.0,0.0,0.0,0.0,-4.3064,-4.3994,-4.4075,-4.4512,-4.5291,-4.5291,-4.5249,-4.5147,0.0,0.0,0.0,0.0,0.0,0.0,0.0,0.0,0.0,0.0,0.0,0.0,0.0,0.0,0.0,0.0,0.0,0.0,0.0,-3.6272,-3.5979,-3.6467,-3.6457,-3.6404,-3.6967,-3.7074,-3.698,-3.6416,-3.6321,-3.5981,-3.4853,-3.461,-3.443,-3.3841,-3.3713,-3.3713,-3.3713,-3.3725,-3.3918,-3.4507,-3.461,-3.4919,-3.577,-3.5902,-3.6214,-3.7121,-3.7676,-3.8241,-3.8831,-3.9371,-3.9697,-3.9697,-3.9697,-3.9697,-3.9697,-3.9697,-3.9697,-3.9697,-3.9697,-3.9697,-3.9697,-3.9697,-3.9942,-4.0478,-3.9314,-3.9068,-3.956,-3.8423,-3.79,-3.79,-3.79,-3.7749,0.0,-3.7492,-3.7155,-3.6709,-3.6709,-3.6581,-3.6358,-3.6098,-3.6015,-3.5955,0.0,0.0,0.0,0.0,0.0,0.0,0.0,-4.2318,-4.2488,-4.2812,-4.2812,-4.2745,-4.2588,-4.2243,-4.203,-4.203,0.0,0.0,0.0,0.0,0.0,0.0,0.0,0.0,0.0,0.0,-4.3524,-4.3992,-4.508,-4.5771,-4.6142,-4.6685,-4.6646,-4.6044,-4.5165,-4.4279,0.0,0.0,0.0,0.0,0.0,0.0,-3.7373,0.0,0.0,0.0,0.0,0.0,0.0,0.0,0.0,0.0,0.0,0.0,0.0,-3.6016,-3.614,-3.6152,-3.5962,-3.5923,-3.5884,-3.575,-3.5493,-3.5239,-3.4891,-3.4619,-3.4422,-3.4228,-3.4189,-3.4189,-3.4189,-3.4189,-3.4212,-3.4237,-3.4555,-3.494,-3.5295,-3.5694,-3.6202,-3.7096,-3.8027,-3.8818,-3.9383,-3.9597,-3.9697,-3.9697,-3.9697,-3.9697,-3.9697,-3.9697,-3.9697,-3.9697,-3.9697,-3.9697,-3.9697,-3.989,-4.0134,-4.0491,-3.9548,-3.9262,-3.9573,-3.8423,-3.79,-3.79,-3.79,-3.7854,-3.7762,-3.7564,-3.7307,-3.6968,-3.6769,-3.6581,-3.6405,-3.6323,-3.6146,-3.5968,0.0,0.0,0.0,0.0,0.0,0.0,0.0,-4.3028,-4.303,-4.3336,-4.3105,-4.2841,-4.2688,-4.2346,-4.2072,-4.2005,0.0,0.0,0.0,0.0,0.0,0.0,0.0,0.0,-4.2709,-4.3278,-4.3918,-4.4674,-4.5771,-4.6486,-4.6894,-4.7443,-4.7446,-4.692,-4.6081,-4.5104,0.0,0.0,0.0,0.0,0.0,0.0,-3.7772,0.0,0.0,0.0,0.0,0.0,0.0,0.0,0.0,0.0,0.0,0.0,0.0,0.0,-3.559,-3.5643,-3.5668,-3.5639,-3.5644,-3.5394,-3.5202,-3.5007,-3.4773,-3.4533,-3.4397,-3.4397,-3.4397,-3.4397,-3.4397,-3.4397,-3.4356,-3.4243,-3.4416,-3.4762,-3.5162,-3.5448,-3.6084,-3.736,-3.8115,-3.8843,-3.9622,-3.9697,-3.9697,-3.9697,-3.9697,-3.9697,-3.9697,-3.9697,-3.9697,-3.9697,-3.9697,-3.9736,-3.9839,-4.0032,-4.0173,-4.0322,-3.9543,-3.9228,-3.9246,-3.8331,-3.79,-3.79,-3.79,-3.79,0.0,-3.7703,-3.7505,-3.7214,-3.6968,-3.6722,-3.6499,-3.6452,-3.6275,-3.6146,0.0,0.0,0.0,0.0,0.0,0.0,0.0,0.0,0.0,0.0,-4.3269,-4.303,-4.2822,-4.249,-4.2222,0.0,0.0,0.0,0.0,0.0,0.0,0.0,0.0,0.0,-4.3085,-4.339,-4.4285,-4.5802,-4.6184,-4.675,-4.7511,-4.7636,-4.7678,-4.7642,-4.6866,-4.591,0.0,0.0,0.0,0.0,-3.9532,-3.8783,0.0,0.0,0.0,0.0,0.0,0.0,0.0,0.0,0.0,0.0,0.0,0.0,0.0,0.0,0.0,0.0,0.0,-3.5992,-3.5861,-3.5365,-3.5191,-3.5048,-3.4486,-3.4356,0.0,-3.4356,-3.4356,-3.4356,-3.4356,-3.4356,-3.4356,-3.4356,-3.4189,-3.4392,-3.5276,-3.5251,-3.5873,-3.7764,-3.8002,-3.8454,-3.9584,-3.9697,-3.9697,-3.9697,-3.9697,-3.9697,-3.9697,-3.9697,-3.9697,-3.9697,-3.9749,-3.9839,-4.007,-4.0083,-4.0057,-3.998,-3.9421,-3.8995,-3.8697,-3.8148,-3.79,0.0,-3.79,-3.79,0.0,-3.79,-3.7749,-3.7459,-3.7214,-3.6956,-3.6675,-3.6499,-3.6405,-3.6405,0.0,0.0,0.0,0.0,0.0,0.0,0.0,0.0,0.0,0.0,-4.3339,-4.3105,-4.29,-4.2532,-4.2246,0.0,0.0,0.0,0.0,0.0,0.0,0.0,0.0,0.0,-4.3085,-4.3749,-4.468,-4.5802,-4.6498,-4.707,-4.7511,-4.7533,-4.7615,-4.7642,-4.6866,-4.5526,0.0,0.0,0.0,0.0,-4.0028,-3.9199,0.0,0.0,0.0,0.0,-3.5988,-3.6,0.0,0.0,0.0,0.0,0.0,0.0,0.0,0.0,-3.4701,-3.4504,-3.4569,0.0,-3.4721,-3.4435,-3.4367,-3.4286,0.0,-3.3839,-3.3839,-3.3839,-3.3839,-3.3839,-3.3839,-3.3839,-3.3839,-3.3839,-3.3797,-3.4135,-3.5022,-3.5684,-3.6578,-3.7852,-3.8002,-3.8454,-3.9584,-3.9697,-3.9697,-3.9697,-3.9697,-3.9697,-3.9697,-3.9697,-3.9697,-3.9697,-3.989,-4.0032,-4.007,-4.0055,-4.0022,-3.998,-3.9211,-3.8794,-3.8697,-3.8148,-3.79,-3.79,-3.79,-3.79,-3.79,-3.79,-3.7749,-3.7505,-3.7413,-3.7108,-3.6675,-3.6675,-3.6534,-3.6405,0.0,0.0,0.0,0.0,0.0,0.0,0.0,0.0,0.0,0.0,0.0,0.0,0.0,0.0,0.0,0.0,0.0,0.0,0.0,0.0,0.0,0.0,0.0,-4.2437,-4.3277,-4.4202,-4.5093,-4.5976,-4.6674,-4.7093,-4.7272,-4.7425,-4.7533,-4.7578,-4.6765,-4.5771,-4.4617,-4.3565,-4.2492,-4.1445,-4.048,0.0,0.0,0.0,0.0,0.0,-3.6045,-3.6009,0.0,-3.5944,-3.597,-3.5951,0.0,0.0,0.0,0.0,-3.4369,-3.4127,-3.4272,-3.4228,-3.4063,-3.3937,-3.3907,-3.3894,-3.3725,-3.3713,-3.3713,-3.3713,-3.3713,-3.3713,-3.3713,-3.3713,-3.3802,-3.4084,-3.4037,-3.4247,-3.5178,-3.615,-3.7048,-3.7902,-3.8241,-3.8743,-3.9609,-3.9697,-3.9697,-3.9697,-3.9697,-3.9697,-3.9697,-3.9697,-3.9736,-3.989,-4.0134,-4.016,-3.9892,-3.9949,-3.9783,-3.9397,-3.8916,-3.8579,-3.8331,-3.8031,-3.79,-3.79,-3.79,-3.79,-3.79,-3.79,-3.7808,-3.7657,-3.7551,-3.7307,-3.7062,-3.6815,-3.6628,-3.6546,0.0,0.0,0.0,0.0,0.0,0.0,0.0,0.0,0.0,0.0,0.0,0.0,0.0,0.0,0.0,0.0,0.0,0.0,0.0,0.0,0.0,0.0,-4.2021,-4.2758,-4.3464,-4.4526,-4.5418,-4.6211,-4.6661,-4.6911,-4.702,-4.7294,-4.7446,-4.7475,-4.6768,-4.6302,-4.5932,-4.4231,-4.312,-4.2352,-4.1016,0.0,0.0,0.0,0.0,0.0,0.0,0.0,0.0,-3.5639,-3.5675,-3.5762,-3.5399,0.0,0.0,0.0,0.0,0.0,-3.43,-3.4053,-3.3653,-3.3828,-3.3811,-3.3785,-3.3653,-3.3641,-3.3615,-3.3526,-3.3513,-3.3539,-3.3628,-3.3641,-3.3832,-3.4417,-3.4394,-3.4551,-3.5324,-3.6448,-3.7338,-3.7939,-3.8517,-3.9082,-3.9634,-3.9697,-3.9697,-3.9697,-3.9697,-3.9697,-3.9697,-3.9697,-3.9839,-4.007,-4.0262,-4.0094,-3.9554,-3.9814,-3.9527,-3.871,-3.8632,-3.8344,-3.79,-3.79,-3.79,-3.79,0.0,0.0,-3.79,-3.79,-3.79,-3.7854,-3.7657,-3.7551,-3.7459,-3.7015,-3.6769,-3.6675,0.0,0.0,0.0,0.0,0.0,0.0,0.0,0.0,0.0,0.0,0.0,0.0,0.0,0.0,0.0,0.0,0.0,0.0,0.0,0.0,0.0,-4.1232,-4.1975,-4.2758,-4.3464,-4.4331,-4.5229,-4.6211,-4.6284,-4.6566,-4.6998,-4.7048,-4.7227,-4.749,-4.7259,-4.678,-4.6126,-4.5618,-4.4351,-4.2677,-4.2118,0.0,0.0,0.0,0.0,0.0,0.0,0.0,0.0,-3.5105,-3.4978,-3.4966,-3.4858,0.0,0.0,0.0,0.0,0.0,-3.3809,-3.3601,-3.3486,-3.4349,-3.4372,-3.4055,-3.3429,-3.3286,-3.3162,-3.2692,-3.2605,-3.2742,-3.3199,-3.3286,-3.3472,-3.4016,-3.444,-3.4858,-3.5217,-3.6163,-3.7131,-3.789,-3.8517,-3.9082,-3.9634,-3.9697,-3.9697,-3.9697,-3.9697,-3.9697,-3.9697,-3.9697,-3.9839,-4.007,-3.9853,-3.9591,-3.9282,-3.9537,-3.9342,-3.8697,-3.824,-3.7978,-3.79,-3.79,-3.79,-3.79,0.0,-3.79,-3.79,-3.79,-3.79,-3.79,-3.7854,-3.7703,-3.7505,-3.7413,-3.7108,-3.6675,0.0,0.0,0.0,0.0,0.0,0.0,0.0,0.0,0.0,0.0,0.0,0.0,0.0,0.0,0.0,0.0,0.0,0.0,0.0,0.0,-4.1295,-4.1209,-4.2126,-4.2866,-4.3346,-4.4464,-4.5328,-4.5879,-4.6087,-4.6332,-4.6566,-4.6865,-4.7138,-4.7385,-4.7341,-4.7078,-4.6689,-4.6065,-4.492,-4.3434,0.0,0.0,0.0,0.0,0.0,0.0,0.0,0.0,0.0,0.0,-3.4941,-3.4778,-3.4696,0.0,0.0,0.0,0.0,0.0,-3.3742,-3.3662,-3.3643,-3.4509,-3.4416,-3.4073,-3.3691,-3.3629,-3.3568,-3.3322,-3.326,-3.3334,-3.3592,-3.3629,-3.3814,-3.4354,-3.4895,-3.5398,-3.5789,-3.6505,-3.7283,-3.8129,-3.8753,-3.9254,-3.9672,-3.9697,-3.9697,-3.9697,-3.9697,-3.9697,-3.9697,-3.9697,-3.989,-4.0287,-3.9827,-3.9561,-3.9407,-3.9238,-3.8841,-3.8266,-3.8018,-3.79,-3.79,-3.79,-3.79,-3.79,0.0,-3.79,-3.79,-3.79,-3.79,-3.79,-3.79,-3.7808,-3.7703,-3.7551,-3.7155,-3.6675,0.0,0.0,0.0,0.0,0.0,0.0,0.0,0.0,0.0,0.0,0.0,0.0,0.0,0.0,0.0,0.0,0.0,0.0,0.0,0.0,-4.134,-4.1209,-4.226,-4.2953,-4.3139,-4.4561,-4.5389,-4.5537,-4.5862,-4.6087,-4.6211,-4.6684,-4.7007,-4.7232,-4.7209,-4.7183,-4.7143,-4.6382,-4.5445,-4.4324,0.0,0.0,0.0,0.0,0.0,0.0,0.0,0.0,0.0,0.0,0.0,0.0,0.0,0.0,0.0,-3.3154,-3.281,-3.2841,-3.3658,-3.3676,-3.3653,-3.4474,-3.4413,-3.4064,-3.3896,-3.3825,-3.3788,-3.3655,-3.3642,-3.3725,-3.3893,-3.4061,-3.4328,-3.4744,-3.5257,-3.5758,-3.626,-3.6897,-3.7562,-3.8211,-3.8858,-3.9374,-3.9594,-3.9645,-3.9697,-3.9697,-3.9697,-3.9697,-3.9697,-3.9697,-3.9879,-4.0261,-3.9735,-3.9429,-3.9403,-3.8815,-3.8318,-3.79,-3.79,-3.79,-3.79,-3.79,-3.79,-3.79,-3.79,-3.79,-3.79,-3.79,-3.79,-3.79,-3.79,-3.79,-3.7854,-3.7611,-3.7261,-3.6862,0.0,0.0,0.0,0.0,0.0,0.0,0.0,0.0,0.0,0.0,0.0,0.0,0.0,0.0,0.0,0.0,0.0,0.0,0.0,0.0,-4.134,-4.1209,-4.2179,-4.2783,-4.2911,-4.4299,-4.5167,-4.5415,-4.5441,-4.5709,-4.6211,-4.6477,-4.6772,-4.7002,-4.6888,-4.6957,-4.7196,-4.7012,-4.6326,-4.531,-4.4359,0.0,0.0,0.0,0.0,0.0,0.0,0.0,0.0,0.0,0.0,0.0,0.0,0.0,-3.3556,-3.2927,-3.2593,-3.2577,-3.343,-3.3319,-3.3196,-3.4183,-3.4422,-3.4195,-3.3491,-3.3337,-3.3207,-3.2724,-3.263,-3.2818,-3.3589,-3.4306,-3.4776,-3.4763,-3.5269,-3.568,-3.5964,-3.6913,-3.7685,-3.7978,-3.8768,-3.931,-3.9322,-3.953,-3.9697,-3.9697,-3.9697,-3.9697,-3.9697,-3.9697,-3.9702,-3.966,-3.9122,-3.8849,-3.8776,-3.824,-3.7939,-3.79,-3.79,-3.79,-3.79,-3.79,-3.79,-3.79,-3.79,-3.79,-3.79,-3.79,-3.79,-3.79,-3.79,-3.79,-3.7854,-3.7611,-3.7459,-3.7366,0.0,0.0,0.0,0.0,0.0,0.0,0.0,0.0,0.0,0.0,0.0,0.0,0.0,0.0,0.0,0.0,0.0,0.0,0.0,-4.1866,-4.156,-4.134,-4.2295,-4.28,-4.2783,-4.4156,-4.4968,-4.5167,-4.531,-4.5632,-4.6087,-4.6259,-4.6471,-4.6637,-4.6661,-4.6795,-4.6934,-4.6888,-4.6392,-4.559,-4.5069,-4.3804,0.0,0.0,0.0,0.0,0.0,0.0,0.0,0.0,-3.4874,-3.442,-3.402,-3.3927,-3.3768,-3.2927,-3.255,-3.2502,-3.303,-3.3051,-3.3066,-3.3805,-3.3965,-3.3967,-3.3829,-3.3781,-3.3723,-3.3535,-3.3488,-3.3607,-3.3893,-3.4265,-3.4638,-3.501,-3.5336,-3.5845,-3.6659,-3.7106,-3.7584,-3.8172,-3.8718,-3.905,-3.927,-3.953,-3.9697,-3.9697,-3.9697,-3.9697,-3.9697,-3.9697,-3.9677,-3.9596,-3.9058,-3.8785,-3.871,-3.8174,-3.79,-3.79,-3.79,-3.79,-3.79,-3.79,-3.79,-3.79,-3.79,-3.79,-3.79,-3.79,-3.79,-3.79,-3.79,-3.79,-3.79,-3.7808,-3.7423,-3.6903,0.0,0.0,0.0,0.0,0.0,0.0,0.0,0.0,0.0,0.0,0.0,0.0,0.0,0.0,0.0,0.0,0.0,0.0,-4.2726,-4.2161,-4.1697,-4.1426,-4.2393,-4.2877,-4.2706,-4.4075,-4.4831,-4.494,-4.522,-4.5503,-4.5811,-4.5963,-4.6112,-4.6284,-4.6405,-4.6542,-4.6684,-4.6708,-4.6424,-4.5881,-4.547,-4.4431,0.0,0.0,0.0,0.0,0.0,0.0,0.0,0.0,-3.5121,-3.4618,-3.4092,-3.3896,-3.3759,-3.292,-3.255,-3.2465,-3.2596,-3.2734,-3.2877,-3.3313,-3.3453,-3.3481,-3.3679,-3.3729,-3.3729,-3.3828,-3.3927,-3.3977,-3.3977,-3.4292,-3.4653,-3.4996,-3.5604,-3.6234,-3.6952,-3.7296,-3.7682,-3.8214,-3.8579,-3.8893,-3.9102,-3.9478,-3.9697,-3.9697,-3.9697,-3.9697,-3.9697,-3.9697,-3.9601,-3.9352,-3.8968,-3.8707,-3.8462,-3.8083,-3.79,-3.79,-3.79,-3.79,-3.79,-3.79,-3.79,-3.79,-3.79,-3.79,-3.79,-3.79,-3.79,-3.79,-3.79,-3.79,-3.79,-3.79,-3.7417,-3.6715,0.0,0.0,0.0,0.0,0.0,0.0,0.0,0.0,0.0,0.0,0.0,0.0,0.0,0.0,0.0,0.0,0.0,0.0,-4.3637,-4.2551,-4.178,-4.1426,-4.249,-4.2979,-4.2723,-4.4092,-4.482,-4.4803,-4.5059,-4.5257,-4.5415,-4.5529,-4.5735,-4.6013,-4.6137,-4.6259,-4.6423,-4.6542,-4.6518,-4.6352,-4.5605,-4.5074,-4.4498,0.0,0.0,0.0,0.0,0.0,0.0,0.0,-3.5116,-3.4583,-3.374,-3.3503,-3.3407,-3.2837,-3.255,-3.2379,-3.2175,-3.231,-3.2547,-3.2847,-3.2891,-3.2891,-3.2891,-3.2891,-3.2992,-3.3242,-3.3481,-3.3679,-3.3679,-3.4275,-3.4816,-3.4828,-3.5916,-3.6823,-3.6823,-3.7515,-3.7986,-3.7986,-3.8473,-3.8788,-3.8788,-3.9322,-3.9697,-3.9697,-3.9697,-3.9697,-3.9697,-3.9685,-3.9436,-3.8815,-3.8777,-3.8479,-3.7913,-3.79,-3.79,-3.79,-3.79,-3.79,-3.79,-3.79,-3.79,-3.79,-3.79,-3.79,-3.79,-3.79,-3.79,-3.79,-3.79,-3.79,-3.79,-3.79,-3.7521,-3.694,0.0,0.0,0.0,0.0,0.0,0.0,0.0,0.0,0.0,0.0,0.0,0.0,0.0,0.0,0.0,0.0,0.0,0.0,-4.4602,-4.3617,-4.2857,-4.2466,-4.3032,-4.3222,-4.2852,-4.3912,-4.4564,-4.4803,-4.4886,-4.4978,-4.5123,-4.5363,-4.5503,-4.558,-4.5803,-4.6055,-4.6259,-4.6308,-4.6405,-4.6525,-4.62,-4.5651,-4.4837,0.0,0.0,0.0,0.0,0.0,0.0,0.0,0.0,0.0,-3.4088,-3.3896,-3.3952,-3.3043,-3.2712,-3.253,-3.2208,-3.231,-3.2511,-3.2605,-3.2742,-3.2891,-3.2891,-3.2768,-3.2656,-3.2706,-3.2969,-3.3245,-3.3577,-3.4104,-3.4757,-3.5491,-3.6139,-3.6743,-3.7269,-3.7554,-3.7797,-3.7986,-3.8303,-3.8579,-3.8788,-3.9154,-3.9478,-3.9697,-3.9697,-3.9697,-3.9697,-3.932,-3.9032,-3.8802,-3.838,-3.8067,-3.7913,-3.79,-3.79,-3.79,-3.79,-3.79,-3.79,-3.79,-3.79,-3.79,-3.79,-3.79,-3.79,-3.79,-3.79,-3.79,-3.79,-3.79,-3.7848,-3.7429,-3.6894,-3.6319,0.0,0.0,0.0,0.0,0.0,0.0,0.0,0.0,0.0,0.0,-4.5096,0.0,0.0,0.0,0.0,0.0,0.0,0.0,0.0,-4.4588,-4.3847,-4.3478,-4.3839,-4.3927,-4.3655,-4.4079,-4.4367,-4.4525,-4.4525,-4.462,-4.4797,-4.4988,-4.5106,-4.5257,-4.552,-4.5727,-4.5887,-4.6005,-4.6179,-4.635,-4.6277,-4.594,-4.5334,0.0,0.0,0.0,0.0,0.0,0.0,0.0,0.0,0.0,-3.459,-3.4311,-3.4201,-3.3213,-3.2857,-3.2686,-3.209,-3.219,-3.2464,-3.2362,-3.2533,-3.2667,-3.2465,-3.2454,-3.2443,-3.2331,-3.2662,-3.3164,-3.3549,-3.4182,-3.4912,-3.5693,-3.6184,-3.6749,-3.7322,-3.7542,-3.7691,-3.7986,-3.825,-3.8526,-3.8788,-3.9102,-3.9426,-3.9697,-3.9697,-3.9697,-3.9697,-3.917,-3.8868,-3.8802,-3.8213,-3.7887,-3.7913,-3.79,-3.79,-3.79,-3.79,-3.79,-3.79,-3.79,-3.79,-3.79,-3.79,-3.79,-3.79,-3.79,-3.79,-3.79,-3.79,-3.79,-3.7835,-3.722,-3.6619,-3.6018,0.0,0.0,0.0,0.0,0.0,0.0,0.0,0.0,0.0,0.0,-4.5825,-4.6156,0.0,0.0,0.0,0.0,0.0,0.0,0.0,0.0,-4.4793,-4.4422,-4.4688,-4.481,-4.4786,-4.4452,-4.4196,-4.4039,-4.4097,-4.4224,-4.4446,-4.4474,-4.4659,-4.4978,-4.523,-4.5389,-4.5415,-4.5667,-4.5846,-4.5972,-4.5972,-4.5972,-4.5885,-4.5018,0.0,0.0,0.0,0.0,0.0,0.0,0.0,0.0,-3.5137,-3.4695,-3.4262,-3.3381,-3.3062,-3.2839,-3.2001,-3.2101,-3.2418,-3.2158,-3.2293,-3.2342,-3.1732,-3.2037,-3.2342,-3.2026,-3.2579,-3.3256,-3.356,-3.4392,-3.521,-3.547,-3.6183,-3.6754,-3.7024,-3.737,-3.7637,-3.7933,-3.8198,-3.8473,-3.8736,-3.905,-3.9374,-3.9633,-3.9697,-3.9697,-3.9697,-3.912,-3.8805,-3.8753,-3.8162,-3.7835,-3.7854,-3.79,-3.79,-3.79,-3.79,-3.79,-3.79,-3.79,-3.79,-3.79,-3.79,-3.79,-3.79,-3.79,-3.79,-3.79,-3.79,-3.79,-3.7821,-3.7168,-3.6567,-3.6018,0.0,0.0,0.0,0.0,0.0,0.0,0.0,0.0,0.0,0.0,0.0,0.0,0.0,0.0,0.0,0.0,0.0,0.0,0.0,0.0,-4.5724,-4.5333,-4.4698,-4.4483,-4.4786,-4.4384,-4.401,-4.3717,-4.3981,-4.4126,-4.4196,-4.4406,-4.453,-4.4614,-4.4934,-4.5203,-4.5398,-4.5468,-4.5624,-4.5846,-4.5846,-4.5846,-4.5734,-4.4867,-4.4317,0.0,0.0,0.0,0.0,0.0,0.0,0.0,-3.5389,-3.4862,-3.4469,-3.3636,-3.3247,-3.2982,-3.2401,-3.2207,-3.2168,-3.2101,-3.2293,-3.2342,-3.1732,-3.1721,-3.1772,-3.1721,-3.2332,-3.3005,-3.3423,-3.4406,-3.5228,-3.5679,-3.61,-3.6483,-3.6754,-3.7024,-3.7304,-3.7637,-3.7945,-3.8198,-3.8473,-3.8736,-3.905,-3.9362,-3.9581,-3.9697,-3.9697,-3.8743,-3.8289,-3.8483,-3.7683,-3.7376,-3.7564,-3.7808,-3.79,0.0,-3.79,-3.79,-3.79,-3.79,-3.79,-3.79,-3.79,-3.79,-3.79,-3.79,-3.79,-3.79,-3.79,-3.79,-3.7769,-3.6698,-3.6214,-3.6018,0.0,0.0,0.0,0.0,0.0,0.0,0.0,0.0,0.0,0.0,0.0,0.0,0.0,0.0,0.0,0.0,0.0,0.0,0.0,0.0,-4.6467,-4.5923,-4.5177,-4.4738,-4.4659,-4.4196,-4.3818,-4.3492,-4.3582,-4.37,-4.3864,-4.408,-4.4281,-4.439,-4.4659,-4.4879,-4.5113,-4.5257,-4.5415,-4.5598,-4.5667,-4.5744,-4.576,-4.5233,-4.4775,-4.4241,-4.3014,0.0,0.0,0.0,0.0,0.0,0.0,0.0,-3.5008,-3.3947,-3.3617,-3.3424,-3.2651,-3.2428,-3.2418,-3.2309,-3.2207,-3.2051,-3.1819,-3.1669,-3.1618,-3.1618,-3.2301,-3.3041,-3.3431,-3.4354,-3.523,-3.5697,-3.5961,-3.6223,-3.6646,-3.6808,-3.7089,-3.7542,-3.7744,-3.7945,-3.8356,-3.8526,-3.8788,-3.927,-3.9426,-3.9469,-3.9308,-3.8479,-3.7988,-3.8028,-3.7428,-3.7214,-3.7505,-3.7762,-3.79,-3.79,-3.79,-3.79,-3.79,-3.79,-3.79,-3.79,-3.79,-3.79,-3.79,-3.79,-3.79,-3.79,-3.79,-3.79,-3.7795,-3.6867,-3.6541,-3.6449,0.0,0.0,0.0,0.0,0.0,0.0,0.0,0.0,0.0,0.0,0.0,0.0,0.0,0.0,0.0,0.0,0.0,0.0,0.0,0.0,0.0,-4.6235,-4.5684,-4.5106,-4.4502,-4.4047,-4.3654,-4.3342,-4.3174,-4.3235,-4.3479,-4.3734,-4.3969,-4.4196,-4.4485,-4.475,-4.498,-4.5166,-4.5383,-4.5526,-4.5537,-4.5589,-4.5693,-4.5607,-4.5183,-4.4586,-4.4103,-4.3326,-4.2344,-4.1021,0.0,0.0,0.0,0.0,-3.5619,-3.4384,-3.4053,-3.3834,-3.2836,-3.2592,-3.2608,-3.2365,-3.1976,-3.1703,-3.1833,-3.1702,-3.1582,-3.1607,-3.2328,-3.3079,-3.3358,-3.4239,-3.5046,-3.5621,-3.5797,-3.6004,-3.6538,-3.6646,-3.6874,-3.737,-3.7542,-3.7756,-3.821,-3.8368,-3.8631,-3.9102,-3.9119,-3.9025,-3.883,-3.8228,-3.7761,-3.7549,-3.7228,-3.7168,-3.7413,-3.7703,-3.7854,-3.79,-3.79,-3.79,-3.79,-3.79,-3.79,-3.79,-3.79,-3.79,-3.79,-3.79,-3.79,-3.79,-3.79,-3.79,-3.7835,-3.722,-3.6998,-3.6933,0.0,0.0,0.0,0.0,0.0,0.0,0.0,0.0,0.0,0.0,-4.7363,-4.7385,0.0,0.0,0.0,0.0,0.0,0.0,0.0,0.0,0.0,-4.6211,-4.5684,-4.5106,-4.4502,-4.4047,-4.3578,-4.3143,-4.3096,-4.3052,-4.2992,-4.3449,-4.3658,-4.3734,-4.4679,-4.5274,-4.5579,-4.5557,-4.5711,-4.5956,-4.5451,-4.5257,-4.53,-4.5397,-4.5372,-4.5182,-4.4371,-4.3826,-4.3328,-4.2108,-4.0762,0.0,0.0,0.0,-3.601,-3.5228,-3.4483,-3.3683,-3.3039,-3.2445,-3.1946,-3.1541,-3.156,-3.1635,-3.1456,-3.1368,-3.1389,-3.1542,-3.2077,-3.2643,-3.3048,-3.3789,-3.4569,-3.5344,-3.5632,-3.5906,-3.632,-3.6538,-3.6754,-3.682,-3.7262,-3.7649,-3.7702,-3.8104,-3.8409,-3.8514,-3.8541,-3.8488,-3.8476,-3.7753,-3.731,-3.7235,-3.6919,-3.6862,-3.7155,-3.7413,-3.7657,-3.79,-3.79,-3.79,-3.79,-3.79,-3.79,-3.79,-3.79,-3.79,-3.79,-3.79,-3.79,-3.79,-3.79,-3.79,-3.7835,-3.722,-3.6998,-3.6998,0.0,0.0,0.0,0.0,0.0,0.0,0.0,0.0,0.0,0.0,0.0,-4.716,0.0,0.0,0.0,-4.7298,0.0,0.0,0.0,0.0,0.0,-4.6112,-4.5632,-4.5106,-4.4502,-4.396,-4.3489,-4.3113,-4.2836,-4.2728,-4.2744,-4.3369,-4.3859,-4.4257,-4.5142,-4.5718,-4.6047,-4.6174,-4.6302,-4.643,-4.6362,-4.6069,-4.5692,-4.5764,-4.5571,-4.5213,-4.4673,-4.4473,-4.4228,-4.3046,-4.2032,-4.1005,-3.9625,0.0,0.0,0.0,-3.5029,-3.4353,-3.3203,-3.2462,-3.1964,-3.172,-3.1574,-3.1491,-3.1527,-3.1426,-3.1335,-3.1394,-3.1721,-3.2186,-3.2982,-3.3572,-3.423,-3.5068,-3.5423,-3.5687,-3.5961,-3.6277,-3.6538,-3.67,-3.6928,-3.7209,-3.7542,-3.7797,-3.8051,-3.8356,-3.8118,-3.7933,-3.794,-3.7319,-3.6891,-3.6782,-3.6707,-3.6769,-3.6862,-3.7155,-3.7413,-3.7657,-3.7854,-3.79,-3.79,-3.79,-3.79,-3.79,-3.79,-3.79,-3.79,-3.79,-3.79,-3.79,-3.79,-3.79,-3.7874,-3.7599,-3.7508,-3.7508,0.0,0.0,0.0,0.0,0.0,0.0,0.0,0.0,0.0,0.0,0.0,0.0,0.0,0.0,0.0,0.0,-4.7125,0.0,0.0,0.0,0.0,-4.5912,-4.5503,-4.5025,-4.4446,-4.3844,-4.3369,-4.3052,-4.2618,-4.2413,-4.2492,-4.3396,-4.4155,-4.4756,-4.5639,-4.6159,-4.6486,-4.6693,-4.6827,-4.6887,-4.7024,-4.6732,-4.6266,-4.634,-4.6093,-4.5661,-4.5254,-4.5175,-4.5039,-4.3899,-4.3109,-4.2332,-4.0828,-3.9481,0.0,0.0,0.0,-3.4625,-3.3306,-3.2513,-3.2012,-3.1786,-3.1504,-3.1272,-3.1378,-3.1264,-3.1216,-3.1274,-3.1405,-3.1801,-3.2763,-3.3191,-3.3748,-3.4637,-3.4946,-3.5266,-3.5719,-3.6016,-3.6277,-3.6538,-3.6646,-3.6874,-3.7316,-3.7489,-3.7756,-3.8157,-3.7697,-3.7394,-3.7406,-3.6874,-3.6497,-3.6288,-3.6499,-3.6675,-3.6709,-3.6968,-3.7214,-3.7505,-3.7703,-3.7854,-3.79,-3.79,-3.79,-3.79,-3.79,-3.79,-3.79,-3.79,-3.79,-3.79,-3.79,-3.79,-3.79,-3.79,-3.79,-3.79,0.0,0.0,0.0,0.0,0.0,0.0,0.0,0.0,0.0,0.0,0.0,0.0,-4.6637,-4.6637,-4.6637,-4.6637,-4.6637,-4.659,-4.6429,-4.6284,0.0,-4.5632,-4.523,0.0,-4.4321,-4.373,-4.3267,-4.2899,-4.2571,-4.2318,-4.2174,-4.3517,-4.4408,-4.487,-4.6044,-4.6664,-4.6873,-4.6999,-4.7204,-4.7309,-4.6903,-4.6701,-4.6697,-4.7033,-4.713,-4.7011,-4.6282,-4.5959,-4.5699,-4.4733,-4.3698,-4.2703,-4.2303,-4.0779,-3.8985,0.0,0.0,0.0,-3.3363,-3.2586,-3.1889,-3.1461,-3.1238,-3.1028,-3.0633,-3.0744,-3.0999,-3.1229,-3.1302,-3.1572,-3.2293,-3.2437,-3.286,-3.4052,-3.4261,-3.4645,-3.5674,-3.5797,-3.5961,-3.6277,-3.6538,-3.67,-3.6754,-3.7262,-3.7596,-3.7649,-3.7151,-3.6852,-3.6816,-3.6333,-3.604,-3.6015,-3.6275,-3.6499,-3.6709,-3.6968,-3.7214,-3.7505,-3.7505,-3.7657,-3.79,-3.79,-3.79,-3.79,-3.79,-3.79,-3.79,-3.79,-3.79,-3.79,-3.79,-3.79,-3.79,-3.79,-3.79,-3.79,0.0,0.0,0.0,0.0,0.0,0.0,0.0,0.0,0.0,0.0,0.0,0.0,0.0,-4.6211,-4.6259,-4.6332,-4.6259,-4.6186,-4.6137,-4.5938,0.0,-4.5477,-4.5052,-4.4603,-4.4184,-4.3671,-4.316,-4.2696,-4.2381,-4.2174,-4.2141,-4.3465,-4.4188,-4.4487,-4.6087,-4.6994,-4.7309,-4.7571,-4.7733,-4.778,-4.7828,-4.7611,-4.7282,-4.7402,-4.7293,-4.7026,-4.6685,-4.6554,-4.6464,-4.5574,-4.4848,-4.4127,-4.2974,-4.1818,-4.0458,-3.8403,-3.6349,-3.4606,-3.3935,-3.3292,-3.2611,-3.1902,-3.1491,-3.1159,-3.0925,-3.0754,-3.0733,-3.1009,-3.0923,-3.1003,-3.1576,-3.206,-3.2643,-3.3385,-3.3645,-3.3915,-3.4491,-3.5009,-3.5472,-3.573,-3.6179,-3.6483,-3.67,-3.6928,-3.7209,-3.7542,-3.6753,-3.6461,-3.6765,-3.6113,-3.5812,-3.6015,-3.6275,-3.6452,-3.6499,-3.6722,-3.6909,-3.7015,-3.7353,-3.7551,-3.7657,-3.7808,-3.79,-3.79,-3.79,-3.79,-3.79,-3.79,-3.79,-3.79,-3.79,-3.79,-3.79,-3.79,-3.79,-3.79,0.0,0.0,0.0,0.0,0.0,0.0,0.0,0.0,0.0,-4.5589,0.0,0.0,0.0,0.0,-4.5837,-4.5938,-4.5862,-4.5786,-4.5735,-4.5529,-4.5292,-4.5106,-4.4725,-4.4321,-4.3952,-4.3462,-4.3007,-4.2539,-4.219,-4.1996,-4.1947,-4.3264,-4.3965,-4.4218,-4.5883,-4.6874,-4.7319,-4.7671,-4.7869,-4.7919,-4.8212,-4.8136,-4.7809,-4.7872,-4.7723,-4.7449,-4.7123,-4.7068,-4.701,-4.6165,-4.5522,-4.4912,-4.3839,-4.2677,-4.1241,-3.8716,-3.6997,-3.5701,-3.4687,-3.3929,-3.322,-3.2364,-3.1772,-3.1319,-3.0996,-3.0781,-3.0685,-3.0767,-3.0748,-3.0789,-3.1085,-3.1567,-3.2119,-3.2763,-3.299,-3.3257,-3.3699,-3.4319,-3.4857,-3.5283,-3.5764,-3.619,-3.6526,-3.6646,-3.6804,-3.7027,-3.6398,0.0,-3.6247,-3.5758,-3.562,-3.5968,-3.6275,-3.6405,-3.6405,-3.6534,-3.6628,-3.6722,-3.7155,-3.7413,-3.7505,-3.7762,-3.79,-3.79,-3.79,-3.79,-3.79,-3.79,-3.79,-3.79,-3.79,-3.79,-3.79,-3.79,-3.79,-3.79,0.0,0.0,0.0,0.0,0.0,0.0,0.0,0.0,-4.5228,-4.5211,0.0,0.0,0.0,0.0,0.0,-4.5423,-4.5406,-4.531,-4.5177,-4.5059,-4.4824,-4.4502,0.0,0.0,-4.3598,-4.3146,-4.2713,-4.2381,-4.2045,-4.1784,-4.162,-4.3024,-4.3775,-4.4029,-4.546,-4.6365,-4.6876,-4.7301,-4.7554,-4.7704,-4.7886,-4.8049,-4.8227,-4.842,-4.8483,-4.8431,-4.7697,-4.7445,-4.7328,-4.6578,-4.5704,-4.4967,-4.4886,-4.3361,-4.1197,-3.9163,-3.806,-3.7164,0.0,0.0,0.0,-3.2654,-3.2067,-3.1513,-3.0716,-3.0823,-3.0963,-3.0573,-3.0721,-3.0854,-3.09,-3.0905,-3.1189,-3.2192,-3.2381,-3.265,-3.3376,-3.3729,-3.4196,-3.5001,-3.5337,-3.5715,-3.6208,-3.6526,-3.6503,-3.6015,-3.5989,-3.5765,-3.5241,-3.521,-3.5476,-3.5968,-3.6228,-3.6405,-3.6405,-3.6405,-3.6499,-3.6675,-3.6968,-3.7261,-3.7505,-3.7749,-3.79,-3.79,-3.79,-3.79,-3.79,-3.79,-3.79,-3.79,-3.79,-3.79,-3.79,-3.79,-3.79,-3.79,0.0,0.0,0.0,0.0,0.0,0.0,-4.4423,-4.4964,-4.5388,0.0,0.0,0.0,-4.6328,-4.5864,-4.5541,-4.5541,-4.5075,-4.4725,-4.4697,-4.4575,-4.4423,-4.4224,-4.3923,-4.3539,-4.3115,-4.2821,-4.2413,-4.1818,-4.1736,-4.1538,-4.1268,-4.2629,-4.3306,-4.3423,-4.5124,-4.5952,-4.6152,-4.6789,-4.7167,-4.7352,-4.7571,-4.7803,-4.8049,-4.8131,-4.8308,-4.845,-4.8249,-4.8182,-4.8065,-4.7345,-4.6853,-4.6317,-4.4851,-4.3148,-4.1543,-4.0512,-3.9125,-3.7653,-3.6717,0.0,0.0,0.0,0.0,0.0,-3.1474,-3.0996,-3.0614,-3.0398,-3.0319,-3.0325,-3.0388,-3.0531,-3.0827,-3.1223,-3.1645,-3.2096,-3.2677,-3.3315,-3.3855,-3.4251,-3.5019,-3.5577,-3.5715,-3.6167,-3.6287,0.0,-3.5805,-3.5585,-3.5241,-3.521,-3.5476,-3.5968,-3.6051,-3.6193,-3.6405,-3.6405,-3.6452,-3.6499,-3.6922,-3.7155,-3.7214,-3.7703,-3.79,-3.79,-3.79,-3.79,-3.79,-3.79,-3.79,-3.79,-3.79,-3.79,-3.79,-3.79,-3.79,-3.79,0.0,0.0,0.0,0.0,0.0,0.0,-4.429,-4.4783,-4.5243,0.0,0.0,0.0,-4.6287,-4.5902,-4.5634,-4.5634,-4.5248,-4.4997,-4.4997,-4.4896,-4.4614,-4.4238,-4.3891,-4.344,-4.2775,-4.2461,-4.2061,-4.1588,-4.1472,-4.1288,-4.1148,-4.249,-4.3114,-4.3176,-4.4815,-4.5625,-4.5807,-4.6243,-4.6684,-4.7098,-4.7217,-4.747,-4.7803,-4.7803,-4.7886,-4.8065,-4.8065,-4.813,-4.8096,-4.7601,-4.6989,-4.6118,-4.4619,-4.3191,-4.1999,-4.1197,-4.0087,-3.8842,-3.7663,-3.6414,-3.5233,-3.4216,0.0,0.0,-3.1969,-3.1435,-3.0884,-3.0458,-3.0368,-3.0283,-3.0047,-3.0279,-3.0606,-3.0704,-3.1204,-3.1686,-3.2089,-3.2639,-3.318,-3.3743,-3.4429,-3.4969,-3.5198,-3.5485,-3.5557,-3.5207,-3.509,-3.5051,-3.4871,-3.5089,-3.532,-3.5668,-3.5649,-3.5762,-3.589,-3.5746,-3.5793,-3.6019,-3.6426,-3.6785,-3.7108,-3.7551,-3.7808,-3.79,-3.79,-3.79,-3.79,-3.79,-3.79,-3.79,-3.79,-3.79,-3.79,-3.79,-3.79,-3.79,0.0,0.0,0.0,0.0,0.0,-4.3542,-4.4233,-4.4587,-4.4979,0.0,-4.5838,-4.5887,-4.5887,-4.5821,-4.5772,-4.5772,-4.5689,-4.5656,-4.5656,-4.5515,-4.5155,-4.4465,-4.4053,-4.3442,-4.2637,-4.2125,-4.1752,-4.1522,-4.1187,-4.1049,-4.1031,-4.2272,-4.2929,-4.3069,-4.4429,-4.529,-4.5698,-4.5735,-4.6152,-4.6789,-4.6842,-4.7098,-4.7436,-4.7436,-4.747,-4.752,-4.752,-4.7571,-4.7654,-4.7537,-4.6553,-4.5227,-4.4365,-4.3425,-4.2476,-4.1484,-4.0896,-4.0181,-3.8496,-3.7391,-3.6385,-3.5078,-3.4094,0.0,-3.2417,-3.1966,-3.1513,-3.0707,-3.0639,-3.0531,-2.9864,-3.0167,-3.0506,-3.0435,-3.0902,-3.139,-3.1675,-3.192,-3.2419,-3.3373,-3.3737,-3.413,-3.4659,-3.4762,-3.4578,-3.4039,-3.4201,-3.4322,-3.4408,-3.4823,-3.5102,-3.509,-3.5115,-3.5124,-3.5108,-3.484,-3.4956,-3.5495,-3.5759,-3.6327,-3.7108,-3.7366,-3.7657,-3.79,-3.79,-3.79,-3.79,-3.79,-3.79,-3.79,-3.79,-3.79,-3.79,-3.79,-3.79,-3.79,0.0,0.0,0.0,0.0,0.0,0.0,-4.3875,-4.451,-4.526,-4.6159,-4.6783,-4.7144,-4.7144,-4.6619,-4.6257,-4.6257,-4.5716,-4.5388,-4.5388,-4.5211,-4.4968,-4.4643,-4.3913,-4.3233,-4.2627,-4.1972,-4.1439,-4.0969,-4.073,-4.0574,-4.0466,-4.1102,-4.1796,-4.2493,-4.3491,-4.4341,-4.5114,-4.5241,-4.5589,-4.6044,-4.6493,-4.6807,-4.703,-4.7217,-4.7369,-4.752,-4.752,-4.752,-4.7537,-4.7504,-4.6814,-4.5799,-4.4935,-4.401,-4.3057,-4.2061,-4.1085,-4.024,-3.9582,-3.8063,-3.6571,-3.6004,-3.4918,0.0,-3.3199,-3.2535,-3.1776,-3.0991,-3.0945,-3.0775,-3.0008,-3.0284,-3.0477,-2.9936,-3.0324,-3.0939,-3.1579,-3.1796,-3.2073,-3.2658,-3.3166,-3.3614,-3.4108,-3.4544,-3.4578,-3.4039,-3.3889,-3.4021,-3.4396,-3.4482,-3.4534,-3.4543,-3.4576,-3.4554,-3.4549,-3.4483,-3.4832,-3.5495,-3.5759,-3.6327,-3.7108,-3.7366,-3.7657,-3.79,-3.79,-3.79,-3.79,-3.79,-3.79,-3.79,-3.79,-3.79,-3.79,-3.79,-3.79,-3.79,-4.2238,-4.2238,-4.227,0.0,0.0,0.0,0.0,-4.4348,-4.5028,-4.6194,-4.6682,-4.6909,-4.6909,-4.6585,-4.6374,-4.6374,-4.6016,-4.5822,-4.5822,-4.5704,-4.5391,-4.4886,-4.4028,-4.3216,-4.2462,-4.1534,-4.0919,-4.0662,-4.0366,-4.0242,-4.0152,-4.0715,-4.1419,-4.2162,-4.2945,-4.3828,-4.4761,-4.4852,-4.5129,-4.5552,-4.6028,-4.6369,-4.6615,-4.6719,-4.6789,-4.6909,-4.6909,-4.6909,-4.6909,-4.703,-4.6457,-4.5575,-4.4765,-4.3808,-4.2839,-4.2023,-4.1236,-4.056,-3.9969,-3.8706,-3.7405,-3.6658,-3.5459,0.0,0.0,-3.3094,-3.2345,-3.164,-3.1433,-3.1099,-3.0312,-3.0555,-3.0677,-3.0036,-3.0331,-3.08,-3.1376,-3.1599,-3.1937,-3.246,-3.2762,-3.3122,-3.361,-3.3762,-3.3811,-3.3648,-3.3669,-3.3878,-3.4211,-3.411,-3.409,-3.4196,-3.3817,-3.3646,-3.3798,-3.3648,-3.3963,-3.4726,-3.5138,-3.5783,-3.6698,-3.7132,-3.7505,-3.79,-3.79,-3.79,-3.79,-3.79,-3.79,-3.79,-3.79,-3.79,-3.79,-3.79,-3.79,-3.79,-4.1702,-4.175,-4.18,0.0,0.0,0.0,0.0,0.0,-4.4596,-4.6087,-4.6262,-4.6298,-4.6298,-4.6298,-4.6298,-4.6298,-4.6298,-4.6298,-4.6262,-4.6243,-4.5865,-4.5116,-4.4082,-4.3163,-4.2356,-4.1098,-4.042,-4.0385,-4.0086,-3.9925,-3.9905,-4.0398,-4.1079,-4.1866,-4.2433,-4.3343,-4.4419,-4.4458,-4.4701,-4.5092,-4.5426,-4.5812,-4.6207,-4.6278,-4.6298,-4.6298,-4.6298,-4.6298,-4.6333,-4.6458,-4.6019,-4.5269,-4.4482,-4.3527,-4.2543,-4.1899,-4.1382,-4.0876,-4.0166,-3.9334,-3.8376,-3.7243,-3.6085,-3.5049,0.0,0.0,0.0,-3.2417,-3.1996,-3.1482,-3.0785,-3.0868,-3.0892,-3.0315,-3.0509,-3.0782,-3.0985,-3.134,-3.1764,-3.2335,-3.2418,-3.263,-3.3112,-3.2966,-3.2887,-3.3108,-3.334,-3.3586,-3.383,-3.3671,-3.3589,-3.3706,-3.3061,-3.2836,-3.2962,-3.2728,-3.304,-3.3821,-3.4417,-3.5287,-3.6334,-3.6852,-3.74,-3.79,-3.79,-3.79,-3.79,-3.79,-3.79,-3.79,-3.79,-3.79,-3.79,-3.79,-3.79,-3.79,-4.1102,-4.1185,-4.1218,-4.1203,0.0,0.0,0.0,0.0,-4.411,-4.5873,-4.6243,-4.6298,-4.6298,-4.6298,-4.6298,-4.6298,-4.6298,-4.6243,-4.6136,-4.5972,-4.5724,-4.5468,-4.38,-4.2798,-4.2577,-4.1014,-4.0161,-4.0066,-3.9839,-3.9625,-3.946,-3.9375,-3.9988,-4.1203,-4.1444,-4.237,-4.3708,-4.3972,-4.4281,-4.4663,-4.4739,-4.5188,-4.588,-4.6207,-4.6298,-4.6298,-4.6298,-4.6298,-4.6298,-4.6191,-4.5981,-4.5591,-4.4685,-4.3749,-4.2919,-4.2247,-4.147,-4.0817,-4.0706,-3.9958,-3.8977,-3.8089,-3.7089,-3.6011,-3.4882,0.0,-3.3563,-3.3023,0.0,-3.1986,-3.1556,0.0,0.0,-3.0458,-3.0608,-3.067,-3.0372,-3.0783,-3.1339,-3.2041,-3.2128,-3.2261,-3.2571,-3.2571,-3.2547,-3.2617,-3.2617,-3.2759,-3.3042,-3.2983,-3.2885,-3.2695,-3.2563,-3.2397,-3.2135,-3.2325,-3.2834,-3.3531,-3.4315,-3.5287,-3.6334,-3.6852,-3.74,-3.79,-3.79,-3.79,-3.79,-3.79,-3.79,-3.79,-3.79,-3.79,-3.79,-3.79,-3.79,-3.79,-4.0524,-4.0593,-4.0627,-4.0746,0.0,0.0,0.0,0.0,-4.4277,-4.5447,-4.5646,-4.5667,-4.5667,-4.5667,-4.5667,-4.5667,-4.5667,-4.563,-4.5573,-4.5515,-4.5315,-4.4986,-4.3484,-4.2556,-4.2242,-4.0576,-3.9717,-3.964,-3.9322,-3.9126,-3.9068,0.0,-3.9654,-4.0911,-4.1027,-4.187,-4.3275,-4.3354,-4.363,-4.402,-4.4135,-4.4496,-4.4964,-4.5484,-4.5667,-4.5667,-4.5667,-4.5667,-4.563,-4.5609,-4.5499,-4.5316,-4.4471,-4.3832,-4.318,-4.2061,-4.134,-4.0821,-4.0438,-3.9738,-3.9002,-3.8527,-3.7413,-3.6257,-3.5569,-3.4743,-3.3991,-3.3472,0.0,0.0,0.0,0.0,0.0,0.0,-3.0828,-3.0868,-3.0784,-3.0958,-3.1163,-3.1253,-3.1554,-3.1954,-3.241,-3.2709,-3.2806,-3.2536,-3.2488,-3.263,-3.2911,-3.2602,-3.2478,-3.2503,-3.2178,-3.2035,-3.1994,-3.2257,-3.263,-3.3071,-3.4165,-3.5032,-3.5647,-3.6619,-3.7307,-3.7657,-3.7854,-3.79,-3.79,-3.79,-3.79,-3.79,-3.79,-3.79,-3.79,-3.79,-3.79,-3.79,-3.9793,-4.0005,-4.0196,-4.0331,-4.0489,0.0,0.0,-4.2772,-4.3925,-4.457,-4.4909,-4.5017,-4.5017,-4.5017,-4.5017,-4.5017,-4.5017,-4.5017,-4.4942,-4.4942,-4.4792,-4.4473,-4.324,-4.2315,-4.185,-4.0299,-3.9407,-3.9228,-3.8943,-3.8745,0.0,0.0,0.0,-4.0198,-4.0451,-4.1204,-4.2423,-4.2721,-4.3036,-4.3354,-4.3576,-4.3825,-4.4189,-4.4867,-4.5129,-4.5129,-4.5129,-4.5129,-4.5092,-4.498,-4.4942,0.0,-4.4248,-4.3784,-4.3192,-4.199,-4.1336,-4.0846,-4.0193,-3.9646,-3.9202,-3.8782,-3.7861,-3.6847,-3.6069,-3.5302,-3.4515,-3.3807,-3.3466,0.0,0.0,0.0,-3.1986,-3.136,0.0,-3.1092,-3.1151,-3.11,-3.1016,-3.0914,-3.1262,-3.1687,0.0,-3.2638,-3.2827,-3.2379,-3.2379,-3.2425,-3.2563,-3.2182,-3.207,-3.2274,-3.1922,-3.1749,-3.1906,-3.2169,-3.2388,-3.2649,-3.3975,-3.4783,-3.5136,-3.6471,-3.7261,-3.7505,-3.7762,-3.79,-3.79,-3.79,-3.79,-3.79,-3.79,-3.79,-3.79,-3.79,-3.79,-3.79,-3.8855,-3.9466,-4.0011,-3.9996,-4.0031,-4.0259,-4.0927,-4.1794,-4.2591,-4.3264,-4.4112,-4.4625,-4.4625,-4.4625,-4.4625,-4.4625,-4.4625,-4.4549,-4.4358,-4.432,-4.4243,-4.4026,-4.2973,-4.2104,-4.1437,-4.0336,-3.9483,-3.8819,-3.8819,-3.8598,0.0,0.0,0.0,0.0,-3.9503,-4.0216,-4.0946,-4.1992,-4.2541,-4.2729,-4.2955,-4.3275,-4.3708,-4.4594,-4.4911,-4.4911,-4.4911,-4.4911,0.0,-4.4473,-4.432,0.0,0.0,0.0,0.0,-4.2203,-4.1498,-4.0846,-4.0193,0.0,-3.9778,-3.8902,-3.8672,-3.8157,-3.6325,-3.5727,-3.5228,-3.4114,-3.357,-3.3171,-3.2739,-3.2408,-3.2146,-3.189,-3.1545,0.0,0.0,-3.0837,-3.0868,-3.1298,-3.1442,-3.1522,-3.1516,-3.2074,-3.2306,0.0,-3.2042,-3.1954,-3.1765,-3.1741,-3.1741,-3.1741,-3.1717,-3.1705,-3.1705,-3.1893,-3.2169,-3.2456,-3.3776,-3.4648,-3.5136,-3.6471,-3.7261,-3.7505,-3.7762,-3.79,-3.79,-3.79,-3.79,-3.79,-3.79,-3.79,-3.79,-3.79,-3.79,-3.79,-3.8427,-3.8612,-3.887,-3.9162,-3.9322,-3.9691,-4.0497,-4.1234,-4.1965,-4.2628,-4.3316,-4.3801,-4.3903,-4.3942,-4.3996,-4.4205,-4.4205,-4.4166,-4.4104,-4.3918,-4.3762,-4.3542,-4.2623,-4.1733,-4.0825,-3.987,-3.9022,-3.8188,-3.8089,-3.7953,0.0,0.0,0.0,0.0,-3.929,-3.996,-4.066,-4.1416,-4.1841,-4.2061,-4.2444,-4.2688,-4.2945,-4.3918,-4.432,-4.432,-4.432,-4.432,0.0,-4.4127,-4.3957,-4.384,-4.3762,-4.3401,-4.2865,-4.2207,-4.1473,0.0,0.0,0.0,-3.9154,-3.8843,0.0,-3.7899,-3.7187,-3.6641,-3.5948,-3.4737,-3.4412,-3.3988,-3.288,-3.2596,-3.2336,-3.178,-3.1596,-3.1373,0.0,-3.0849,-3.0764,-3.0919,-3.1048,-3.1204,-3.1415,-3.1824,0.0,0.0,-3.2049,0.0,-3.1893,-3.1893,-3.1849,-3.1705,-3.1705,-3.1705,-3.1705,-3.1893,-3.2125,-3.2412,-3.3776,-3.4557,-3.4899,-3.6227,-3.6968,-3.7261,-3.7505,-3.7749,-3.79,-3.79,-3.79,-3.79,-3.79,-3.79,-3.79,-3.79,-3.79,-3.79,-3.7944,-3.7825,-3.7938,-3.8486,-3.8686,-3.8981,-3.9528,-4.0448,-4.1243,-4.1659,-4.2515,-4.313,-4.3275,-4.3275,-4.3369,-4.3542,-4.3542,-4.3542,-4.3542,-4.3369,-4.3195,-4.309,-4.2395,-4.1601,-4.0748,-3.9996,-3.911,-3.8117,-3.79,-3.767,0.0,0.0,0.0,0.0,-3.867,-3.9277,-3.9729,-4.0633,-4.1156,-4.1409,-4.1924,-4.2131,-4.2254,-4.2996,-4.3448,-4.3645,0.0,-4.3645,-4.3606,-4.3581,-4.3409,-4.3275,-4.3275,-4.3115,-4.2742,-4.209,-4.1375,-4.0663,-3.9976,-3.9298,0.0,-3.8782,-3.8472,0.0,-3.7681,0.0,-3.6453,-3.5095,-3.4697,-3.4214,-3.2921,-3.2596,-3.2336,-3.178,-3.1596,-3.1373,0.0,-3.0874,-3.0773,-3.0698,-3.0803,-3.0972,-3.1178,-3.1542,-3.1605,-3.1395,-3.1914,-3.2093,0.0,0.0,-3.2069,-3.1937,-3.1937,-3.1893,-3.1805,-3.1937,-3.2125,-3.24,-3.3476,-3.4234,-3.4751,-3.5873,-3.6671,-3.7108,-3.7366,-3.7657,-3.79,-3.79,-3.79,-3.79,-3.79,-3.79,-3.79,-3.79,-3.79,-3.79,-3.7339,-3.707,-3.7173,-3.7924,-3.8127,-3.8127,-3.8165,-3.9435,-4.0437,-4.0437,-4.1748,-4.2648,-4.2648,-4.2648,-4.2648,-4.2648,-4.2688,-4.2688,-4.2688,-4.2648,-4.2648,-4.2648,-4.2199,-4.1662,-4.1065,-4.0588,-3.9715,-3.8475,-3.8263,-3.7755,0.0,0.0,0.0,0.0,-3.7662,-3.82,-3.8269,-3.9672,-4.0445,-4.073,-4.1367,-4.1646,-4.1646,-4.1881,-4.236,-4.29,-4.2941,-4.2941,-4.29,-4.2729,-4.2648,-4.2648,-4.2648,-4.2648,-4.253,-4.1871,-4.1209,-4.0601,-3.9982,-3.9253,-3.8745,-3.8745,0.0,0.0,0.0,0.0,-3.6837,0.0,0.0,-3.3934,-3.2891,-3.2422,-3.2146,-3.189,-3.1545,-3.1235,-3.1024,-3.0986,-3.0911,-3.0736,-3.0778,-3.0874,-3.0874,-3.1155,-3.1279,-3.1087,-3.1555,-3.1782,-3.1552,0.0,-3.2363,-3.24,-3.24,-3.2257,-3.2038,-3.1994,-3.2125,-3.2444,-3.2941,-3.3752,-3.4738,-3.5507,-3.634,-3.7108,-3.7366,-3.7657,-3.79,-3.79,-3.79,-3.79,-3.79,-3.79,-3.79,-3.79,-3.79,-3.79,-3.6514,-3.6151,-3.6111,-3.6296,-3.69,-3.7366,-3.7534,-3.8657,-3.959,-3.9736,-4.0925,-4.18,-4.1951,-4.1951,-4.202,-4.217,-4.217,-4.217,-4.217,-4.2061,-4.1951,-4.1951,-4.1717,-4.1179,-4.0385,-4.0108,-3.9239,-3.7826,-3.7639,-3.7186,-3.6549,0.0,0.0,0.0,-3.7662,-3.82,-3.8269,-3.9557,-4.0126,-4.0213,-4.0531,-4.0788,-4.0986,0.0,-4.1479,-4.1827,-4.217,-4.2237,-4.2237,-4.2211,-4.2087,-4.1951,-4.1951,-4.1868,-4.1688,-4.1529,-4.068,-3.9812,-3.96,-3.875,-3.7915,-3.7915,-3.7915,-3.7872,0.0,0.0,0.0,0.0,0.0,0.0,0.0,0.0,-3.2036,-3.1545,-3.1235,-3.1061,-3.1024,-3.0874,-3.0773,-3.0698,-3.0484,-3.0291,-3.0291,-3.0601,-3.0768,-3.0741,-3.1229,-3.1622,-3.1794,0.0,0.0,-3.2376,-3.24,-3.2344,-3.2313,-3.2081,-3.2201,-3.2649,-3.303,-3.3752,-3.4738,-3.5336,-3.6155,-3.7108,-3.7168,-3.7459,-3.79,-3.79,-3.79,-3.79,-3.79,-3.79,-3.79,-3.79,-3.79,-3.79,-3.628,-3.5656,-3.525,-3.525,-3.5656,-3.6177,-3.6665,-3.7886,-3.8847,-3.9023,-4.0264,-4.1128,-4.1241,-4.1283,-4.1353,-4.1534,-4.1576,-4.1617,-4.1729,-4.1619,-4.1577,-4.1577,-4.1255,-4.0845,-4.0365,-4.0055,-3.9354,-3.8269,-3.7676,-3.7085,-3.6482,0.0,-3.5817,-3.5872,-3.7069,-3.7599,-3.768,-3.9095,-3.9689,-3.9733,-4.0025,-4.0243,0.0,-4.0502,-4.0645,-4.083,-4.1043,-4.1381,-4.1729,-4.1729,-4.1604,-4.1395,-4.1395,-4.1241,-4.1086,-4.1086,-4.0376,-3.954,-3.927,-3.849,-3.7682,-3.7412,-3.7341,-3.7341,-3.7341,-3.7264,-3.6965,0.0,0.0,0.0,0.0,0.0,-3.1656,-3.1123,-3.0874,-3.0748,-3.0748,-3.0647,-3.0533,-3.047,-3.0241,-3.0075,-2.9972,-3.0146,-3.0256,-3.0256,-3.0746,-3.1145,0.0,0.0,0.0,-3.2308,-3.232,-3.2389,-3.2519,-3.2376,-3.2463,-3.2723,-3.2902,-3.3593,-3.4726,-3.4994,-3.5802,-3.6922,-3.7062,-3.7353,-3.7749,-3.7854,-3.79,-3.79,-3.79,-3.79,-3.79,-3.79,-3.79,-3.79,-3.6266,-3.5264,-3.4551,-3.4551,-3.4616,-3.4959,-3.5778,-3.714,-3.8186,-3.8477,-3.9704,-4.0559,-4.0602,-4.0616,-4.0688,-4.0873,-4.0873,-4.0972,-4.1213,-4.1227,-4.1227,-4.1227,-4.083,-4.0616,-4.0616,-4.0126,-3.9619,-3.9013,-3.7913,-3.7091,0.0,0.0,-3.5086,-3.5139,-3.6298,-3.691,-3.711,-3.8593,-3.9216,-3.9261,-3.9645,-3.9865,-3.9908,-3.9908,-3.9952,-3.9996,-3.9996,-4.053,-4.1227,-4.1227,-4.1071,-4.0873,-4.0873,-4.0759,-4.0616,-4.0616,-4.0111,-3.9438,-3.8823,-3.8207,-3.7592,-3.6976,-3.6822,-3.6822,-3.6822,-3.6705,-3.6395,-3.5867,-3.4794,-3.3731,0.0,0.0,-3.1048,-3.0736,-3.052,-3.0406,-3.0406,-3.0368,-3.0292,-3.0113,-3.0075,0.0,-2.9792,-2.9792,-2.9792,-2.9792,-3.0231,0.0,0.0,0.0,0.0,-3.2089,-3.2177,-3.2326,-3.2642,0.0,-3.2723,-3.2754,-3.2723,-3.3383,-3.468,-3.468,-3.5453,-3.6709,-3.6968,-3.7261,-3.7505,-3.7808,-3.79,-3.79,-3.79,-3.79,-3.79,-3.79,-3.79,-3.7854,-3.5439,-3.4451,-3.3882,-3.3882,-3.4294,-3.4787,-3.5342,-3.6518,-3.7704,-3.8536,-3.931,-3.9881,-4.0083,-4.0126,-4.0126,-4.017,-4.017,-4.0213,-4.0257,-4.0257,-4.0257,-4.0257,-4.017,-4.0126,-4.0126,-3.9645,-3.9139,-3.8496,-3.7456,-3.6596,-3.6022,0.0,-3.5086,-3.5139,-3.6298,-3.7363,-3.8309,-3.8599,-3.8737,-3.8737,-3.8827,-3.9083,-3.9438,-3.9438,-3.9645,-3.9996,-3.9996,-4.0126,-4.0257,-4.0257,-4.0213,-4.017,-4.017,-4.017,-4.0126,-4.0126,-3.9524,-3.8747,-3.8226,-3.7441,-3.6702,-3.6061,-3.5911,-3.5911,-3.5911,-3.5911,-3.5803,-3.5547,-3.4522,-3.3493,-3.2869,0.0,0.0,-3.0444,-3.0406,-3.0406,-3.0406,-3.0254,-3.0152,-3.0113,-2.9934,-2.9728,-2.9509,-2.965,-2.9792,-2.9792,-2.988,0.0,0.0,0.0,0.0,0.0,-3.1976,0.0,0.0,0.0,-3.281,-3.3025,-3.281,-3.3383,-3.468,-3.468,-3.5453,-3.6709,-3.6968,-3.7261,-3.7505,-3.7808,-3.79,-3.79,-3.79,-3.79,-3.79,-3.79,-3.79,-3.7854,-3.5243,-3.4683,-3.4448,-3.4448,-3.4678,-3.5104,-3.5727,-3.6322,-3.7083,-3.8034,-3.8705,-3.9158,-3.9261,-3.9261,-3.9336,-3.9411,-3.9557,-3.9689,-3.9807,-3.9908,-3.9996,-3.9996,-3.9777,-3.9645,-3.9645,-3.9172,-3.8814,-3.8487,-3.759,-3.6817,0.0,0.0,-3.5079,-3.5257,-3.6418,-3.7377,-3.8253,-3.8362,0.0,-3.8408,-3.8544,-3.8737,-3.8948,-3.8948,-3.9083,-3.9261,-3.9261,-3.9261,-3.9349,-3.9821,-3.9821,-3.9645,-3.9645,-3.9482,-3.9261,-3.9261,-3.8969,-3.8462,-3.7545,-3.7044,-3.6473,-3.5628,-3.5399,-3.5399,-3.5399,-3.5399,-3.5358,-3.5277,-3.4126,-3.2803,-3.1708,-3.0817,0.0,0.0,0.0,-3.0075,-3.0075,-3.0011,-2.9882,-2.9741,-2.9638,-2.9482,-2.9275,-2.9378,-2.9495,-2.956,-2.9599,-2.9763,0.0,0.0,0.0,0.0,0.0,0.0,0.0,0.0,0.0,-3.3124,-3.2982,-3.3408,-3.4299,-3.4587,-3.5211,-3.613,-3.6654,-3.7062,-3.7307,-3.7703,-3.79,-3.79,-3.79,-3.807,-3.8318,-3.8318,-3.8514,-3.8689,-3.5171,-3.4949,-3.4873,-3.4873,-3.5019,-3.5325,-3.6029,-3.6274,-3.6716,-3.7643,-3.8174,-3.8512,-3.8602,-3.8602,-3.8679,-3.8832,-3.9024,-3.9203,-3.9397,-3.9601,-3.9689,-3.9689,-3.9349,-3.9172,-3.9172,-3.8724,-3.8498,-3.8498,-3.7659,0.0,0.0,0.0,0.0,-3.5574,-3.646,0.0,0.0,0.0,-3.8031,-3.8076,-3.833,-3.8466,-3.8498,-3.8498,-3.8557,-3.8602,-3.8602,-3.8602,-3.8692,-3.9438,-3.9482,-3.9172,-3.9172,-3.8904,-3.8602,-3.8602,-3.8557,-3.8246,-3.702,-3.6645,-3.628,-3.5116,-3.4784,-3.4784,-3.4784,-3.4784,-3.4784,-3.4784,-3.3577,-3.2057,-3.0548,-3.0113,0.0,0.0,0.0,-2.9663,-2.9663,-2.9663,-2.9573,-2.9353,-2.9341,-2.9275,-2.9052,-2.9052,-2.9079,-2.9263,-2.9302,-2.9443,-2.9702,0.0,0.0,0.0,0.0,-3.1486,-3.1955,0.0,-3.287,-3.2952,-3.2982,-3.3314,-3.3834,-3.443,-3.4981,-3.552,-3.6341,-3.6862,-3.7155,-3.7611,-3.7808,-3.7821,-3.7984,-3.8331,-3.8723,-3.8854,-3.9207,-3.9464,-3.4935,-3.4435,-3.4102,-3.4102,-3.4693,-3.5273,-3.5542,-3.6176,-3.6972,-3.7769,-3.7913,-3.8135,-3.8557,-3.8602,-3.8602,-3.8647,-3.8647,-3.8692,-3.8679,-3.8737,-3.8737,-3.8737,-3.8692,-3.8692,-3.8692,-3.8395,-3.8258,-3.8258,-3.7169,-3.6631,0.0,0.0,0.0,0.0,0.0,0.0,0.0,-3.7446,-3.7551,-3.7598,-3.7854,-3.8057,-3.8258,-3.8258,-3.8408,-3.8602,-3.8602,-3.8602,-3.8602,-3.8692,-3.8692,-3.8692,-3.8692,-3.8647,-3.8602,-3.8602,-3.8408,-3.7962,-3.6639,-3.6092,-3.5574,-3.4178,-3.3839,-3.3839,-3.3839,-3.3839,-3.3839,-3.3839,-3.2787,-3.1474,-3.0109,-2.9638,-2.9431,0.0,0.0,0.0,-2.917,-2.917,-2.917,-2.9131,-2.9131,-2.9052,-2.8843,-2.8843,-2.8843,-2.8831,-2.904,-2.9209,0.0,0.0,0.0,-2.9867,0.0,-3.0826,-3.1199,-3.1746,-3.2141,-3.2475,-3.2636,-3.2996,-3.3556,-3.4327,-3.4981,-3.552,-3.6341,-3.6862,-3.7108,-3.7413,-3.7551,-3.7603,-3.8342,-3.8671,-3.8776,-3.9324,-3.956,-3.9568,-3.5301,-3.5116,-3.4969,-3.4969,-3.5248,-3.5538,-3.5774,-3.6091,-3.6499,-3.7095,-3.7341,-3.7479,-3.7677,-3.7861,-3.792,-3.792,-3.8181,-3.8349,-3.8349,-3.8817,-3.9095,-3.9095,-3.8984,-3.8905,-3.8905,-3.8182,-3.7769,-3.7769,-3.72,0.0,0.0,0.0,0.0,0.0,0.0,-3.6903,-3.7108,-3.7201,-3.7261,-3.7261,-3.7366,-3.7446,-3.7526,-3.7526,-3.7618,-3.7723,-3.7723,-3.7723,-3.7723,-3.7723,-3.7985,-3.8349,-3.8349,-3.8181,-3.792,-3.792,-3.7769,-3.7279,-3.605,-3.5651,-3.5236,-3.4007,-3.3713,-3.3713,-3.3713,-3.3713,-3.3713,-3.3713,-3.2581,-3.11,-2.9655,-2.9287,-2.9197,0.0,0.0,0.0,0.0,-2.9091,-2.9052,-2.8922,-2.8922,-2.8803,-2.8486,-2.8538,-2.8578,-2.8447,-2.8724,0.0,0.0,0.0,0.0,-2.9378,0.0,-3.0481,-3.0931,-3.1433,-3.1945,-3.24,-3.2475,-3.263,-3.2864,-3.4023,-3.5078,-3.6044,-3.6527,-3.6756,-3.6862,-3.7155,-3.7466,-3.7788,-3.8303,-3.8904,-3.9527,-3.9907,-4.022,-4.0348,-3.5368,-3.5368,-3.5368,-3.5368,-3.5428,-3.5572,-3.5716,-3.592,-3.6098,-3.6452,-3.6734,-3.6968,-3.7062,-3.7261,-3.7366,-3.7366,-3.7677,-3.788,-3.788,-3.8398,-3.878,-3.8951,-3.8693,-3.86,-3.8723,-3.7837,-3.7366,-3.7366,-3.7108,0.0,0.0,0.0,0.0,0.0,-3.665,-3.6875,-3.6922,-3.6968,-3.6968,-3.7015,-3.7062,-3.7108,-3.7108,-3.7108,-3.7108,-3.7108,-3.7108,-3.7108,-3.7108,-3.7108,-3.7433,-3.788,-3.788,-3.7664,-3.7366,-3.7366,-3.7261,-3.6857,-3.5839,-3.5424,-3.5079,-3.401,-3.3598,-3.3428,-3.3428,-3.3343,-3.3212,-3.2925,-3.198,-3.0735,-2.9209,-2.8934,-2.8895,-2.8788,0.0,0.0,0.0,-2.8736,-2.8697,-2.8526,-2.8538,-2.8419,-2.8151,-2.8231,-2.8271,-2.8099,-2.8379,0.0,0.0,0.0,0.0,0.0,0.0,0.0,0.0,-3.1075,-3.1571,-3.2213,-3.2257,-3.2257,-3.2337,-3.3744,-3.511,-3.6275,-3.6546,-3.6628,-3.6628,-3.6862,-3.73,-3.7871,-3.8337,-3.9091,-3.9906,-4.0273,-4.0597,-4.0744,-3.4872,-3.4823,-3.4823,-3.4823,-3.503,-3.5223,-3.5223,-3.5668,-3.6015,-3.6015,-3.6228,-3.6593,-3.7062,-3.7108,-3.7108,-3.7108,-3.7108,-3.7108,-3.7108,-3.7108,-3.7365,-3.7881,-3.7416,-3.7377,-3.7894,-3.7403,-3.7108,-3.7108,0.0,0.0,-3.6709,0.0,-3.6392,-3.6392,-3.6405,-3.6405,-3.6405,-3.6628,-3.6709,-3.6722,-3.7015,-3.7108,-3.7108,-3.7108,-3.7108,-3.7108,-3.7108,-3.7108,-3.7108,-3.7108,-3.7108,-3.7108,-3.7108,-3.7108,-3.7108,-3.7108,-3.7108,-3.6934,-3.6129,-3.5491,-3.4914,-3.4123,-3.3296,-3.2711,-3.2711,-3.255,-3.2136,-3.1065,-3.0831,-3.0323,-2.8783,-2.851,-2.8391,-2.7962,0.0,0.0,0.0,-2.7933,-2.7933,-2.7933,-2.7933,-2.7933,-2.7893,-2.7933,-2.7933,-2.7893,0.0,0.0,0.0,0.0,0.0,-2.9091,-2.9104,0.0,-3.0391,-3.0403,-3.0852,-3.1705,-3.1893,-3.1994,-3.2074,-3.3654,-3.4984,-3.6015,-3.6275,-3.6405,-3.6405,-3.6628,-3.7064,-3.7696,-3.8459,-3.912,-3.9697,-4.0286,-4.0504,-4.0453,-3.4835,-3.4775,-3.4775,-3.4775,-3.4884,-3.4981,-3.5175,-3.532,-3.5524,-3.5716,-3.5812,-3.5895,-3.6038,-3.6546,-3.6815,-3.6815,-3.7015,-3.7108,0.0,-3.7493,-3.7787,-3.7967,-3.7813,-3.7787,-3.798,-3.7215,-3.6815,-3.6815,0.0,0.0,0.0,-3.6452,-3.6405,-3.6405,-3.6405,-3.6405,-3.6405,-3.6452,-3.6499,-3.6499,-3.6593,-3.664,-3.664,-3.664,-3.664,-3.664,-3.664,-3.664,-3.664,-3.664,-3.664,-3.664,-3.664,-3.6734,-3.6815,-3.6815,-3.6722,-3.6433,-3.5646,-3.5015,-3.4432,-3.3603,-3.297,-3.2519,-3.2519,-3.2431,-3.1994,-3.0609,-3.0307,-2.9856,-2.8353,-2.8082,-2.8002,-2.7696,-2.7615,0.0,-2.7441,0.0,-2.7615,-2.7615,-2.78,-2.7841,-2.7655,-2.7788,0.0,0.0,0.0,0.0,0.0,0.0,0.0,0.0,-2.8709,0.0,-3.0211,-3.0182,-3.07,-3.1705,-3.1761,-3.2236,-3.3132,-3.361,-3.4647,-3.6015,-3.6098,-3.6228,-3.6405,-3.6452,-3.7054,-3.7923,-3.8345,-3.9129,-3.9982,-4.0376,-4.0402,-4.0236,-3.4775,-3.4775,-3.4775,-3.4775,-3.4775,-3.4884,-3.503,-3.5126,-3.5271,-3.5428,-3.5524,-3.562,-3.562,-3.6026,0.0,-3.631,-3.6452,-3.6559,-3.6559,-3.6995,-3.7333,-3.7523,-3.7429,-3.7477,-3.7693,-3.6979,0.0,-3.6581,-3.6452,-3.6405,-3.6405,-3.6405,-3.6405,-3.6405,-3.6405,-3.6323,-3.6228,-3.6228,-3.6181,-3.6086,-3.6086,-3.6086,-3.6086,-3.6086,-3.6086,-3.6086,-3.6086,-3.6086,-3.6086,-3.6086,-3.6086,-3.6086,-3.6086,-3.6168,-3.631,-3.6405,-3.6275,-3.6011,-3.5499,-3.482,-3.4119,-3.3638,-3.2852,-3.2213,-3.2025,-3.195,-3.1532,-3.0396,-2.9976,-2.9445,-2.8163,-2.7766,-2.7534,-2.7196,-2.7156,-2.7115,-2.6992,0.0,-2.7156,0.0,0.0,0.0,0.0,-2.7301,-2.7342,0.0,0.0,0.0,0.0,0.0,0.0,-2.8271,-2.8351,0.0,-2.9959,-3.0044,-3.0657,-3.1705,-3.1705,-3.2316,-3.3504,-3.3584,-3.4354,-3.5716,-3.592,-3.6098,-3.6275,-3.6358,-3.701,-3.8015,-3.8163,-3.8956,-3.9981,-4.0147,-4.0096,-3.9929,-3.4775,-3.4775,-3.4787,0.0,-3.4775,0.0,-3.4775,-3.503,-3.5175,-3.5175,-3.5368,-3.5512,-3.5512,-3.5512,-3.5512,-3.5512,0.0,0.0,0.0,-3.5812,-3.6179,-3.6699,-3.6491,-3.6609,-3.7075,-3.6574,-3.6358,-3.6358,-3.6358,-3.6358,-3.6358,-3.6358,-3.6358,-3.6358,-3.6358,-3.6181,-3.5968,-3.5968,-3.5824,-3.562,-3.562,-3.562,-3.562,-3.562,-3.562,-3.562,-3.562,-3.562,-3.562,-3.562,-3.562,-3.562,-3.562,-3.5572,-3.562,-3.5908,-3.5812,-3.562,-3.5572,-3.4811,-3.4001,-3.3919,-3.2918,-3.1817,-3.1395,-3.1139,-3.0831,-3.027,-2.973,-2.9032,-2.8111,-2.75,-2.6981,-2.6592,-2.6561,-2.6509,-2.6509,0.0,-2.652,0.0,0.0,0.0,0.0,-2.6603,-2.6603,0.0,0.0,0.0,0.0,0.0,-2.7841,-2.7893,-2.807,-2.869,-2.9772,-2.9971,-3.0615,-3.1705,-3.1705,-3.2283,-3.3284,-3.3504,-3.4167,-3.5223,-3.5716,-3.5968,-3.6015,-3.6275,-3.701,-3.7953,-3.8002,-3.8705,-3.9697,-3.9697,-3.9697,-3.9697,0.0,0.0,-3.458,-3.4775,-3.4775,-3.4775,-3.4775,-3.4823,-3.4872,-3.4872,-3.4932,-3.4981,-3.4981,-3.4981,-3.4981,-3.4981,-3.5368,-3.562,-3.562,-3.5668,-3.5766,-3.5889,-3.5826,-3.5861,-3.5997,-3.5874,-3.58,-3.58,-3.58,-3.58,-3.58,-3.58,-3.58,-3.58,-3.58,-3.5764,-3.5668,-3.5668,-3.5668,-3.562,-3.562,-3.562,-3.562,-3.562,-3.562,-3.562,-3.562,-3.562,-3.562,-3.562,-3.562,-3.562,-3.562,-3.5476,-3.5368,-3.562,-3.5668,-3.5572,-3.5368,-3.4784,-3.4141,-3.3344,-3.2182,-3.1196,-3.1107,-3.0871,-3.0495,-2.9818,-2.9134,-2.8402,-2.7603,-2.6917,-2.6362,-2.6104,-2.5884,-2.5706,-2.5538,-2.5664,0.0,0.0,-2.6218,-2.6373,-2.6603,-2.6603,-2.6603,0.0,0.0,0.0,0.0,-2.685,-2.7219,-2.7881,-2.7962,-2.8457,-2.9482,-2.976,-3.051,-3.1705,-3.1705,-3.2283,-3.3284,-3.3331,-3.4038,-3.5223,-3.532,-3.5524,-3.5716,-3.6003,-3.6733,-3.7693,-3.7903,-3.8705,-3.9697,-3.9697,-3.9697,-3.9697,-3.4261,-3.4347,-3.4433,-3.458,-3.4726,-3.4775,-3.4775,-3.4775,-3.4775,-3.4775,-3.4775,-3.4775,-3.4775,-3.4775,-3.4775,-3.4775,-3.5078,-3.5223,-3.5223,-3.5368,-3.5428,-3.5428,-3.5524,-3.562,-3.562,-3.562,-3.562,-3.562,-3.562,-3.562,-3.562,-3.562,-3.562,-3.562,-3.562,-3.5524,-3.5428,-3.5428,-3.5368,-3.5223,-3.5223,-3.5223,-3.5223,-3.5223,-3.5223,-3.5223,-3.5223,-3.5175,-3.5078,-3.5078,-3.4981,-3.4896,-3.4896,-3.4799,-3.475,-3.4896,-3.509,-3.5175,-3.4932,-3.4451,-3.3814,-3.2651,-3.1503,-3.0646,-3.0646,-3.0363,-3.0,-2.9568,-2.8891,-2.8243,-2.7711,-2.6854,-2.6116,-2.5915,-2.5604,-2.5327,-2.52,-2.5285,0.0,-2.5549,-2.5664,-2.5779,-2.5968,-2.5957,-2.5957,-2.5957,-2.6041,0.0,-2.6271,-2.6385,-2.6715,-2.7423,-2.7545,-2.8116,-2.9269,-2.9977,-3.0727,-3.1528,-3.1528,-3.2148,-3.3284,-3.3284,-3.3944,-3.503,-3.5126,-3.5271,-3.5416,-3.5716,-3.6306,-3.711,-3.7605,-3.8379,-3.9192,-3.9545,-3.9697,-3.9697,-3.4026,-3.4162,-3.4335,-3.4384,-3.458,-3.4726,-3.4775,-3.4775,-3.4775,-3.4775,-3.4775,-3.4775,-3.4775,-3.4775,-3.4775,-3.4775,-3.4775,-3.4775,-3.4775,-3.503,-3.5126,-3.5126,-3.5368,-3.5476,-3.5476,-3.5476,-3.5476,-3.5476,-3.5476,-3.5476,-3.5476,-3.5476,-3.5476,-3.5476,-3.5476,-3.5368,-3.5126,-3.5126,-3.503,-3.4775,-3.4775,-3.4787,-3.4738,-3.4738,-3.4726,-3.4689,-3.4689,-3.4543,-3.4347,-3.4347,-3.4261,-3.4125,-3.4125,-3.4125,-3.4125,-3.4125,-3.4359,-3.458,-3.4384,-3.3967,-3.3208,-3.1984,-3.0928,-3.0171,-3.0057,-2.9715,-2.9393,-2.9347,-2.873,-2.8172,-2.79,-2.6916,-2.6075,-2.5793,-2.5357,-2.5062,-2.4999,0.0,-2.4988,-2.5031,-2.5031,-2.5073,-2.5105,-2.5105,-2.5105,-2.5158,-2.5316,-2.5538,-2.577,-2.5957,-2.6238,-2.6727,-2.6992,-2.7732,-2.9036,-3.0323,-3.105,-3.1261,-3.1261,-3.1955,-3.3238,-3.3238,-3.3802,-3.4823,-3.503,-3.5126,-3.5175,-3.5428,-3.5843,-3.6432,-3.7246,-3.7903,-3.8525,-3.9329,-3.9645,-3.9645,-3.3729,-3.3779,-3.3915,-3.4335,-3.4433,-3.4531,-3.4787,-3.4775,-3.4775,-3.4775,-3.4775,-3.4775,-3.4775,-3.4775,-3.4775,-3.4775,-3.4775,-3.4775,-3.4775,-3.4823,-3.4872,-3.4872,-3.4872,-3.4932,-3.4932,-3.4932,-3.4932,-3.4932,-3.4932,-3.4932,-3.4932,-3.4932,-3.4932,-3.4932,-3.4932,-3.4872,-3.4872,-3.4872,-3.4823,-3.4775,-3.4775,-3.4677,-3.4482,-3.4482,-3.4347,-3.4223,-3.4223,-3.4174,-3.4162,-3.4162,-3.4125,-3.4125,-3.4125,-3.4125,-3.4125,-3.4125,-3.3965,-3.3843,-3.4064,-3.3431,-3.2497,-3.1659,-3.0803,-3.0059,-2.9402,-2.9071,-2.885,-2.8628,-2.7971,-2.7409,-2.7123,-2.6473,-2.5723,-2.5098,-2.4754,-2.4493,-2.4064,0.0,-2.41,-2.4325,-2.4368,-2.4401,-2.4584,-2.4627,-2.4712,-2.4946,-2.4988,-2.5073,-2.5285,-2.5327,-2.558,-2.6021,-2.6479,-2.741,-2.881,-3.0034,-3.0769,-3.1062,-3.1062,-3.1741,-3.2969,-3.2969,-3.3636,-3.4775,-3.4823,-3.4872,-3.4884,-3.5126,-3.5588,-3.6124,-3.6959,-3.7625,-3.8243,-3.9072,-3.9362,-3.9374,-3.3481,-3.358,-3.3779,-3.4014,-3.415,-3.4298,-3.4531,-3.458,-3.4628,-3.4775,-3.4775,-3.4775,-3.4775,-3.4775,-3.4775,-3.4775,-3.4775,-3.4775,-3.4775,-3.4775,-3.4775,-3.4775,-3.4775,-3.4775,-3.4775,-3.4775,-3.4775,-3.4775,-3.4775,-3.4775,-3.4775,-3.4775,-3.4775,-3.4775,-3.4775,-3.4775,-3.4775,-3.4775,-3.4726,-3.458,-3.458,-3.4445,-3.4261,-3.4261,-3.4162,-3.4125,-3.4125,-3.4026,-3.3878,-3.3729,-3.358,-3.3431,-3.3258,-3.3258,-3.3258,-3.3258,-3.3308,-3.3408,-3.3419,-3.2643,-3.169,-3.1136,-3.026,-2.9452,-2.8877,-2.8524,-2.8279,-2.8008,-2.7615,-2.7223,-2.6931,-2.6336,-2.5691,-2.5193,-2.4636,0.0,0.0,-2.3676,-2.3667,-2.3807,-2.3937,-2.4013,-2.4122,-2.4122,-2.4166,-2.4305,-2.4305,-2.4401,-2.4658,-2.4743,-2.4999,-2.5338,-2.6674,-2.773,-2.8562,-2.9689,-3.0408,-3.0781,-3.0781,-3.1303,-3.2263,-3.2546,-3.3232,-3.4222,-3.446,-3.4677,-3.4823,-3.492,-3.5114,-3.5477,-3.655,-3.7126,-3.7506,-3.865,-3.905,-3.905,-3.3281,-3.3481,-3.363,-3.3679,-3.3878,-3.4064,-3.4298,-3.4347,-3.4445,-3.4677,-3.4726,-3.4726,-3.4775,-3.4775,-3.4775,-3.4775,-3.4775,-3.4775,-3.4775,-3.4775,-3.4775,-3.4775,-3.4775,-3.4775,-3.4775,-3.4775,-3.4775,-3.4775,-3.4775,-3.4775,-3.4775,-3.4775,-3.4775,-3.4775,-3.4775,-3.4775,-3.4775,-3.4726,-3.458,-3.4384,-3.4347,-3.4211,-3.4026,-3.4026,-3.3927,-3.3828,-3.3828,-3.363,-3.3369,-3.317,-3.298,-3.2768,-3.2555,-3.2493,-3.2493,-3.2493,-3.2706,-3.2869,-3.2594,-3.1923,-3.1102,-3.039,-2.9634,-2.8925,-2.8194,-2.7904,-2.7668,-2.7394,-2.7204,-2.7013,-2.6668,-2.6157,-2.566,-2.522,0.0,0.0,0.0,-2.3364,-2.3232,-2.3232,-2.3363,-2.3493,-2.3493,-2.3493,-2.3493,-2.358,-2.3624,-2.3754,-2.4024,-2.4239,-2.4487,-2.4786,-2.6802,-2.7985,-2.8171,-2.9252,-3.0011,-3.0454,-3.0454,-3.0856,-3.1644,-3.216,-3.2865,-3.3624,-3.411,-3.4445,-3.464,-3.4689,-3.4726,-3.4822,-3.6057,-3.6606,-3.6824,-3.8093,-3.8573,-3.8736,-3.3281,-3.3331,-3.3431,-3.3679,-3.3729,-3.3828,-3.4075,-3.4125,-3.4211,-3.4384,-3.4433,-3.4531,-3.4775,-3.4775,-3.4775,-3.4775,-3.4775,-3.4775,-3.4775,-3.4775,-3.4775,-3.4775,-3.4775,-3.4775,-3.4775,-3.4775,-3.4775,-3.4775,-3.4775,-3.4775,-3.4775,-3.4775,-3.4775,-3.4775,-3.4775,-3.4775,-3.4775,-3.4531,-3.4433,-3.4384,-3.4211,-3.3977,-3.3729,-3.3729,-3.3431,-3.2992,-3.2992,-3.2818,-3.2594,-3.2555,-3.2544,-3.2555,-3.2505,-3.2493,-3.2493,-3.2493,-3.2139,-3.1732,-3.168,-3.1454,-3.0847,-2.9465,-2.9063,-2.8663,-2.7294,-2.7003,-2.6907,-2.664,-2.6544,-2.639,-2.5887,-2.5722,-2.5431,-2.4526,0.0,0.0,-2.3104,-2.2742,-2.2485,-2.2485,-2.2485,-2.2476,-2.2476,-2.2476,-2.2618,-2.2847,-2.3057,-2.3276,-2.3547,-2.3754,-2.4057,-2.4497,-2.6443,-2.7425,-2.747,-2.8823,-2.968,-2.9931,-2.9931,-3.0468,-3.1449,-3.1926,-3.2581,-3.3336,-3.3889,-3.4125,-3.4174,-3.4347,-3.4433,-3.4492,-3.5349,-3.5978,-3.6522,-3.7357,-3.7983,-3.8473,-3.3281,-3.3281,-3.3331,-3.3431,-3.3431,-3.353,-3.3828,-3.3828,-3.3927,-3.4162,-3.4347,-3.4433,-3.4531,-3.4677,-3.4775,-3.4775,-3.4775,-3.4775,-3.4775,-3.4628,-3.4531,-3.4531,-3.4531,-3.4531,-3.4531,-3.4726,-3.4775,-3.4775,-3.4775,-3.4775,-3.4775,-3.4775,-3.4775,-3.4775,-3.4775,-3.4726,-3.4531,-3.4433,-3.4237,-3.3965,-3.3878,-3.358,-3.3181,-3.3181,-3.298,-3.2656,-3.2656,-3.2606,-3.2443,-3.228,-3.2179,-3.2179,-3.1975,-3.1834,-3.168,-3.1487,-3.1167,-3.0806,-3.0661,-3.0505,-3.0181,-2.9097,-2.8507,-2.7972,-2.6881,-2.663,-2.6534,-2.6091,-2.5994,-2.5849,-2.5314,-2.5216,-2.5022,-2.4528,0.0,-2.3598,-2.3001,-2.2721,-2.2511,-2.2258,-2.2309,-2.2397,-2.2397,-2.2397,-2.2441,-2.253,-2.2618,-2.2794,-2.3067,-2.3406,-2.3884,-2.4473,-2.5787,-2.6694,-2.7149,-2.8402,-2.9174,-2.9416,-2.9588,-2.9931,-3.0514,-3.0949,-3.1678,-3.2568,-3.3141,-3.366,-3.4125,-3.4162,-3.4211,-3.4308,-3.5065,-3.569,-3.6267,-3.7051,-3.7686,-3.8198,-3.3281,-3.3281,-3.3281,-3.3281,-3.3281,-3.3381,-3.353,-3.358,-3.3679,-3.3927,-3.4162,-3.4347,-3.4384,-3.4628,-3.4775,-3.4775,-3.4775,-3.4775,-3.4775,-3.4494,-3.4298,-3.4298,-3.4298,-3.4298,-3.4298,-3.4494,-3.4592,-3.4592,-3.464,-3.4677,-3.4677,-3.4775,-3.4775,-3.4677,-3.4677,-3.4543,-3.4298,-3.42,-3.4014,-3.3679,-3.353,-3.3231,-3.288,-3.283,-3.2606,-3.2331,-3.2331,-3.2291,-3.219,-3.1975,-3.1863,-3.1823,-3.168,-3.1424,-3.1127,-3.0776,-3.0505,-3.0245,-2.9931,-2.9619,-2.9228,-2.8461,-2.7915,-2.7272,-2.6357,-2.6062,-2.5907,-2.5509,-2.546,-2.5314,-2.4883,-2.4784,-2.4686,-2.444,-2.4047,-2.3553,-2.2959,-2.2732,-2.2408,-2.201,-2.2087,-2.2176,-2.2176,-2.2176,-2.2176,-2.2176,-2.2264,-2.2441,-2.2803,-2.311,-2.3614,-2.4361,-2.5153,-2.5902,-2.6637,-2.7882,-2.8699,-2.8989,-2.9209,-2.9451,-2.9806,-3.0292,-3.0934,-3.1666,-3.2335,-3.3038,-3.3632,-3.3857,-3.3977,-3.4012,-3.4601,-3.5189,-3.571,-3.6542,-3.7172,-3.7705,-3.3281,-3.3281,-3.3281,-3.3281,-3.3281,-3.3281,-3.3281,-3.3281,-3.3381,-3.3679,-3.3927,-3.4162,-3.4384,-3.4628,-3.4775,-3.4775,-3.4775,-3.4775,-3.4775,-3.4359,-3.4125,-3.4075,-3.4125,-3.4125,-3.4125,-3.4125,-3.4125,-3.4125,-3.4298,-3.4384,-3.4384,-3.4677,-3.4628,-3.4384,-3.4384,-3.4298,-3.4075,-3.3828,-3.3679,-3.363,-3.3081,-3.2891,-3.288,-3.2606,-3.2291,-3.2015,-3.2015,-3.1823,-3.1618,-3.1618,-3.1618,-3.1618,-3.1618,-3.1424,-3.1075,-3.0547,-3.0193,-2.9942,-2.9669,-2.8862,-2.7996,-2.7498,-2.7176,-2.6697,-2.5574,-2.5079,-2.4883,-2.4883,-2.4883,-2.4833,-2.4538,-2.448,-2.444,-2.4251,-2.3813,-2.3361,-2.2968,-2.2547,-2.2144,-2.1742,-2.1696,-2.1696,-2.1696,-2.1696,-2.1696,-2.1696,-2.1963,-2.2318,-2.2759,-2.2803,-2.3217,-2.4083,-2.4574,-2.5113,-2.5775,-2.7249,-2.8279,-2.8803,-2.8803,-2.9035,-2.9508,-3.007,-3.0388,-3.0657,-3.1655,-3.2244,-3.2572,-3.336,-3.3679,-3.3729,-3.3977,-3.4369,-3.4875,-3.5698,-3.6323,-3.6899,-3.3281,-3.3281,-3.3281,-3.3281,-3.3281,-3.3281,-3.3281,-3.3281,-3.3331,-3.3431,-3.3828,-3.4125,-3.4162,-3.4543,-3.4775,-3.4775,-3.4775,-3.464,-3.431,-3.4174,-3.3927,-3.358,-3.3729,-3.3828,-3.3828,-3.4026,-3.4125,-3.4125,-3.4162,-3.4211,-3.4211,-3.4261,-3.4261,-3.4211,-3.4211,-3.4064,-3.3828,-3.3729,-3.3481,-3.3131,-3.293,-3.2667,-3.224,-3.2179,-3.1975,-3.1721,-3.1721,-3.1669,-3.1618,-3.1618,-3.1618,-3.1527,-3.1178,-3.0868,-3.0547,-3.0026,-2.9764,-2.9617,-2.9089,-2.8548,-2.7996,-2.7498,-2.6818,-2.6106,-2.5458,-2.5079,-2.4833,-2.4686,-2.4637,-2.4538,-2.435,-2.4301,-2.4251,-2.4202,-2.4101,-2.3831,-2.338,-2.2968,-2.2565,-2.2153,-2.1861,-2.1696,-2.1696,-2.1696,-2.1696,-2.1696,-2.1963,-2.2141,-2.2318,-2.2895,-2.3474,-2.4081,-2.4891,-2.5513,-2.5998,-2.6989,-2.7584,-2.7726,-2.8092,-2.8513,-2.8989,-2.919,-2.9689,-3.0433,-3.1052,-3.1683,-3.229,-3.2864,-3.3231,-3.3431,-3.3729,-3.4132,-3.4622,-3.5443,-3.6077,-3.662,-3.3281,-3.3281,-3.3281,-3.3281,-3.3381,-3.3481,-3.3481,-3.353,-3.363,-3.363,-3.3965,-3.4211,-3.4211,-3.4592,-3.4775,-3.4775,-3.4775,-3.4592,-3.4125,-3.4125,-3.3878,-3.3331,-3.3481,-3.353,-3.353,-3.3679,-3.3779,-3.3779,-3.3878,-3.3927,-3.3927,-3.4026,-3.4026,-3.3927,-3.3927,-3.3779,-3.353,-3.3431,-3.3192,-3.2891,-3.2617,-3.2342,-3.1964,-3.1874,-3.1721,-3.1618,-3.1618,-3.1618,-3.1618,-3.1618,-3.1527,-3.1384,-3.0931,-3.0609,-3.0287,-2.9764,-2.9501,-2.929,-2.8834,-2.8177,-2.7582,-2.7163,-2.6478,-2.5712,-2.5125,-2.4784,-2.4587,-2.439,-2.439,-2.4341,-2.4202,-2.4202,-2.4202,-2.4202,-2.4202,-2.4055,-2.3553,-2.3288,-2.2922,-2.2346,-2.2071,-2.1861,-2.1705,-2.1696,-2.1696,-2.1696,-2.1874,-2.2008,-2.2097,-2.2749,-2.3429,-2.409,-2.4806,-2.5436,-2.5955,-2.6534,-2.6965,-2.7309,-2.7584,-2.7998,-2.8466,-2.8571,-2.9014,-2.9767,-3.0529,-3.1132,-3.1713,-3.2535,-3.2992,-3.3192,-3.3431,-3.3715,-3.4101,-3.5065,-3.5636,-3.6022,-3.3281,-3.3281,-3.3281,-3.3281,-3.353,-3.3679,-3.3679,-3.3927,-3.4125,-3.4125,-3.4298,-3.4384,-3.4384,-3.4628,-3.4775,-3.4775,-3.4787,-3.4592,-3.4125,-3.4075,-3.3828,-3.3331,-3.3281,-3.3281,-3.3281,-3.3281,-3.3281,-3.3281,-3.353,-3.3679,-3.3679,-3.3927,-3.3878,-3.3679,-3.3679,-3.353,-3.3231,-3.298,-3.2891,-3.2779,-3.224,-3.1964,-3.1924,-3.1669,-3.1618,-3.1618,-3.1618,-3.1618,-3.1618,-3.1618,-3.1424,-3.1127,-3.0879,-3.0557,-3.0235,-2.9711,-2.9343,-2.9036,-2.8727,-2.7832,-2.691,-2.6644,-2.6044,-2.5355,-2.4672,-2.4341,-2.4202,-2.4202,-2.4202,-2.4202,-2.4202,-2.4202,-2.4202,-2.4202,-2.4202,-2.4073,-2.3599,-2.3517,-2.3206,-2.2428,-2.23,-2.2126,-2.1733,-2.1696,-2.1696,-2.1696,-2.1696,-2.1803,-2.2108,-2.2525,-2.3165,-2.4102,-2.4544,-2.5054,-2.5684,-2.5965,-2.6438,-2.7214,-2.7262,-2.7489,-2.7998,-2.8196,-2.8488,-2.8811,-3.0013,-3.0674,-3.1043,-3.2311,-3.283,-3.288,-3.3181,-3.3281,-3.3396,-3.4646,-3.5132,-3.5318,-3.3281,-3.3281,-3.3281,-3.3281,-3.353,-3.3679,-3.3679,-3.3927,-3.4125,-3.4125,-3.4298,-3.4384,-3.4384,-3.4628,-3.4775,-3.4775,-3.4628,-3.4396,-3.4125,-3.3878,-3.363,-3.3331,-3.3281,-3.3281,-3.3281,-3.3281,-3.3281,-3.3281,-3.3331,-3.3381,-3.3381,-3.3431,-3.3431,-3.3381,-3.3381,-3.3242,-3.2992,-3.2942,-3.2617,-3.2179,-3.2066,-3.1863,-3.1669,-3.1618,-3.1618,-3.1618,-3.1618,-3.1618,-3.1618,-3.1618,-3.1281,-3.0879,-3.0838,-3.0349,-2.9711,-2.9343,-2.9036,-2.8727,-2.8461,-2.7718,-2.691,-2.6387,-2.5664,-2.4947,-2.4606,-2.4341,-2.4202,-2.4202,-2.4202,-2.4202,-2.4202,-2.4202,-2.4202,-2.4202,-2.4202,-2.4165,-2.4082,-2.3739,-2.3316,-2.2831,-2.2474,-2.2126,-2.1733,-2.1696,-2.1696,-2.1696,-2.1696,-2.1869,-2.2226,-2.2852,-2.3505,-2.4222,-2.4832,-2.5344,-2.5693,-2.5781,-2.6062,-2.6688,-2.689,-2.7225,-2.7678,-2.7726,-2.8008,-2.8542,-2.9531,-3.0236,-3.0763,-3.1778,-3.2342,-3.2606,-3.288,-3.2992,-3.311,-3.3947,-3.4532,-3.5039,-3.3281,-3.3281,-3.3331,-3.3481,-3.3729,-3.3915,-3.4014,-3.4249,-3.4445,-3.4445,-3.4543,-3.458,-3.458,-3.4726,-3.4775,-3.4775,-3.4531,-3.4298,-3.4125,-3.3828,-3.358,-3.3331,-3.3281,-3.3281,-3.3281,-3.3281,-3.3281,-3.3281,-3.3281,-3.3281,-3.3281,-3.3281,-3.3281,-3.3281,-3.3192,-3.3031,-3.2891,-3.2617,-3.2291,-3.1964,-3.1863,-3.1721,-3.1618,-3.1618,-3.1618,-3.1618,-3.1618,-3.1618,-3.1567,-3.1476,-3.1127,-3.0776,-3.0672,-3.013,-2.9554,-2.9185,-2.893,-2.8621,-2.8237,-2.7447,-2.6705,-2.6139,-2.5355,-2.4637,-2.439,-2.4301,-2.4202,-2.4202,-2.4202,-2.4202,-2.4202,-2.4202,-2.4202,-2.4202,-2.4202,-2.4202,-2.4202,-2.3969,-2.3684,-2.3233,-2.2821,-2.2346,-2.1751,-2.1696,-2.1696,-2.1696,-2.187,-2.2062,-2.2272,-2.299,-2.3604,-2.4077,-2.4772,-2.5235,-2.5489,-2.5635,-2.5927,-2.6294,-2.6602,-2.689,-2.7262,-2.7499,-2.7726,-2.8062,-2.9289,-2.9943,-3.0313,-3.1527,-3.2128,-3.2291,-3.2606,-3.2718,-3.2774,-3.3362,-3.4175,-3.5097,-3.3281,-3.3331,-3.3431,-3.3679,-3.3927,-3.4211,-3.4384,-3.4628,-3.4775,-3.4775,-3.4775,-3.4775,-3.4775,-3.4775,-3.4775,-3.4775,-3.4543,-3.4298,-3.4125,-3.3828,-3.353,-3.3331,-3.3281,-3.3281,-3.3281,-3.3281,-3.3281,-3.3281,-3.3281,-3.3281,-3.3281,-3.3281,-3.3281,-3.3281,-3.3042,-3.288,-3.2779,-3.224,-3.1964,-3.1924,-3.1669,-3.1618,-3.1618,-3.1618,-3.1618,-3.1618,-3.1618,-3.1618,-3.1578,-3.127,-3.1023,-3.0724,-3.0453,-2.9973,-2.9448,-2.9132,-2.8824,-2.8461,-2.8014,-2.7237,-2.6387,-2.5942,-2.5153,-2.444,-2.4251,-2.4202,-2.4202,-2.4202,-2.4202,-2.4202,-2.4202,-2.4202,-2.4202,-2.4202,-2.4202,-2.4202,-2.4202,-2.4202,-2.4055,-2.3544,-2.3087,-2.251,-2.1769,-2.1696,-2.1723,-2.1787,-2.2089,-2.2346,-2.2483,-2.3133,-2.3671,-2.3987,-2.4605,-2.5039,-2.5284,-2.5586,-2.583,-2.6052,-2.6294,-2.6602,-2.69,-2.7309,-2.7536,-2.7683,-2.9036,-2.9736,-2.991,-3.1265,-3.1863,-3.1964,-3.2291,-3.2392,-3.251,-3.3104,-3.4001,-3.4993,-3.3281,-3.3481,-3.3679,-3.3679,-3.4064,-3.4384,-3.4384,-3.4628,-3.4775,-3.4775,-3.4775,-3.4775,-3.4775,-3.4775,-3.4775,-3.4775,-3.4408,-3.4125,-3.4125,-3.363,-3.3331,-3.3281,-3.3281,-3.3281,-3.3281,-3.3281,-3.3281,-3.3281,-3.3281,-3.3281,-3.3281,-3.3281,-3.3281,-3.3281,-3.3042,-3.2768,-3.2555,-3.2179,-3.1874,-3.1669,-3.1618,-3.1618,-3.1618,-3.1618,-3.1618,-3.1618,-3.1618,-3.1618,-3.1578,-3.127,-3.1023,-3.0724,-3.0203,-2.9669,-2.9132,-2.8834,-2.8398,-2.8014,-2.7906,-2.707,-2.6182,-2.5891,-2.5153,-2.444,-2.4251,-2.4202,-2.4202,-2.4202,-2.4202,-2.4202,-2.4202,-2.4202,-2.4202,-2.4202,-2.4202,-2.4202,-2.4202,-2.4202,-2.4055,-2.3544,-2.2821,-2.219,-2.1733,-2.1696,-2.1833,-2.2172,-2.2245,-2.2584,-2.3297,-2.3435,-2.38,-2.4396,-2.4707,-2.5039,-2.5284,-2.5586,-2.5742,-2.5781,-2.6004,-2.64,-2.69,-2.6948,-2.7225,-2.7636,-2.8694,-2.9391,-2.9861,-3.0882,-3.1424,-3.1669,-3.1975,-3.2077,-3.2239,-3.3391,-3.3922,-3.4221,-3.3481,-3.363,-3.3779,-3.4052,-3.4249,-3.4433,-3.458,-3.4726,-3.4775,-3.4775,-3.4775,-3.4775,-3.4775,-3.4775,-3.4775,-3.4775,-3.4359,-3.4125,-3.4125,-3.358,-3.3281,-3.3281,-3.3281,-3.3281,-3.3281,-3.3281,-3.3281,-3.3281,-3.3281,-3.3281,-3.3281,-3.3281,-3.3231,-3.3081,-3.2818,-3.2505,-3.2179,-3.1924,-3.1721,-3.1618,-3.1618,-3.1618,-3.1618,-3.1618,-3.1618,-3.1618,-3.1618,-3.1527,-3.1333,-3.1086,-3.0827,-3.0505,-2.9931,-2.9448,-2.9026,-2.8611,-2.8184,-2.7853,-2.7476,-2.671,-2.5933,-2.5631,-2.496,-2.4301,-2.4202,-2.4202,-2.4202,-2.4202,-2.4202,-2.4202,-2.4202,-2.4202,-2.4202,-2.4202,-2.4202,-2.4202,-2.4202,-2.4202,-2.4055,-2.3544,-2.3178,-2.2803,-2.241,-2.2373,-2.2446,-2.262,-2.2831,-2.3114,-2.3471,-2.3758,-2.4018,-2.4332,-2.4686,-2.4981,-2.5088,-2.5489,-2.5693,-2.5693,-2.583,-2.6062,-2.6448,-2.6747,-2.6996,-2.7276,-2.8498,-2.9144,-2.9466,-3.0678,-3.1281,-3.1373,-3.1669,-3.1772,-3.1944,-3.3185,-3.3657,-3.3855]},{"header":{"parameterUnit":"m.s-1","parameterCategory":1,"la1":30.6,"la2":28.766,"lo1":-90.7593,"lo2":-88.6598,"dy":0.0162,"dx":0.0183,"nx":116,"ny":114,"refTime":"2023-05-06T00:00:00:Z","depth":0,"parameterNumber":3,"parameterNumberName":"V-component_of_WINDS"},"data":[0.0,0.0,0.0,0.0,0.0,0.0,0.0,0.0,0.0,0.0,0.0,0.0,0.0,0.0,0.0,0.0,0.0,0.0,0.0,0.0,0.0,0.0,0.0,0.0,0.0,0.0,0.0,0.0,0.0,0.0,0.0,0.0,0.0,0.0,0.0,0.0,0.0,0.0,0.0,0.0,0.0,0.0,0.0,0.0,0.0,0.0,0.0,0.0,0.0,0.0,0.0,0.0,0.0,0.0,0.0,0.0,0.0,0.0,0.0,0.0,0.0,0.0,0.0,0.0,0.0,0.0,0.0,0.0,0.0,0.0,0.0,0.0,0.0,0.0,0.0,0.0,0.0,0.0,0.0,0.0,0.0,0.0,0.0,0.0,0.0,0.0,0.0,0.0,0.0,0.0,0.0,0.0,0.0,0.0,0.0,0.0,0.0,0.0,0.0,0.0,0.0,0.0,0.0,0.0,0.0,0.0,0.0,0.0,0.0,0.0,0.0,0.0,0.0,0.0,0.0,0.0,0.0,0.0,0.0,0.0,0.0,0.0,0.0,0.0,0.0,0.0,0.0,0.0,0.0,0.0,0.0,0.0,0.0,0.0,0.0,0.0,0.0,0.0,0.0,0.0,0.0,0.0,0.0,0.0,0.0,0.0,0.0,0.0,0.0,0.0,0.0,0.0,0.0,0.0,0.0,0.0,0.0,0.0,0.0,0.0,0.0,0.0,0.0,0.0,0.0,0.0,0.0,0.0,0.0,0.0,0.0,0.0,0.0,0.0,0.0,0.0,0.0,0.0,0.0,0.0,0.0,0.0,0.0,0.0,0.0,0.0,0.0,0.0,0.0,0.0,0.0,0.0,0.0,0.0,0.0,0.0,0.0,0.0,0.0,0.0,0.0,0.0,0.0,0.0,0.0,0.0,0.0,0.0,0.0,0.0,0.0,0.0,0.0,0.0,0.0,0.0,0.0,0.0,0.0,0.0,0.0,0.0,0.0,0.0,0.0,0.0,0.0,0.0,0.0,0.0,0.0,0.0,0.0,0.0,0.0,0.0,0.0,0.0,0.0,0.0,0.0,0.0,0.0,0.0,0.0,0.0,0.0,0.0,0.0,0.0,0.0,0.0,0.0,0.0,0.0,0.0,0.0,0.0,0.0,0.0,0.0,0.0,0.0,0.0,0.0,0.0,0.0,0.0,0.0,0.0,0.0,0.0,0.0,0.0,0.0,0.0,0.0,0.0,0.0,0.0,0.0,0.0,0.0,0.0,0.0,0.0,0.0,0.0,0.0,0.0,0.0,0.0,0.0,0.0,0.0,0.0,0.0,0.0,0.0,0.0,0.0,0.0,0.0,0.0,0.0,0.0,0.0,0.0,0.0,0.0,0.0,0.0,0.0,0.0,0.0,0.0,0.0,0.0,0.0,0.0,0.0,0.0,0.0,0.0,0.0,0.0,0.0,0.0,0.0,0.0,0.0,0.0,0.0,0.0,0.0,0.0,0.0,0.0,0.0,0.0,0.0,0.0,0.0,0.0,0.0,0.0,0.0,0.0,0.0,0.0,0.0,0.0,0.0,0.0,0.0,0.0,0.0,0.0,0.0,0.0,0.0,0.0,0.0,0.0,0.0,0.0,0.0,0.0,0.0,0.0,0.0,0.0,0.0,0.0,0.0,0.0,0.0,0.0,0.0,0.0,0.0,0.0,0.0,0.0,0.0,0.0,0.0,0.0,0.0,0.0,0.0,0.0,0.0,0.0,0.0,0.0,0.0,0.0,0.0,0.0,0.0,0.0,0.0,0.0,0.0,0.0,0.0,0.0,0.0,0.0,0.0,0.0,0.0,0.0,0.0,0.0,0.0,0.0,0.0,0.0,0.0,0.0,0.0,0.0,0.0,0.0,0.0,0.0,0.0,0.0,0.0,0.0,0.0,0.0,0.0,0.0,0.0,0.0,0.0,0.0,0.0,0.0,0.0,0.0,0.0,0.0,0.0,0.0,0.0,0.0,0.0,0.0,0.0,0.0,0.0,0.0,0.0,0.0,0.0,0.0,0.0,0.0,0.0,0.0,0.0,0.0,0.0,0.0,0.0,0.0,0.0,0.0,0.0,0.0,0.0,0.0,0.0,0.0,0.0,0.0,0.0,0.0,0.0,0.0,0.0,0.0,0.0,0.0,0.0,0.0,0.0,0.0,0.0,0.0,0.0,0.0,0.0,0.0,0.0,0.0,0.0,0.0,0.0,0.0,0.0,0.0,0.0,0.0,0.0,0.0,0.0,0.0,0.0,0.0,0.0,0.0,0.0,0.0,0.0,0.0,0.0,0.0,0.0,0.0,0.0,0.0,0.0,0.0,0.0,0.0,0.0,0.0,0.0,0.0,0.0,0.0,0.0,0.0,0.0,0.0,0.0,0.0,0.0,0.0,0.0,0.0,0.0,0.0,0.0,0.0,0.0,0.0,0.0,0.0,0.0,0.0,0.0,0.0,0.0,0.0,0.0,0.0,0.0,0.0,0.0,0.0,0.0,0.0,0.0,0.0,0.0,0.0,0.0,0.0,0.0,0.0,0.0,0.0,0.0,0.0,0.0,0.0,0.0,0.0,0.0,0.0,0.0,0.0,0.0,0.0,0.0,0.0,0.0,0.0,0.0,0.0,0.0,0.0,0.0,0.0,0.0,0.0,0.0,0.0,0.0,0.0,0.0,0.0,0.0,0.0,0.0,0.0,0.0,0.0,0.0,0.0,0.0,0.0,0.0,0.0,0.0,0.0,0.0,0.0,0.0,0.0,0.0,0.0,0.0,0.0,0.0,0.0,0.0,0.0,0.0,0.0,0.0,0.0,0.0,0.0,0.0,0.0,0.0,0.0,0.0,0.0,0.0,0.0,0.0,0.0,0.0,0.0,0.0,0.0,0.0,0.0,0.0,0.0,0.0,0.0,0.0,0.0,0.0,0.0,0.0,0.0,0.0,0.0,0.0,0.0,0.0,0.0,0.0,0.0,0.0,0.0,0.0,0.0,0.0,0.0,0.0,0.0,0.0,0.0,0.0,0.0,0.0,0.0,0.0,0.0,0.0,0.0,0.0,0.0,0.0,0.0,0.0,0.0,0.0,0.0,0.0,0.0,0.0,0.0,0.0,0.0,0.0,0.0,0.0,0.0,0.0,0.0,0.0,0.0,0.0,0.0,0.0,0.0,0.0,0.0,0.0,0.0,0.0,0.0,0.0,0.0,0.0,0.0,0.0,0.0,0.0,0.0,0.0,0.0,0.0,0.0,0.0,0.0,0.0,0.0,0.0,0.0,0.0,0.0,0.0,0.0,0.0,0.0,0.0,0.0,0.0,0.0,0.0,0.0,0.0,0.0,0.0,0.0,0.0,0.0,0.0,0.0,0.0,0.0,0.0,0.0,0.0,0.0,0.0,0.0,0.0,0.0,0.0,0.0,0.0,0.0,0.0,0.0,0.0,0.0,0.0,0.0,0.0,0.0,0.0,0.0,0.0,0.0,0.0,0.0,0.0,0.0,0.0,0.0,0.0,0.0,0.0,0.0,0.0,0.0,0.0,0.0,0.0,0.0,0.0,0.0,0.0,0.0,0.0,0.0,0.0,0.0,0.0,0.0,0.0,0.0,0.0,0.0,0.0,0.0,0.0,0.0,0.0,0.0,0.0,0.0,0.0,0.0,0.0,0.0,0.0,0.0,0.0,0.0,0.0,0.0,0.0,0.0,0.0,0.0,0.0,0.0,0.0,0.0,0.0,0.0,0.0,0.0,0.0,0.0,0.0,0.0,0.0,0.0,0.0,0.0,0.0,0.0,0.0,0.0,0.0,0.0,0.0,0.0,0.0,0.0,0.0,0.0,0.0,0.0,0.0,0.0,0.0,0.0,0.0,0.0,0.0,0.0,0.0,0.0,0.0,0.0,0.0,0.0,0.0,0.0,0.0,0.0,0.0,0.0,0.0,0.0,0.0,0.0,0.0,0.0,0.0,0.0,0.0,0.0,0.0,0.0,0.0,0.0,0.0,0.0,0.0,0.0,0.0,0.0,0.0,0.0,0.0,0.0,0.0,0.0,0.0,0.0,0.0,0.0,0.0,0.0,0.0,0.0,0.0,0.0,0.0,0.0,0.0,0.0,0.0,0.0,0.0,0.0,0.0,0.0,0.0,0.0,0.0,0.0,0.0,0.0,0.0,0.0,0.0,0.0,0.0,0.0,0.0,0.0,0.0,0.0,0.0,0.0,0.0,0.0,0.0,0.0,0.0,0.0,0.0,0.0,0.0,0.0,0.0,0.0,0.0,0.0,0.0,0.0,0.0,0.0,0.0,0.0,0.0,0.0,0.0,0.0,0.0,0.0,0.0,0.0,0.0,0.0,0.0,0.0,0.0,0.0,0.0,0.0,0.0,0.0,0.0,0.0,0.0,0.0,0.0,0.0,0.0,0.0,0.0,0.0,0.0,0.0,0.0,0.0,0.0,0.0,0.0,0.0,0.0,0.0,0.0,0.0,0.0,0.0,0.0,0.0,0.0,0.0,0.0,0.0,0.0,0.0,0.0,0.0,0.0,0.0,0.0,0.0,0.0,0.0,0.0,0.0,0.0,0.0,0.0,0.0,0.0,0.0,0.0,0.0,0.0,0.0,0.0,0.0,0.0,0.0,0.0,0.0,0.0,0.0,0.0,0.0,0.0,0.0,0.0,0.0,0.0,0.0,0.0,0.0,0.0,0.0,0.0,0.0,0.0,0.0,0.0,0.0,0.0,0.0,0.0,0.0,0.0,0.0,0.0,0.0,0.0,0.0,0.0,0.0,0.0,0.0,0.0,0.0,0.0,0.0,0.0,0.0,0.0,0.0,0.0,0.0,0.0,0.0,0.0,0.0,0.0,0.0,0.0,0.0,0.0,0.0,0.0,0.0,0.0,0.0,0.0,0.0,0.0,0.0,0.0,0.0,0.0,0.0,0.0,0.0,0.0,0.0,0.0,0.0,0.0,0.0,0.0,0.0,0.0,0.0,0.0,0.0,0.0,0.0,0.0,0.0,0.0,0.0,0.0,0.0,0.0,0.0,0.0,0.0,0.0,0.0,0.0,0.0,0.0,0.0,0.0,0.0,0.0,0.0,0.0,0.0,0.0,0.0,0.0,0.0,0.0,0.0,0.0,0.0,0.0,0.0,0.0,0.0,0.0,0.0,0.0,0.0,0.0,0.0,0.0,0.0,0.0,0.0,0.0,0.0,0.0,0.0,0.0,0.0,0.0,0.0,0.0,0.0,0.0,0.0,0.0,0.0,0.0,0.0,0.0,0.0,0.0,0.0,0.0,0.0,0.0,0.0,0.0,0.0,0.0,0.0,0.0,0.0,0.0,0.0,0.0,0.0,0.0,0.0,0.0,0.0,0.0,0.0,0.0,0.0,0.0,0.0,0.0,0.0,0.0,0.0,0.0,0.0,0.0,0.0,0.0,0.0,0.0,0.0,0.0,0.0,0.0,0.0,0.0,0.0,0.0,0.0,0.0,0.0,0.0,0.0,0.0,0.0,0.0,0.0,0.0,0.0,0.0,0.0,0.0,0.0,0.0,0.0,0.0,0.0,0.0,0.0,0.0,0.0,0.0,0.0,0.0,0.0,0.0,0.0,0.0,0.0,0.0,0.0,0.0,0.0,0.0,0.0,0.0,0.0,0.0,0.0,0.0,0.0,0.0,0.0,0.0,0.0,0.0,0.0,0.0,0.0,0.0,0.0,0.0,0.0,0.0,0.0,0.0,0.0,0.0,0.0,0.0,0.0,0.0,0.0,0.0,0.0,0.0,0.0,0.0,0.0,0.0,0.0,0.0,0.0,0.0,0.0,0.0,0.0,0.0,0.0,0.0,0.0,0.0,0.0,0.0,0.0,0.0,0.0,0.0,0.0,0.0,0.0,0.0,0.0,0.0,0.0,0.0,0.0,0.0,0.0,0.0,0.0,0.0,0.0,0.0,0.0,0.0,0.0,0.0,0.0,0.0,0.0,0.0,0.0,0.0,0.0,0.0,0.0,0.0,0.0,0.0,0.0,0.0,0.0,0.0,0.0,0.0,0.0,0.0,0.0,0.0,0.0,0.0,0.0,0.0,0.0,0.0,0.0,0.0,0.0,2.9744,2.8357,0.0,0.0,0.0,0.0,0.0,0.0,0.0,0.0,0.0,0.0,0.0,0.0,0.0,0.0,0.0,0.0,0.0,0.0,0.0,0.0,0.0,0.0,0.0,0.0,0.0,0.0,0.0,0.0,0.0,0.0,0.0,0.0,0.0,0.0,0.0,0.0,0.0,3.3284,3.4278,3.5121,3.5868,3.4735,3.287,3.044,0.0,0.0,0.0,0.0,0.0,0.0,0.0,0.0,0.0,0.0,0.0,0.0,0.0,0.0,0.0,0.0,0.0,0.0,0.0,0.0,0.0,0.0,0.0,0.0,0.0,0.0,0.0,0.0,0.0,0.0,0.0,0.0,0.0,0.0,0.0,0.0,0.0,0.0,0.0,0.0,0.0,0.0,0.0,0.0,0.0,0.0,0.0,0.0,0.0,0.0,0.0,0.0,0.0,0.0,0.0,0.0,0.0,0.0,0.0,0.0,0.0,0.0,0.0,0.0,0.0,0.0,0.0,0.0,0.0,0.0,3.156,3.0213,0.0,0.0,0.0,0.0,0.0,0.0,0.0,0.0,0.0,0.0,0.0,0.0,0.0,0.0,0.0,0.0,0.0,0.0,0.0,0.0,0.0,0.0,0.0,2.8468,2.9005,2.9835,3.0135,3.0671,0.0,0.0,0.0,0.0,0.0,0.0,0.0,3.4172,3.4833,3.5645,3.7359,3.8617,3.9446,3.9139,3.7153,3.3806,3.2804,0.0,0.0,0.0,0.0,0.0,0.0,0.0,0.0,0.0,0.0,0.0,0.0,0.0,0.0,0.0,0.0,0.0,0.0,0.0,0.0,0.0,0.0,0.0,0.0,0.0,0.0,0.0,0.0,0.0,0.0,0.0,0.0,0.0,0.0,0.0,0.0,0.0,0.0,0.0,0.0,0.0,0.0,0.0,0.0,0.0,0.0,0.0,0.0,0.0,0.0,0.0,0.0,0.0,0.0,0.0,0.0,0.0,0.0,0.0,0.0,0.0,0.0,0.0,3.6528,3.6499,3.6577,3.6263,3.6,3.5686,3.3548,3.2455,3.2164,3.0912,0.0,0.0,0.0,0.0,0.0,0.0,0.0,0.0,0.0,0.0,0.0,0.0,0.0,0.0,0.0,0.0,0.0,0.0,0.0,0.0,0.0,3.0026,3.0549,3.1424,3.1894,3.2211,3.2347,0.0,0.0,0.0,0.0,0.0,3.6444,3.6549,3.7402,3.9067,4.083,4.1722,4.1696,4.2029,4.1715,4.0728,3.7291,3.4966,3.358,0.0,0.0,0.0,0.0,0.0,0.0,0.0,0.0,0.0,0.0,0.0,0.0,0.0,0.0,0.0,0.0,0.0,0.0,0.0,0.0,0.0,0.0,0.0,0.0,0.0,0.0,0.0,0.0,0.0,0.0,0.0,0.0,0.0,0.0,0.0,0.0,0.0,0.0,0.0,0.0,0.0,3.12,3.1938,0.0,0.0,0.0,0.0,0.0,0.0,0.0,0.0,0.0,0.0,0.0,0.0,0.0,3.724,3.7279,3.7658,3.8121,3.8631,3.8882,3.9296,3.9761,3.8965,3.8635,3.8464,3.6981,0.0,3.431,3.3152,0.0,0.0,0.0,0.0,0.0,0.0,0.0,0.0,0.0,0.0,0.0,0.0,0.0,0.0,0.0,0.0,0.0,0.0,0.0,0.0,0.0,3.1375,3.2199,3.3223,3.3522,3.3891,3.4548,3.4783,0.0,0.0,0.0,3.6925,3.7653,3.8929,4.0735,4.3143,4.3787,4.4509,4.5203,4.555,4.5354,4.4589,4.2911,4.0358,3.7277,3.662,0.0,0.0,0.0,0.0,0.0,0.0,0.0,0.0,0.0,0.0,0.0,0.0,0.0,0.0,0.0,0.0,0.0,0.0,0.0,0.0,0.0,0.0,0.0,0.0,0.0,0.0,0.0,0.0,0.0,0.0,0.0,0.0,0.0,0.0,0.0,0.0,0.0,0.0,0.0,3.1695,3.2437,3.2896,3.3144,3.3392,0.0,0.0,0.0,0.0,0.0,0.0,0.0,0.0,0.0,3.7731,3.8669,3.908,3.8951,3.9809,4.0381,4.064,4.0475,4.0547,4.079,4.0101,3.9854,3.9801,3.8813,3.8037,3.7332,3.5541,3.4654,3.4225,0.0,0.0,0.0,0.0,3.1534,3.1331,0.0,0.0,0.0,0.0,0.0,0.0,0.0,0.0,0.0,0.0,0.0,0.0,3.1714,3.2733,3.3806,3.4905,3.5075,3.5582,3.6723,3.6909,3.7187,3.7666,3.8382,3.9008,3.948,4.1869,4.4141,4.6218,4.6809,4.7628,4.8602,4.9111,4.8906,4.8119,4.8091,4.5432,4.0907,4.0009,3.864,3.7024,0.0,0.0,0.0,0.0,0.0,0.0,0.0,0.0,0.0,0.0,0.0,0.0,0.0,0.0,0.0,0.0,0.0,0.0,0.0,0.0,0.0,0.0,0.0,0.0,0.0,0.0,0.0,0.0,0.0,0.0,0.0,0.0,0.0,0.0,0.0,0.0,0.0,3.3103,3.3792,3.4257,3.456,3.4888,0.0,0.0,0.0,0.0,0.0,0.0,3.8062,3.8998,3.9476,3.9339,4.0476,4.0991,4.0729,4.1616,4.2112,4.2219,4.1731,4.1567,4.1671,4.1147,4.0844,4.077,4.0227,3.9938,3.9623,3.7457,3.6314,3.5854,3.5318,3.4831,3.4342,3.3589,3.3221,3.3037,0.0,0.0,0.0,0.0,0.0,0.0,0.0,0.0,0.0,0.0,0.0,3.1946,3.2998,3.4179,3.5277,3.6229,3.6615,3.7247,3.8304,3.8502,3.9104,4.0243,4.0367,4.1197,4.2902,4.575,4.7273,4.7421,5.0137,5.1439,5.1336,5.2491,5.2778,5.2285,5.1921,4.88,4.3853,4.3138,4.2022,4.0547,3.9282,0.0,0.0,0.0,0.0,0.0,0.0,0.0,0.0,0.0,0.0,0.0,0.0,0.0,0.0,0.0,0.0,0.0,0.0,0.0,0.0,0.0,0.0,0.0,0.0,0.0,0.0,0.0,0.0,0.0,0.0,0.0,0.0,0.0,0.0,0.0,0.0,0.0,0.0,3.6702,3.7177,0.0,0.0,0.0,0.0,3.9003,3.9247,3.9356,3.9384,4.0583,4.1254,4.1254,4.2467,4.3035,4.2755,4.2632,4.273,4.3027,4.2796,4.2865,4.3163,4.2588,4.214,4.1876,4.1559,4.1064,4.0404,3.8416,3.763,3.7536,3.699,3.6751,3.6657,3.6045,3.5472,3.4872,0.0,0.0,0.0,0.0,0.0,0.0,0.0,0.0,3.0088,3.106,3.2269,3.3395,3.4455,3.5539,3.6645,3.7653,3.8081,3.8653,3.9612,3.9987,4.0365,4.0802,4.1638,4.319,4.547,4.7429,4.8919,4.989,5.178,5.2929,5.3342,5.444,5.4573,5.3809,5.3772,5.2365,4.9868,4.764,4.5601,4.3772,4.2725,4.136,0.0,0.0,0.0,0.0,0.0,0.0,0.0,0.0,0.0,0.0,0.0,0.0,0.0,0.0,0.0,0.0,0.0,0.0,0.0,0.0,0.0,0.0,0.0,0.0,0.0,0.0,0.0,0.0,0.0,0.0,0.0,0.0,0.0,0.0,0.0,0.0,0.0,3.81,3.8469,0.0,3.9145,3.9321,3.9401,3.9401,4.0361,4.0943,4.0943,4.2292,4.2983,4.2826,4.3674,4.4,4.3718,4.3919,4.4061,4.418,4.3761,4.3624,4.3737,4.3359,4.3107,4.2985,4.2549,4.221,4.192,4.0398,3.9308,3.8585,3.8394,3.808,3.7712,3.7494,3.7275,3.7002,0.0,0.0,0.0,0.0,0.0,0.0,0.0,0.0,3.068,3.1898,3.3111,3.4273,3.5308,3.641,3.752,3.8639,3.8987,3.9715,4.0951,4.1324,4.17,4.2178,4.3687,4.5303,4.7014,4.9048,5.0546,5.1537,5.3462,5.4652,5.5128,5.6231,5.6398,5.5819,5.5989,5.5632,5.4763,5.2389,4.9821,4.7252,4.6117,4.4668,4.3046,0.0,0.0,0.0,0.0,0.0,0.0,0.0,0.0,0.0,0.0,0.0,0.0,0.0,0.0,0.0,0.0,0.0,0.0,0.0,0.0,0.0,0.0,0.0,0.0,0.0,0.0,0.0,0.0,0.0,0.0,0.0,0.0,0.0,0.0,3.7433,3.8295,3.9332,3.9688,3.9963,4.0299,4.0677,4.0914,4.0914,4.2036,4.2673,4.2589,4.3746,4.4327,4.4037,4.4672,4.4929,4.4645,4.4892,4.4968,4.4922,4.4457,4.4223,4.4129,4.3865,4.3709,4.3586,4.3308,4.3078,4.2814,4.1942,4.097,4.0037,3.9571,3.9153,3.878,3.8573,3.8504,3.8394,0.0,0.0,0.0,0.0,0.0,0.0,0.0,3.0372,3.1071,3.2348,3.3381,3.4468,3.5608,3.674,3.7909,3.9117,3.9434,4.0413,4.239,4.2531,4.3151,4.4474,4.6458,4.7533,4.755,5.0607,5.2218,5.2218,5.5219,5.6702,5.6753,5.7861,5.8388,5.8439,5.8626,5.8513,5.808,5.7155,5.4636,5.1135,4.9505,4.8137,4.6961,0.0,0.0,0.0,0.0,0.0,0.0,0.0,0.0,0.0,0.0,0.0,0.0,0.0,0.0,0.0,0.0,0.0,0.0,0.0,0.0,0.0,0.0,0.0,0.0,0.0,0.0,0.0,0.0,0.0,0.0,0.0,0.0,0.0,3.7475,3.8171,3.9161,4.0464,4.092,4.141,4.2049,4.3075,4.3732,4.3732,4.4366,4.4608,4.4337,4.4981,4.523,4.4952,4.5591,4.579,4.5504,4.5504,4.5367,4.5124,4.4922,4.469,4.4411,4.4162,4.3865,4.3648,4.3926,4.3686,4.3148,4.2989,4.2589,4.1892,4.055,4.0039,3.997,3.9389,3.9154,3.9003,0.0,0.0,0.0,0.0,0.0,0.0,0.0,2.9964,3.1232,3.3005,3.3878,3.4935,3.6488,3.7308,3.8325,3.9736,4.031,4.134,4.3036,4.349,4.427,4.5591,4.6927,4.7969,4.865,5.1223,5.2565,5.2565,5.5046,5.6556,5.7146,5.7852,5.8495,5.9047,5.926,5.9276,5.9183,5.9039,5.8269,5.6843,5.3254,5.1064,4.9759,0.0,0.0,0.0,0.0,0.0,0.0,0.0,0.0,0.0,0.0,0.0,0.0,0.0,0.0,0.0,0.0,0.0,0.0,0.0,0.0,0.0,0.0,0.0,0.0,0.0,0.0,0.0,0.0,0.0,0.0,0.0,3.8324,3.902,3.9108,3.9884,4.0952,4.2337,4.2787,4.3231,4.3891,4.4238,4.444,4.444,4.5016,4.5327,4.5241,4.5873,4.6197,4.6138,4.6122,4.609,4.5986,4.5685,4.5458,4.5413,4.5138,4.5,4.4894,4.4847,4.4755,4.4694,4.4755,4.4702,4.4461,4.3576,4.3109,4.2808,4.1511,4.1001,4.0972,4.0817,4.0505,4.008,0.0,0.0,0.0,0.0,0.0,0.0,0.0,2.9923,3.1262,3.2871,3.3832,3.4904,3.6302,3.72,3.8248,3.9606,4.0453,4.1517,4.2917,4.3867,4.4902,4.6037,4.7169,4.8211,4.9091,5.1233,5.2468,5.2782,5.483,5.627,5.7038,5.7947,5.8598,5.9085,5.9754,6.02,6.042,6.0415,6.0455,6.0232,5.7116,5.4707,5.2853,5.1262,4.9934,4.8658,4.6946,4.5556,4.4325,4.3116,0.0,0.0,0.0,0.0,0.0,0.0,0.0,0.0,0.0,0.0,0.0,0.0,0.0,0.0,0.0,0.0,0.0,0.0,0.0,0.0,0.0,0.0,0.0,0.0,3.9586,4.0583,4.1123,4.1533,4.2187,4.3307,4.3938,4.4403,4.4788,4.5169,4.5374,4.5374,4.5953,4.6266,4.6164,4.6505,4.6683,4.6594,4.6447,4.6358,4.6358,4.6001,4.5806,4.5776,4.5444,4.5261,4.5261,4.517,4.5124,4.5124,4.5124,4.5124,4.5024,4.387,4.3443,0.0,0.0,0.0,0.0,0.0,4.1167,4.0866,0.0,0.0,0.0,0.0,0.0,0.0,0.0,2.9955,3.113,3.2258,3.344,3.4543,3.5563,3.6665,3.7805,3.9026,4.004,4.1151,4.2419,4.3872,4.5177,4.6146,4.7231,4.8228,4.9156,5.0843,5.2049,5.2712,5.4449,5.5694,5.6478,5.7814,5.8555,5.8782,6.0018,6.0962,6.1519,6.1413,6.1559,6.1742,6.0397,5.8352,5.5892,5.404,5.2556,5.1223,4.99,4.8655,4.7466,4.6161,0.0,0.0,0.0,0.0,0.0,0.0,0.0,0.0,0.0,0.0,0.0,0.0,0.0,0.0,0.0,0.0,0.0,0.0,0.0,0.0,0.0,0.0,0.0,0.0,4.0731,4.2228,4.3135,4.3223,4.3397,4.3974,4.4733,4.5245,4.5278,4.5998,4.6441,4.6384,4.698,4.7207,4.6975,4.6975,0.0,0.0,0.0,4.6639,4.6639,4.6358,4.621,4.621,4.5776,4.5549,4.5549,4.5307,4.517,4.517,4.517,4.517,4.5115,4.4092,4.3632,4.3387,4.2008,4.148,4.1522,4.1522,4.1522,4.1478,0.0,0.0,0.0,0.0,0.0,0.0,0.0,2.913,3.065,3.1777,3.3081,3.4273,3.5277,3.6365,3.7429,3.8548,3.9159,4.0362,4.2357,4.3605,4.4945,4.6586,4.7102,4.8032,4.9555,5.0772,5.1454,5.161,5.3351,5.4668,5.5557,5.6453,5.7586,5.8973,5.9674,6.0396,6.1164,6.1605,6.1622,6.1354,6.049,5.9236,5.7736,5.6097,5.4893,5.3806,5.2477,5.0793,4.9146,4.8506,4.6997,4.5243,4.4434,4.3354,0.0,0.0,0.0,0.0,0.0,0.0,0.0,0.0,0.0,0.0,0.0,0.0,0.0,0.0,0.0,0.0,0.0,0.0,0.0,4.1279,4.2488,4.3563,4.4303,4.5434,4.6128,4.604,4.6384,4.6743,4.7074,4.7239,4.7272,4.7115,4.7234,4.7266,4.7207,4.7207,4.7207,4.7179,4.6931,4.6844,4.6844,4.6624,4.6403,4.621,0.0,0.0,4.5835,4.579,4.5745,4.5745,4.5745,4.5745,4.5644,4.4574,4.3637,4.2796,4.2206,4.2078,4.2228,4.2228,4.2295,4.243,0.0,0.0,0.0,0.0,0.0,0.0,0.0,2.8516,2.9953,3.0684,3.1969,3.3215,3.4273,3.5309,3.6414,3.7588,3.8874,4.031,4.1933,4.3092,4.4314,4.5684,4.6473,4.742,4.8617,4.9697,5.0488,5.0944,5.1881,5.2822,5.377,5.5026,5.6046,5.6959,5.8044,5.9195,6.0311,6.051,6.0947,6.1413,6.0839,5.9997,5.897,5.7427,5.6354,5.5532,5.4287,5.2779,5.1224,5.0436,4.8798,4.7074,4.6536,4.5287,4.3897,0.0,0.0,0.0,0.0,0.0,0.0,0.0,0.0,0.0,0.0,0.0,0.0,0.0,0.0,3.961,3.9913,0.0,4.1584,4.2544,4.3538,4.4519,4.5499,4.6496,4.7045,4.6823,4.7209,4.76,4.7764,4.7666,4.7553,4.7467,4.7337,4.7309,4.7309,4.7309,4.7309,4.7309,4.7164,4.7121,4.7121,4.6858,4.6668,4.6565,4.6299,4.6135,4.6046,4.5925,4.588,4.5925,4.6015,4.5871,4.5477,4.441,4.3505,4.2688,4.2474,4.2474,4.2541,4.2541,4.2622,4.2688,0.0,0.0,0.0,0.0,0.0,0.0,0.0,2.7884,2.917,2.956,3.0769,3.1995,3.2986,3.4117,3.5307,3.6584,3.8416,3.9955,4.1013,4.2154,4.3258,4.4344,4.5488,4.6483,4.728,4.8312,4.9252,5.0065,5.037,5.096,5.1825,5.3373,5.4326,5.4766,5.6105,5.7607,5.9083,5.8918,5.9648,6.0913,6.058,6.0128,5.9488,5.8264,5.7439,5.6789,5.5732,5.4401,5.3002,5.2004,5.0335,4.8615,4.8292,4.6956,4.536,4.4594,4.3578,0.0,0.0,0.0,0.0,0.0,0.0,0.0,0.0,4.1528,4.1453,4.1316,4.1617,4.185,4.1635,4.2378,4.3184,4.3629,4.4489,4.5449,4.6547,4.7152,4.745,4.7326,4.7798,4.8091,4.8049,4.7837,4.7681,4.7581,4.7424,4.7309,4.7309,4.7309,4.7309,4.7309,4.7309,4.7309,4.7309,4.7062,4.6975,4.6873,4.6476,4.6254,4.621,4.6015,4.5853,4.5781,4.5858,4.5522,4.4892,4.4076,4.3389,4.2809,4.2809,4.285,4.289,4.2809,4.2769,4.2809,0.0,0.0,0.0,0.0,0.0,0.0,0.0,0.0,2.8312,2.8853,3.008,3.1074,3.1505,3.3084,3.4616,3.5883,3.7091,3.8198,3.9219,4.0277,4.1598,4.3202,4.4138,4.5146,4.6258,4.7095,4.7754,4.8196,4.9057,4.9781,5.0343,5.1189,5.2599,5.435,5.4554,5.5628,5.7305,5.7272,5.7792,5.8574,5.854,5.8582,5.8645,5.8472,5.8152,5.7662,5.6811,5.5347,5.3727,5.3253,5.1683,4.9859,4.9039,4.8097,4.709,4.6028,4.4746,4.3689,4.3427,4.2796,4.219,4.219,4.2058,4.191,0.0,4.191,4.191,4.191,4.2849,4.3644,4.3464,4.4449,4.5266,4.5106,4.5827,4.6516,4.6891,4.7688,4.8263,4.8414,4.849,4.8453,4.8286,4.8091,4.7837,4.7639,4.7424,4.7309,4.7309,4.7309,4.7309,4.7309,4.7309,4.7309,4.7309,4.7266,4.7164,4.6916,4.6668,4.6447,4.621,4.6015,4.565,4.5245,4.4919,4.4514,4.4131,4.4024,4.37,4.321,4.321,4.3384,4.3557,4.3115,4.3076,4.321,0.0,0.0,0.0,0.0,0.0,0.0,0.0,0.0,0.0,2.7815,2.8638,2.9476,3.0335,3.2194,3.3616,3.4286,3.558,3.6628,3.7162,3.8516,3.968,4.0442,4.1925,4.2937,4.3408,4.4469,4.5162,4.5482,4.6448,4.7192,4.7637,4.8995,5.0225,5.1291,5.1943,5.319,5.4785,5.5018,5.5837,5.6918,5.7053,5.7141,5.7226,5.7071,5.6861,5.6611,5.6466,5.5144,0.0,5.2987,5.1938,5.0685,5.0067,4.8916,4.77,4.7195,4.5919,4.4635,4.4545,4.427,4.4072,4.448,4.4514,4.4509,4.478,4.4834,4.4795,4.454,4.4943,4.5261,4.4916,4.5328,4.5744,4.587,4.6307,4.6776,4.7283,4.7797,4.8175,4.8244,4.826,4.8286,4.8453,4.8175,4.7964,4.7837,4.751,4.7309,4.7309,4.7309,4.7309,4.7309,4.7309,4.7309,4.7309,4.7309,4.7251,4.7121,4.6887,4.6712,4.6594,4.5977,4.5492,4.5045,4.448,4.4202,4.4124,4.3752,4.3559,4.3518,4.3518,4.3675,4.3832,4.3503,4.3542,4.3699,0.0,0.0,0.0,0.0,0.0,0.0,0.0,0.0,0.0,0.0,2.7304,2.8146,2.9459,3.0949,3.2074,3.2624,3.3776,3.4678,3.5157,3.6485,3.7414,3.786,3.9514,4.0531,4.0734,4.1873,4.2622,4.2876,4.3776,4.443,4.4845,4.6267,4.7409,4.8294,4.9193,5.0559,5.2234,5.2657,5.3568,5.4821,5.5281,5.5536,5.5706,5.5807,5.5547,5.52,5.5722,5.4769,5.3214,5.2772,5.1869,5.0913,5.0514,4.9196,4.7824,4.7712,4.6575,4.5415,4.5587,4.5597,4.5716,4.6403,4.6537,4.6585,4.6928,4.6959,4.6825,4.6524,4.6557,4.6534,4.6142,4.621,4.6399,4.6559,4.6704,4.6981,4.7521,4.7752,4.7922,4.8007,4.8007,4.8133,4.8412,4.8091,4.788,4.788,4.751,4.7309,4.7309,4.7309,4.7309,4.7309,4.7309,4.7309,4.7309,4.7309,4.7309,4.7309,4.7019,4.6827,4.6634,4.5646,4.501,4.4674,4.4061,4.3886,4.4003,4.3484,4.3463,4.369,4.369,4.3871,4.4065,4.391,4.391,4.3988,0.0,0.0,0.0,0.0,0.0,0.0,0.0,0.0,0.0,0.0,0.0,0.0,0.0,2.9201,2.9876,3.1237,3.1507,3.2107,3.3312,3.3968,3.4856,3.6019,3.7139,3.8073,3.8856,3.9727,4.0397,4.0774,4.128,4.1795,4.2314,4.2771,4.4126,4.6202,4.6617,4.7895,4.9758,5.0136,5.0858,5.1831,5.2875,5.365,5.4267,5.5114,5.4716,5.3859,5.479,5.4428,5.345,5.3008,5.1798,5.0371,4.9929,4.8868,4.7634,4.7255,4.6507,4.5913,4.656,4.6622,4.6646,4.7368,4.7402,4.7286,4.7278,4.7091,4.6904,4.6865,4.7231,4.7426,4.7019,4.7494,4.7792,4.7351,4.7279,4.7366,4.7581,4.7639,4.7709,4.7964,4.8007,4.8007,4.8007,4.7752,4.7624,4.7624,4.7424,4.7309,4.7309,4.7309,4.7309,4.7309,4.7309,4.7309,4.7309,4.7309,4.7309,4.7309,4.7019,4.6604,4.5996,4.4674,4.4065,4.4005,4.3538,4.3319,4.3319,4.3305,4.3463,4.369,4.369,4.3949,4.4281,4.4281,4.4166,4.3988,0.0,0.0,0.0,0.0,0.0,0.0,0.0,0.0,0.0,0.0,0.0,0.0,0.0,0.0,0.0,0.0,2.9058,2.9663,3.0529,3.1132,3.1861,3.2771,3.3823,3.4638,3.5261,3.5995,3.6601,3.7042,3.8085,3.8849,3.9286,4.0315,4.1483,4.2744,4.3267,4.4376,4.5901,4.7001,4.8104,4.9169,5.0206,5.0878,5.1333,5.1652,5.1516,5.1229,0.0,5.1812,5.1891,5.1004,5.0334,4.9818,4.9422,4.8558,4.7541,4.6681,4.6443,4.6518,4.674,4.7129,4.7612,4.8306,4.8402,4.8435,4.8749,4.8629,4.8469,4.8339,4.7935,4.762,4.7654,4.7479,4.731,4.7321,4.7309,4.7309,4.7381,4.7381,4.7424,4.751,4.7553,4.7553,4.7553,4.7596,4.7581,4.7581,4.7424,4.7309,4.7309,4.7309,4.7309,4.7309,4.7309,4.7309,4.7309,4.7309,4.7309,4.7294,4.6774,4.6164,4.5493,4.4598,4.3956,4.3538,4.3354,4.329,4.329,4.329,4.3542,4.391,4.391,4.4127,4.4496,4.4496,4.4473,4.4396,0.0,0.0,0.0,0.0,0.0,0.0,0.0,0.0,0.0,0.0,0.0,0.0,0.0,0.0,0.0,0.0,0.0,2.7397,2.8196,2.8656,2.9279,3.0114,3.0851,3.1493,3.2051,3.2621,3.3073,3.3383,3.4457,3.5319,3.5912,3.7032,3.8192,3.9406,4.0129,4.1235,4.2626,4.3847,4.4948,4.5917,4.7032,4.7729,4.8142,4.8803,4.9085,0.0,4.9276,4.9727,5.014,4.9665,4.9314,4.9083,4.8729,4.8171,4.7469,4.6769,4.6881,4.7245,4.7482,4.7893,4.8415,4.9094,4.9268,4.9339,4.9623,4.9289,4.8892,4.8802,4.7945,4.7252,4.73,4.6917,4.6705,4.6888,4.695,4.704,4.7279,4.7309,4.7309,4.7309,4.7309,4.7309,4.7309,4.7424,4.751,4.751,4.7381,4.7309,4.7309,4.7309,4.7309,4.7309,4.7309,4.7309,4.7309,4.7309,4.7309,4.7294,4.6396,4.5723,4.5274,4.4377,4.3693,4.329,4.329,4.329,4.329,4.329,4.3581,4.3988,4.3988,4.4243,4.461,4.461,4.4663,4.4685,0.0,0.0,0.0,0.0,0.0,0.0,0.0,0.0,0.0,0.0,0.0,0.0,0.0,0.0,0.0,0.0,0.0,0.0,2.6227,2.6493,2.7064,2.8062,2.8315,2.8727,2.9317,2.9738,2.9905,2.9941,3.0606,3.1414,3.2288,3.2989,3.4324,3.6266,3.7117,3.8342,3.9838,4.0677,4.1467,4.2209,4.3506,4.4306,4.4871,4.6582,4.7377,4.7623,4.8004,4.8125,4.8223,4.8942,4.8746,4.8209,4.8064,4.7709,4.7405,4.7453,4.7686,4.8083,4.8715,4.892,4.9094,4.9758,4.986,4.9829,4.9829,4.8992,4.8246,4.8246,4.7314,4.6438,4.6057,4.5986,4.6036,4.6244,4.6279,4.6503,4.7219,4.7309,4.7309,4.7309,4.7309,4.7309,4.7309,4.7309,4.7309,4.7309,4.7309,4.7309,4.7309,4.7309,4.7309,4.7309,4.7309,4.7309,4.7309,4.7309,4.7294,4.7234,4.5918,4.5274,4.52,4.3888,4.329,4.329,4.329,4.329,4.329,4.329,4.3581,4.3988,4.3988,4.4243,4.461,4.461,4.4723,4.4874,0.0,0.0,0.0,0.0,0.0,0.0,0.0,0.0,0.0,0.0,0.0,0.0,0.0,0.0,0.0,0.0,0.0,0.0,2.3499,2.3852,2.4422,2.522,2.5755,2.6381,2.7112,2.7379,2.7687,2.8102,2.848,2.8912,2.9456,3.0164,3.1145,3.2288,3.3142,3.4339,3.5807,3.7116,3.8452,3.9795,4.1121,4.2195,4.2989,4.3614,4.4149,4.4601,4.5403,4.5751,4.6038,4.7304,4.7521,4.7334,4.7831,4.7709,4.7517,4.8045,4.8423,4.8667,4.8841,4.9268,4.971,4.9844,4.9536,4.9118,4.8962,4.8177,4.7458,4.7301,4.6508,4.5885,4.5966,4.5606,4.5491,4.6184,4.6279,4.6503,4.7219,4.7309,4.7309,4.7309,4.7309,4.7309,4.7309,4.7309,4.7309,4.7309,4.7309,4.7309,4.7309,4.7309,4.7309,4.7309,4.7309,4.7309,4.7309,4.7309,4.7055,4.6518,4.5708,4.5035,4.4541,4.3663,4.329,4.329,4.329,4.329,4.329,4.329,4.3581,4.3988,4.3988,4.4243,4.461,4.461,4.4723,4.4874,0.0,0.0,0.0,0.0,0.0,0.0,0.0,0.0,0.0,0.0,0.0,0.0,0.0,0.0,0.0,0.0,0.0,0.0,0.0,2.2139,2.263,2.3378,2.3768,2.4151,2.4569,2.4797,2.5095,2.5399,2.5607,2.6042,2.6704,2.7225,2.8123,2.9322,3.0138,3.126,3.2662,3.3887,3.5213,0.0,0.0,3.8846,4.0044,4.0725,4.1484,4.2375,4.3533,4.4429,4.518,4.6338,4.6789,4.7006,4.7661,4.7846,4.7976,4.8605,4.9002,4.9229,4.9229,4.9418,4.9574,4.9276,4.8914,4.8514,4.8122,4.7317,4.661,4.6493,4.5696,4.5032,4.5114,4.4752,4.4659,4.5316,4.5678,4.6112,4.6785,4.7115,4.7309,4.7309,4.7309,4.7309,4.7309,4.7309,4.7309,4.7309,4.7309,4.7309,4.7309,4.7309,4.7309,4.7309,4.7309,4.7309,4.7309,4.7309,4.698,4.6264,4.5618,4.4904,4.4139,4.3563,4.325,4.314,0.0,4.291,4.291,4.291,4.3145,4.3578,4.3881,4.4243,4.461,4.461,4.4723,4.4911,0.0,0.0,0.0,0.0,0.0,0.0,0.0,0.0,0.0,0.0,0.0,0.0,0.0,0.0,0.0,0.0,0.0,0.0,0.0,0.0,2.1324,2.2061,2.2145,2.2173,2.2217,2.2448,2.258,2.258,2.2755,2.3227,2.4068,2.4388,2.5342,2.6878,2.7586,2.8649,3.0048,3.0954,3.212,3.3376,3.4028,3.5213,3.6747,0.0,3.9142,4.0414,4.2037,4.3544,4.4902,4.5607,4.6288,4.6934,4.7596,4.8038,4.8493,4.9101,4.9442,4.9597,4.9557,4.9374,4.901,4.8448,4.8152,4.7871,4.7263,4.6361,4.5633,4.558,4.4749,4.3999,4.3836,4.3672,4.3717,4.4237,4.4796,4.5439,4.6175,4.6815,4.7204,4.7294,4.7309,4.7309,4.7309,4.7309,4.7309,4.7309,4.7309,4.7309,4.7309,4.7309,4.7309,4.7309,4.7309,4.7309,4.7309,4.7309,4.6935,4.6172,4.5547,4.4792,4.3857,4.3439,4.313,4.2991,4.2563,4.2357,4.2396,4.2396,4.2627,4.3024,4.373,4.4243,4.4572,4.4572,4.4723,4.4911,0.0,0.0,0.0,0.0,0.0,0.0,0.0,0.0,0.0,0.0,1.8465,0.0,0.0,0.0,0.0,0.0,0.0,0.0,0.0,0.0,0.0,2.0377,2.073,2.1033,2.1257,2.1302,2.1302,2.1302,2.1347,2.1553,2.1876,2.2311,2.2969,2.3881,2.476,2.5958,2.7334,2.843,2.9816,3.1407,3.2383,3.3468,3.4586,3.5311,0.0,0.0,4.0235,4.2282,4.3909,4.4377,4.5342,4.6628,4.7958,4.8254,4.8364,4.9457,4.9702,4.9557,4.9396,4.8925,4.8448,4.8324,4.7419,4.6491,4.6214,4.5175,4.4127,4.3813,4.3164,4.2687,4.2886,4.2915,4.319,4.4122,4.4407,4.4915,4.6157,4.6384,4.6696,4.7234,4.7309,4.7309,4.7309,4.7309,4.7309,4.7309,4.7309,4.7309,4.7309,4.7309,4.7309,4.7309,4.7309,4.7309,4.7309,4.7309,4.6696,4.5469,4.5198,4.4373,4.3159,4.2934,4.289,4.2951,4.2337,0.0,4.2396,4.2396,4.2526,4.2848,4.3691,4.4127,4.4358,4.4549,4.4723,4.4911,0.0,0.0,0.0,0.0,0.0,0.0,0.0,0.0,0.0,1.7242,1.7714,1.824,0.0,0.0,0.0,0.0,0.0,0.0,0.0,0.0,0.0,0.0,1.9971,2.0155,2.0246,2.0138,2.0048,2.0048,0.0,1.9994,2.0221,2.0574,2.1195,2.2041,2.2858,2.3924,2.5219,2.6253,2.7508,2.8956,2.9927,3.1213,3.2627,0.0,0.0,0.0,3.8834,4.0516,4.2058,4.2945,4.3926,4.5065,4.6887,4.7367,4.7423,4.8286,4.8638,4.8642,4.8069,4.7846,4.7586,4.6797,4.608,4.5364,4.458,4.3898,4.3271,4.2733,4.2271,4.2038,4.2146,4.2363,4.2698,4.3234,4.3868,4.4541,4.5185,4.5846,4.6399,4.6756,4.71,4.7309,4.7309,4.7309,4.7309,4.7309,4.7309,4.7309,4.7309,4.7309,4.7309,4.7309,4.7309,4.7309,4.7309,4.7309,4.6636,4.5289,4.5096,4.4246,4.2835,4.2729,4.2703,4.2644,4.1853,4.1617,4.1748,4.1863,4.2001,4.2296,4.3501,4.4127,4.432,4.4549,4.4648,4.4761,0.0,0.0,0.0,0.0,0.0,0.0,0.0,1.5258,1.5893,1.6942,1.732,1.7878,1.8769,1.8897,1.8939,0.0,0.0,0.0,0.0,0.0,0.0,0.0,0.0,0.0,1.9358,0.0,0.0,1.8958,1.8727,0.0,0.0,0.0,0.0,0.0,2.1338,2.2262,2.34,2.4413,2.5547,0.0,0.0,2.9105,3.0749,0.0,0.0,0.0,0.0,3.8727,4.0203,4.132,4.2174,4.3114,4.4969,4.5899,4.6419,4.6944,4.7338,4.7472,4.6662,4.6655,4.6524,4.5312,4.4908,4.4458,4.3259,4.288,4.2591,4.1871,4.1465,4.1279,4.1392,4.1731,4.2066,4.2351,4.3225,4.3988,4.4272,4.5229,4.5965,4.6249,4.6785,4.7145,4.7294,4.7309,4.7309,4.7309,4.7309,4.7309,4.7309,4.7309,4.7309,4.7309,4.7309,4.7309,4.7309,4.7309,4.6668,4.543,4.5087,4.4211,4.2813,4.264,4.2514,4.236,4.1534,4.1225,4.1302,4.1464,4.1655,4.2002,4.3401,4.4026,4.4205,4.4435,4.4549,4.4572,0.0,0.0,0.0,0.0,0.0,0.0,0.0,1.5149,1.5976,1.6327,1.7461,1.835,1.8677,1.8559,1.8456,0.0,0.0,0.0,0.0,0.0,0.0,0.0,0.0,0.0,0.0,0.0,0.0,1.8218,1.8179,0.0,0.0,0.0,0.0,0.0,0.0,2.0988,2.1961,2.3149,0.0,0.0,0.0,0.0,0.0,0.0,0.0,0.0,0.0,3.7204,3.8841,3.9329,4.0162,4.119,4.219,4.3957,4.5765,4.6245,4.641,4.6416,4.6113,4.5647,4.5166,4.5059,4.4519,4.3881,4.3153,4.2515,4.1856,4.0991,4.032,4.0022,4.0456,4.0531,4.0965,4.2201,4.25,4.2995,4.4152,4.4421,4.496,4.6145,4.6324,4.6651,4.7249,4.7309,4.7309,4.7309,4.7309,4.7309,4.7309,4.7309,4.7309,4.7309,4.7309,4.7309,4.7309,4.7309,4.6821,4.5949,4.5128,4.4211,4.324,4.2478,4.2242,4.2348,4.1646,4.1563,0.0,4.1926,4.2097,4.2419,4.335,4.3729,4.3793,4.4166,4.432,4.4358,0.0,0.0,0.0,0.0,0.0,0.0,0.0,1.4824,1.5633,1.6559,1.737,1.8067,1.853,1.8773,1.8893,0.0,0.0,0.0,0.0,0.0,0.0,0.0,0.0,0.0,0.0,0.0,1.8141,1.7861,1.7916,0.0,0.0,0.0,0.0,0.0,0.0,2.0259,2.0952,2.1961,0.0,0.0,0.0,0.0,0.0,0.0,0.0,0.0,0.0,0.0,3.6908,3.8061,3.8907,3.9654,4.049,4.1597,4.2809,4.427,4.501,4.5213,4.4739,4.4724,4.4684,4.4118,4.3397,4.2674,4.2015,4.1227,4.0442,3.972,3.9341,3.9215,3.9394,3.9758,4.0263,4.0934,4.1694,4.2434,4.3075,4.3823,4.4661,4.5603,4.6067,4.6576,4.7234,4.7309,4.7309,4.7309,4.7309,4.7309,4.7309,4.7309,4.7309,4.7309,4.7309,4.7309,4.7309,4.7309,4.6851,4.5996,4.5115,4.4198,4.3286,4.2466,4.2133,4.2172,4.1638,4.1506,0.0,4.1898,4.2054,4.2246,4.3301,4.369,4.3714,4.4026,4.4205,4.432,0.0,0.0,0.0,0.0,0.0,0.0,1.4127,1.4665,1.5452,1.6617,1.7257,1.7827,1.8458,1.8928,1.9188,1.9188,0.0,0.0,0.0,0.0,0.0,0.0,0.0,0.0,0.0,0.0,1.8,1.7871,1.7809,1.7867,0.0,0.0,1.8589,1.8646,0.0,0.0,0.0,0.0,0.0,0.0,0.0,0.0,0.0,0.0,0.0,0.0,0.0,0.0,0.0,0.0,0.0,3.8264,3.9064,3.9607,4.031,4.2367,4.3374,4.3728,4.3474,4.3728,4.3883,4.3051,4.2387,4.1759,4.0929,4.0252,3.9607,3.8929,3.8782,3.8782,3.8782,3.918,3.9601,3.9943,4.0795,4.1629,4.2234,4.3086,4.3982,4.49,4.5603,4.6277,4.695,4.7189,4.7309,4.7309,4.7309,4.7309,4.7309,4.7309,4.7309,4.7309,4.7309,4.7309,4.7309,4.7309,4.6897,4.6191,4.5161,4.4301,4.3494,4.2553,4.2092,4.2078,4.1762,4.1638,0.0,4.201,4.2194,4.2396,4.3204,4.3518,4.3596,4.3832,4.3988,4.4143,0.0,0.0,0.0,0.0,0.0,0.0,0.0,1.4871,1.5667,1.6408,1.7196,1.7908,1.8435,1.8928,1.9188,1.9188,0.0,0.0,0.0,0.0,0.0,0.0,0.0,0.0,0.0,0.0,1.8114,1.8167,1.7919,1.7984,1.8299,1.8299,1.8454,1.8701,0.0,0.0,0.0,0.0,0.0,0.0,0.0,0.0,0.0,0.0,0.0,0.0,0.0,0.0,0.0,0.0,0.0,0.0,0.0,3.8306,3.9007,4.0858,4.1571,4.1877,4.2526,4.2743,4.2541,4.1892,4.169,4.1391,4.0094,3.9814,3.9607,3.8929,3.8782,3.8782,3.8782,3.8797,3.9018,3.9696,3.9814,4.0347,4.1882,4.2129,4.2684,4.4142,4.49,4.5574,4.6277,4.692,4.7309,4.7309,4.7309,4.7309,4.7309,4.7309,4.7309,4.7309,4.7309,4.7309,4.7309,4.7309,4.7077,4.6565,4.5325,4.4451,4.3935,4.2673,4.2092,4.2092,4.2092,4.2201,0.0,4.2377,4.2648,4.2981,4.2981,4.3115,4.3329,4.3596,4.369,4.3714,0.0,0.0,0.0,0.0,0.0,0.0,0.0,1.4778,1.5464,1.622,1.7134,1.7815,1.8187,1.8974,1.9487,1.9487,0.0,0.0,0.0,0.0,0.0,0.0,0.0,0.0,0.0,0.0,1.8531,1.8222,1.8557,1.8725,1.8642,1.8862,1.8906,1.8779,1.8708,1.8852,0.0,0.0,0.0,0.0,0.0,0.0,2.7278,0.0,0.0,0.0,0.0,0.0,0.0,0.0,0.0,0.0,0.0,0.0,0.0,3.9132,4.005,4.0773,4.1278,4.1415,4.1371,4.1126,4.065,4.0094,3.9698,3.913,3.8652,3.8433,3.8389,3.8389,3.8389,3.8389,3.85,3.8868,3.9316,4.0018,4.1234,4.1793,4.2669,4.4112,4.5319,4.6262,4.6935,4.7189,4.7309,4.7309,4.7309,4.7309,4.7309,4.7309,4.7309,4.7309,4.7309,4.7309,4.7309,4.7121,4.6887,4.658,4.5096,4.428,4.395,4.2673,4.2092,4.2092,4.2092,4.2133,4.2216,4.2366,4.2541,4.2809,4.2955,4.3115,4.329,4.3384,4.3557,4.3729,0.0,0.0,0.0,0.0,0.0,0.0,0.0,1.4816,1.5343,1.5988,1.6871,1.7581,1.79,1.8743,1.9396,1.9587,0.0,0.0,0.0,0.0,0.0,0.0,0.0,0.0,1.9127,1.9099,1.9096,1.9021,1.9135,1.9196,1.9125,1.9228,1.9169,1.8957,1.8793,1.8856,0.0,0.0,0.0,0.0,0.0,0.0,2.6757,0.0,0.0,0.0,0.0,0.0,0.0,0.0,0.0,0.0,0.0,0.0,0.0,0.0,3.8755,3.9499,4.0315,4.0549,4.0466,4.027,3.9788,3.9308,3.9046,3.8606,3.8202,3.8202,3.8202,3.8202,3.8202,3.8202,3.824,3.8366,3.8814,3.9551,4.0808,4.1412,4.2436,4.4426,4.5424,4.6292,4.7219,4.7309,4.7309,4.7309,4.7309,4.7309,4.7309,4.7309,4.7309,4.7309,4.7309,4.7251,4.7164,4.6975,4.6623,4.6079,4.4892,4.4048,4.3587,4.2571,4.2092,4.2092,4.2092,4.2092,0.0,4.2242,4.2392,4.2622,4.2809,4.2996,4.321,4.325,4.3423,4.3557,0.0,0.0,0.0,0.0,0.0,0.0,0.0,0.0,0.0,0.0,1.6447,1.7167,1.7628,1.8365,1.902,0.0,0.0,0.0,0.0,0.0,0.0,0.0,0.0,0.0,2.0091,1.966,1.9717,2.0392,1.9663,1.9424,1.968,1.9428,1.9324,1.9309,1.8935,1.8899,0.0,0.0,0.0,0.0,2.393,2.5126,0.0,0.0,0.0,0.0,0.0,0.0,0.0,0.0,0.0,0.0,0.0,0.0,0.0,0.0,0.0,0.0,0.0,3.9973,3.9828,3.9276,3.917,3.901,3.8385,3.824,0.0,3.824,3.824,3.824,3.824,3.824,3.824,3.824,3.8389,3.9044,4.058,4.1092,4.2281,4.5005,4.5289,4.5828,4.7174,4.7309,4.7309,4.7309,4.7309,4.7309,4.7309,4.7309,4.7309,4.7309,4.7266,4.7164,4.6916,4.6828,4.6284,4.5288,4.4557,4.3786,4.2977,4.2368,4.2092,0.0,4.2092,4.2092,0.0,4.2092,4.2201,4.2433,4.2622,4.2795,4.3036,4.321,4.329,4.329,0.0,0.0,0.0,0.0,0.0,0.0,0.0,0.0,0.0,0.0,1.6204,1.6871,1.7333,1.8218,1.892,0.0,0.0,0.0,0.0,0.0,0.0,0.0,0.0,0.0,2.0091,2.0284,2.0362,2.0392,2.046,2.0223,1.968,1.9628,1.948,1.9309,1.8935,1.8858,0.0,0.0,0.0,0.0,2.3052,2.4435,0.0,0.0,0.0,0.0,3.0941,3.2202,0.0,0.0,0.0,0.0,0.0,0.0,0.0,0.0,3.7953,3.8237,3.8731,0.0,3.8647,3.8666,3.8675,3.8668,0.0,3.8671,3.8671,3.8671,3.8671,3.8671,3.8671,3.8671,3.8671,3.8671,3.8708,3.9268,4.0825,4.2058,4.3399,4.511,4.5289,4.5828,4.7174,4.7309,4.7309,4.7309,4.7309,4.7309,4.7309,4.7309,4.7309,4.7309,4.7121,4.6975,4.6916,4.6078,4.5537,4.5288,4.3933,4.3179,4.2977,4.2368,4.2092,4.2092,4.2092,4.2092,4.2092,4.2092,4.2201,4.2392,4.2474,4.2688,4.3036,4.3036,4.3155,4.329,0.0,0.0,0.0,0.0,0.0,0.0,0.0,0.0,0.0,0.0,0.0,0.0,0.0,0.0,0.0,0.0,0.0,0.0,0.0,0.0,0.0,0.0,0.0,2.0812,2.1049,2.1202,2.1328,2.1378,2.1025,2.066,2.0248,1.9887,1.9628,1.9465,1.9132,1.9135,1.94,1.9796,2.061,2.169,2.2612,0.0,0.0,0.0,0.0,0.0,3.0514,3.1928,0.0,3.456,3.5735,3.6744,0.0,0.0,0.0,0.0,3.8254,3.8574,3.8994,3.8772,3.8501,3.8612,3.8664,3.8649,3.8797,3.8782,3.8782,3.8782,3.8782,3.8782,3.8782,3.8782,3.8885,3.9209,3.9328,3.9921,4.1462,4.2891,4.4152,4.517,4.5574,4.6172,4.7204,4.7309,4.7309,4.7309,4.7309,4.7309,4.7309,4.7309,4.7251,4.7121,4.6887,4.6608,4.6297,4.5653,4.4966,4.4238,4.3411,4.2847,4.2571,4.2237,4.2092,4.2092,4.2092,4.2092,4.2092,4.2092,4.2175,4.2284,4.2351,4.2541,4.2729,4.2915,4.3076,4.317,0.0,0.0,0.0,0.0,0.0,0.0,0.0,0.0,0.0,0.0,0.0,0.0,0.0,0.0,0.0,0.0,0.0,0.0,0.0,0.0,0.0,0.0,2.1296,2.1786,2.2206,2.2139,2.2275,2.2476,2.1573,2.107,2.0873,2.0197,1.9835,1.9665,1.9432,1.9535,1.9853,1.9983,2.0567,2.1463,2.2328,0.0,0.0,0.0,0.0,0.0,0.0,0.0,0.0,3.4566,3.5753,3.671,3.7222,0.0,0.0,0.0,0.0,0.0,3.972,3.9521,3.9143,3.9173,3.9239,3.921,3.9143,3.9128,3.9099,3.8995,3.898,3.901,3.9113,3.9128,3.935,4.0032,4.036,4.0995,4.2284,4.3534,4.4597,4.5214,4.5903,4.6576,4.7234,4.7309,4.7309,4.7309,4.7309,4.7309,4.7309,4.7309,4.7164,4.6916,4.6623,4.6123,4.5401,4.52,4.4384,4.2992,4.2905,4.2586,4.2092,4.2092,4.2092,4.2092,0.0,0.0,4.2092,4.2092,4.2092,4.2133,4.2284,4.2351,4.2433,4.2769,4.2955,4.3036,0.0,0.0,0.0,0.0,0.0,0.0,0.0,0.0,0.0,0.0,0.0,0.0,0.0,0.0,0.0,0.0,0.0,0.0,0.0,0.0,0.0,2.0952,2.1387,2.1786,2.2206,2.2527,2.2612,2.2476,2.2325,2.1776,2.0925,2.0763,2.0351,1.9732,1.9878,1.9857,1.9698,2.0132,2.0564,2.0988,2.175,0.0,0.0,0.0,0.0,0.0,0.0,0.0,0.0,3.3826,3.5208,3.6366,3.7463,0.0,0.0,0.0,0.0,0.0,4.0114,4.0491,4.0713,4.0935,4.1145,4.1129,4.0734,4.0649,4.0498,3.9924,3.9818,3.9985,4.0544,4.0649,4.0876,4.1541,4.2153,4.2569,4.2627,4.3771,4.4744,4.5256,4.5903,4.6576,4.7234,4.7309,4.7309,4.7309,4.7309,4.7309,4.7309,4.7309,4.7164,4.6916,4.615,4.5344,4.4497,4.4297,4.379,4.2977,4.2469,4.2179,4.2092,4.2092,4.2092,4.2092,0.0,4.2092,4.2092,4.2092,4.2092,4.2092,4.2133,4.2242,4.2392,4.2474,4.2688,4.3036,0.0,0.0,0.0,0.0,0.0,0.0,0.0,0.0,0.0,0.0,0.0,0.0,0.0,0.0,0.0,0.0,0.0,0.0,0.0,0.0,2.0871,2.0997,2.1988,2.2553,2.2564,2.3208,2.3408,2.3188,2.2728,2.2224,2.1776,2.1173,2.0557,1.9931,2.0034,2.0105,2.012,2.0329,2.059,2.095,0.0,0.0,0.0,0.0,0.0,0.0,0.0,0.0,0.0,0.0,3.4941,3.633,3.7534,0.0,0.0,0.0,0.0,0.0,4.0932,4.1477,4.1919,4.2902,4.25,4.1797,4.1605,4.1529,4.1453,4.1149,4.1073,4.1164,4.1483,4.1529,4.1756,4.2424,4.3092,4.3615,4.3901,4.4779,4.553,4.5947,4.6596,4.7094,4.7279,4.7309,4.7309,4.7309,4.7309,4.7309,4.7309,4.7309,4.7121,4.6756,4.6018,4.511,4.4151,4.3673,4.3137,4.2498,4.2223,4.2092,4.2092,4.2092,4.2092,4.2092,0.0,4.2092,4.2092,4.2092,4.2092,4.2092,4.2092,4.2175,4.2242,4.2351,4.2648,4.3036,0.0,0.0,0.0,0.0,0.0,0.0,0.0,0.0,0.0,0.0,0.0,0.0,0.0,0.0,0.0,0.0,0.0,0.0,0.0,0.0,2.0781,2.0997,2.2529,2.3261,2.2998,2.3818,2.4134,2.3895,2.3179,2.2728,2.2476,2.1522,2.0806,2.0292,2.0344,2.0454,2.0498,2.053,2.071,2.1082,0.0,0.0,0.0,0.0,0.0,0.0,0.0,0.0,0.0,0.0,0.0,0.0,0.0,0.0,0.0,3.9337,3.9625,4.0105,4.1656,4.2242,4.2784,4.4324,4.3652,4.2633,4.2517,4.2524,4.2478,4.231,4.2294,4.2303,4.2419,4.2535,4.2772,4.329,4.3929,4.4554,4.4978,4.5768,4.6386,4.6664,4.7244,4.7553,4.7396,4.7352,4.7309,4.7309,4.7309,4.7309,4.7309,4.7309,4.7003,4.6417,4.571,4.4862,4.3761,4.3108,4.2557,4.2092,4.2092,4.2092,4.2092,4.2092,4.2092,4.2092,4.2092,4.2092,4.2092,4.2092,4.2092,4.2092,4.2092,4.2092,4.2133,4.2325,4.2581,4.2875,0.0,0.0,0.0,0.0,0.0,0.0,0.0,0.0,0.0,0.0,0.0,0.0,0.0,0.0,0.0,0.0,0.0,0.0,0.0,0.0,2.0781,2.0997,2.2723,2.3532,2.3299,2.4303,2.4587,2.4084,2.4035,2.3479,2.2476,2.192,2.1377,2.0865,2.1121,2.0968,2.0522,2.0747,2.099,2.1189,2.1099,0.0,0.0,0.0,0.0,0.0,0.0,0.0,0.0,0.0,0.0,0.0,0.0,0.0,3.8943,3.9502,3.9803,4.032,4.1839,4.255,4.3164,4.4549,4.4759,4.4564,4.4143,4.4039,4.3868,4.323,4.3105,4.3256,4.3675,4.4108,4.4411,4.4495,4.5041,4.5464,4.5314,4.6406,4.7165,4.7004,4.7344,4.7581,4.7596,4.7424,4.7309,4.7309,4.7309,4.7309,4.7309,4.7309,4.6794,4.5724,4.5104,4.4202,4.3065,4.2469,4.2136,4.2092,4.2092,4.2092,4.2092,4.2092,4.2092,4.2092,4.2092,4.2092,4.2092,4.2092,4.2092,4.2092,4.2092,4.2092,4.2133,4.2325,4.2433,4.2514,0.0,0.0,0.0,0.0,0.0,0.0,0.0,0.0,0.0,0.0,0.0,0.0,0.0,0.0,0.0,0.0,0.0,0.0,0.0,1.9745,2.0382,2.0781,2.2548,2.3542,2.3532,2.4602,2.499,2.4587,2.4282,2.3628,2.2728,2.2375,2.1979,2.1623,2.1573,2.1326,2.1019,2.1121,2.1081,2.0957,2.1196,2.1483,0.0,0.0,0.0,0.0,0.0,0.0,0.0,0.0,3.3022,3.4798,3.6402,3.768,3.876,3.9502,3.9839,4.0406,4.2181,4.2783,4.3288,4.4861,4.5278,4.5179,4.4892,4.483,4.4752,4.4502,4.444,4.4497,4.4672,4.4756,4.4938,4.5317,4.5534,4.588,4.6607,4.7175,4.7569,4.7775,4.7813,4.7794,4.7639,4.7424,4.7309,4.7309,4.7309,4.7309,4.7309,4.7309,4.6764,4.565,4.503,4.4128,4.2992,4.2397,4.2092,4.2092,4.2092,4.2092,4.2092,4.2092,4.2092,4.2092,4.2092,4.2092,4.2092,4.2092,4.2092,4.2092,4.2092,4.2092,4.2092,4.2175,4.2021,4.1803,0.0,0.0,0.0,0.0,0.0,0.0,0.0,0.0,0.0,0.0,0.0,0.0,0.0,0.0,0.0,0.0,0.0,0.0,1.88,1.9437,2.0056,2.0654,2.2363,2.3402,2.3672,2.4746,2.5235,2.5039,2.4489,2.3877,2.3279,2.2979,2.2677,2.2325,2.2072,2.1827,2.1522,2.1471,2.134,2.1212,2.1445,2.167,0.0,0.0,0.0,0.0,0.0,0.0,0.0,0.0,3.2183,3.4019,3.5769,3.7154,3.8326,3.9406,3.9839,4.036,4.2098,4.2756,4.3334,4.4815,4.5416,4.5662,4.5515,4.5478,4.5478,4.5405,4.5331,4.5294,4.5294,4.5301,4.5468,4.5918,4.6191,4.6691,4.7617,4.7845,4.8014,4.8366,4.8175,4.7922,4.7752,4.7467,4.7309,4.7309,4.7309,4.7309,4.7309,4.7309,4.6675,4.537,4.4927,4.404,4.2716,4.2295,4.2092,4.2092,4.2092,4.2092,4.2092,4.2092,4.2092,4.2092,4.2092,4.2092,4.2092,4.2092,4.2092,4.2092,4.2092,4.2092,4.2092,4.2092,4.1738,4.1317,0.0,0.0,0.0,0.0,0.0,0.0,0.0,0.0,0.0,0.0,0.0,0.0,0.0,0.0,0.0,0.0,0.0,0.0,1.8861,1.9336,1.9928,2.0654,2.2178,2.3214,2.3682,2.4756,2.5294,2.5284,2.4784,2.4381,2.4084,2.3827,2.3429,2.2878,2.2627,2.2375,2.208,2.1827,2.1878,2.2047,2.1753,2.2045,2.2673,0.0,0.0,0.0,0.0,0.0,0.0,0.0,3.0932,3.2818,3.4862,3.6322,3.7594,3.9221,3.9839,4.0254,4.1461,4.249,4.3388,4.4188,4.527,4.6112,4.6112,4.6112,4.604,4.5859,4.5662,4.5515,4.5515,4.59,4.6202,4.6218,4.7231,4.7988,4.7988,4.8342,4.862,4.862,4.826,4.8007,4.8007,4.7596,4.7309,4.7309,4.7309,4.7309,4.7309,4.7294,4.6481,4.475,4.4706,4.3877,4.2107,4.2092,4.2092,4.2092,4.2092,4.2092,4.2092,4.2092,4.2092,4.2092,4.2092,4.2092,4.2092,4.2092,4.2092,4.2092,4.2092,4.2092,4.2092,4.2092,4.1671,4.1116,0.0,0.0,0.0,0.0,0.0,0.0,0.0,0.0,0.0,0.0,0.0,0.0,0.0,0.0,0.0,0.0,0.0,0.0,1.899,1.9249,1.9701,2.0483,2.1808,2.28,2.3448,2.5034,2.5664,2.5284,2.5137,2.4932,2.4627,2.4183,2.3877,2.3728,2.3338,2.2837,2.2375,2.2274,2.2072,2.1818,2.1912,2.2019,2.2172,0.0,0.0,0.0,0.0,0.0,0.0,0.0,0.0,0.0,3.3498,3.5254,3.6891,3.8096,3.9071,4.0082,4.141,4.249,4.3439,4.4366,4.5377,4.6112,4.6112,4.6152,4.6207,4.6171,4.6008,4.6074,4.6534,4.6512,4.6758,4.7746,4.8067,4.832,4.868,4.8831,4.8816,4.862,4.837,4.8175,4.8007,4.7709,4.7467,4.7309,4.7309,4.7309,4.7309,4.686,4.6005,4.4735,4.4248,4.3407,4.2107,4.2092,4.2092,4.2092,4.2092,4.2092,4.2092,4.2092,4.2092,4.2092,4.2092,4.2092,4.2092,4.2092,4.2092,4.2092,4.2092,4.2092,4.2034,4.157,4.0974,4.0336,0.0,0.0,0.0,0.0,0.0,0.0,0.0,0.0,0.0,0.0,1.6693,0.0,0.0,0.0,0.0,0.0,0.0,0.0,0.0,1.9272,1.9694,2.0448,2.1678,2.2928,2.4136,2.5449,2.6004,2.5771,2.5771,2.5567,2.5216,2.4873,2.4618,2.4381,2.3886,2.3488,2.3129,2.2937,2.2585,2.2232,2.2384,2.2407,2.2356,0.0,0.0,0.0,0.0,0.0,0.0,0.0,0.0,0.0,3.2326,3.4162,3.5962,3.7375,3.8641,3.9828,4.0981,4.2237,4.3376,4.4036,4.5191,4.6223,4.6365,4.6349,4.6333,4.6388,4.6538,4.6709,4.7034,4.7373,4.7833,4.8568,4.8788,4.8878,4.9081,4.9037,4.8898,4.862,4.8412,4.8218,4.8007,4.7752,4.751,4.7309,4.7309,4.7309,4.7309,4.6681,4.5811,4.4735,4.4057,4.3201,4.2107,4.2092,4.2092,4.2092,4.2092,4.2092,4.2092,4.2092,4.2092,4.2092,4.2092,4.2092,4.2092,4.2092,4.2092,4.2092,4.2092,4.2092,4.202,4.1337,4.067,4.0002,0.0,0.0,0.0,0.0,0.0,0.0,0.0,0.0,0.0,0.0,1.7362,1.7314,0.0,0.0,0.0,0.0,0.0,0.0,0.0,0.0,1.9826,2.0597,2.1856,2.3389,2.5274,2.5858,2.6294,2.6592,2.6496,2.6245,2.579,2.5742,2.546,2.4932,2.443,2.4134,2.4084,2.3646,2.3297,2.3046,2.3046,2.3046,2.3003,2.2814,0.0,0.0,0.0,0.0,0.0,0.0,0.0,0.0,3.1292,3.3068,3.4789,3.683,3.8286,3.9397,4.0231,4.174,4.3118,4.3361,4.4858,4.6404,4.6823,4.6615,4.6404,4.6598,4.7072,4.7385,4.7266,4.8328,4.9136,4.9045,4.9347,4.9557,4.9356,4.9144,4.8939,4.8661,4.8453,4.826,4.8049,4.7794,4.7553,4.7337,4.7309,4.7309,4.7309,4.6621,4.5737,4.4778,4.3997,4.3143,4.2133,4.2092,4.2092,4.2092,4.2092,4.2092,4.2092,4.2092,4.2092,4.2092,4.2092,4.2092,4.2092,4.2092,4.2092,4.2092,4.2092,4.2092,4.2005,4.1279,4.0612,4.0002,0.0,0.0,0.0,0.0,0.0,0.0,0.0,0.0,0.0,0.0,0.0,0.0,0.0,0.0,0.0,0.0,0.0,0.0,0.0,0.0,1.9941,2.0719,2.2407,2.3964,2.5274,2.6014,2.664,2.7119,2.6688,2.6448,2.6294,2.5897,2.5645,2.5499,2.4971,2.448,2.4075,2.3985,2.3687,2.3297,2.3297,2.3297,2.3302,2.3108,2.3193,0.0,0.0,0.0,0.0,0.0,0.0,0.0,2.9959,3.1597,3.3359,3.5368,3.6925,3.8278,3.9657,4.1039,4.2303,4.3184,4.4858,4.6404,4.6823,4.6807,4.6772,4.6807,4.7265,4.7798,4.8292,4.8797,4.9387,4.9905,4.9915,4.9757,4.9557,4.9356,4.9169,4.8939,4.8676,4.8453,4.826,4.8049,4.7794,4.7538,4.7381,4.7309,4.7309,4.6172,4.5329,4.4959,4.3637,4.2713,4.2366,4.2175,4.2092,0.0,4.2092,4.2092,4.2092,4.2092,4.2092,4.2092,4.2092,4.2092,4.2092,4.2092,4.2092,4.2092,4.2092,4.2092,4.1947,4.0757,4.022,4.0002,0.0,0.0,0.0,0.0,0.0,0.0,0.0,0.0,0.0,0.0,0.0,0.0,0.0,0.0,0.0,0.0,0.0,0.0,0.0,0.0,2.0386,2.1537,2.3019,2.4354,2.546,2.6294,2.6918,2.7441,2.7299,2.7109,2.688,2.6486,2.6149,2.5887,2.546,2.5069,2.4686,2.4381,2.4084,2.3737,2.3646,2.3497,2.3379,2.3422,2.3371,2.3338,2.3721,0.0,0.0,0.0,0.0,0.0,0.0,0.0,3.222,3.3947,3.5736,3.7448,3.874,4.0314,4.1963,4.3663,4.4945,4.5987,4.6622,4.6842,4.6876,4.6876,4.7664,4.8413,4.8643,4.9406,5.008,5.0276,5.0184,4.9971,4.9637,4.9517,4.9331,4.9037,4.8857,4.8676,4.8328,4.8218,4.8007,4.7639,4.751,4.7246,4.6845,4.5858,4.5072,4.4525,4.3342,4.2622,4.2392,4.2216,4.2092,4.2092,4.2092,4.2092,4.2092,4.2092,4.2092,4.2092,4.2092,4.2092,4.2092,4.2092,4.2092,4.2092,4.2092,4.2092,4.1976,4.0945,4.0583,4.0481,0.0,0.0,0.0,0.0,0.0,0.0,0.0,0.0,0.0,0.0,0.0,0.0,0.0,0.0,0.0,0.0,0.0,0.0,0.0,0.0,0.0,2.2426,2.3529,2.4618,2.5693,2.6466,2.7146,2.7678,2.7904,2.7809,2.7499,2.7129,2.6747,2.6294,2.6073,2.5771,2.5448,2.5036,2.4641,2.4334,2.4022,2.3795,2.3596,2.3805,2.3646,2.3396,2.4009,2.4326,2.4509,2.5015,0.0,0.0,0.0,0.0,3.11,3.263,3.4502,3.6362,3.7525,3.945,4.1643,4.3839,4.4725,4.5277,4.621,4.656,4.6712,4.686,4.7929,4.8812,4.8764,4.9818,5.0637,5.0402,5.0301,5.0129,4.9717,4.9637,4.9493,4.9144,4.9037,4.8872,4.8469,4.8343,4.8133,4.7752,4.7561,4.7132,4.6379,4.5559,4.4803,4.4061,4.3205,4.2662,4.2474,4.2242,4.2133,4.2092,4.2092,4.2092,4.2092,4.2092,4.2092,4.2092,4.2092,4.2092,4.2092,4.2092,4.2092,4.2092,4.2092,4.2092,4.202,4.1337,4.1091,4.1018,0.0,0.0,0.0,0.0,0.0,0.0,0.0,0.0,0.0,0.0,1.9983,1.9931,0.0,0.0,0.0,0.0,0.0,0.0,0.0,0.0,0.0,2.2476,2.3529,2.4618,2.5693,2.6466,2.7231,2.7951,2.7987,2.8092,2.8254,2.7547,2.7214,2.7129,2.7045,2.6735,2.6249,2.617,2.5862,2.5343,2.4678,2.4381,2.4341,2.4202,2.4125,2.4024,2.3966,2.4231,2.4639,2.4989,2.5657,0.0,0.0,0.0,2.9487,3.1512,3.2866,3.4126,3.582,3.8326,4.0797,4.2335,4.334,4.4249,4.5449,4.5747,4.5993,4.6763,4.7556,4.8282,4.888,4.951,5.0064,5.0477,5.0418,5.0223,4.9876,4.9717,4.9557,4.9533,4.9225,4.8955,4.8914,4.8552,4.8286,4.8202,4.7277,4.6689,4.6572,4.5192,4.4366,4.4276,4.3418,4.2875,4.2648,4.2474,4.2284,4.2092,4.2092,4.2092,4.2092,4.2092,4.2092,4.2092,4.2092,4.2092,4.2092,4.2092,4.2092,4.2092,4.2092,4.2092,4.202,4.1337,4.1091,4.1091,0.0,0.0,0.0,0.0,0.0,0.0,0.0,0.0,0.0,0.0,0.0,2.0506,0.0,0.0,0.0,2.0138,0.0,0.0,0.0,0.0,0.0,2.2677,2.3628,2.4618,2.5693,2.661,2.7373,2.7998,2.842,2.8617,2.8628,2.8569,2.8211,2.7655,2.7934,2.7742,2.7192,2.686,2.6598,2.6336,2.5699,2.534,2.5133,2.5042,2.4743,2.4421,2.4635,2.4715,2.4832,2.5167,2.5757,2.6438,2.6791,0.0,0.0,0.0,3.1471,3.303,3.5374,3.7591,3.956,4.0874,4.2091,4.3245,4.4302,4.509,4.5699,4.6108,4.6807,4.7718,4.8783,4.9539,5.0155,5.0669,5.0589,5.0379,5.0184,4.9931,4.9717,4.9597,4.9452,4.9266,4.9037,4.8816,4.8593,4.8328,4.7494,4.6739,4.6128,4.5071,4.4258,4.3738,4.3264,4.2955,4.2875,4.2648,4.2474,4.2284,4.2133,4.2092,4.2092,4.2092,4.2092,4.2092,4.2092,4.2092,4.2092,4.2092,4.2092,4.2092,4.2092,4.2092,4.2063,4.1758,4.1657,4.1657,0.0,0.0,0.0,0.0,0.0,0.0,0.0,0.0,0.0,0.0,0.0,0.0,0.0,0.0,0.0,0.0,2.049,0.0,0.0,0.0,0.0,2.3079,2.3877,2.4766,2.579,2.6802,2.7563,2.8092,2.8746,2.9082,2.9,2.9617,2.9364,2.8512,2.8796,2.8703,2.8208,2.7711,2.7446,2.7343,2.6673,2.6238,2.591,2.5819,2.5418,2.4986,2.5279,2.5299,2.5223,2.5409,2.5903,2.6388,2.6388,2.7071,0.0,0.0,0.0,3.2288,3.4792,3.6508,3.7898,3.9252,4.0597,4.1878,4.2892,4.4034,4.4998,4.5504,4.6124,4.7036,4.846,4.9208,4.9798,5.0515,5.0492,5.0365,5.0308,5.0144,4.9931,4.9717,4.9637,4.9493,4.9184,4.9078,4.8872,4.851,4.7604,4.6697,4.5884,4.4931,4.4078,4.3438,4.321,4.3036,4.2981,4.2809,4.2622,4.2392,4.2242,4.2133,4.2092,4.2092,4.2092,4.2092,4.2092,4.2092,4.2092,4.2092,4.2092,4.2092,4.2092,4.2092,4.2092,4.2092,4.2092,4.2092,0.0,0.0,0.0,0.0,0.0,0.0,0.0,0.0,0.0,0.0,0.0,0.0,2.1623,2.1623,2.1623,2.1623,2.1623,2.1725,2.2021,2.2325,0.0,2.3628,2.443,0.0,2.6042,2.7061,2.7831,2.8395,2.885,2.922,2.9462,3.0471,3.0592,3.0052,2.9759,2.9514,2.9219,2.8942,2.8644,2.8356,2.7353,2.6963,2.6892,2.634,2.6125,2.6058,2.5721,2.5738,2.5921,2.5762,2.5869,2.6233,2.6691,2.6927,2.7171,0.0,0.0,0.0,3.3508,3.464,3.5651,3.7163,3.8489,3.9804,4.1209,4.2219,4.3359,4.5227,4.5651,4.6152,4.7764,4.8091,4.8489,4.9662,4.985,4.9941,5.0245,5.0301,5.0184,4.9931,4.9717,4.9597,4.9557,4.9225,4.8996,4.8955,4.7338,4.633,4.6284,4.4667,4.372,4.369,4.3423,4.321,4.2981,4.2809,4.2622,4.2392,4.2392,4.2284,4.2092,4.2092,4.2092,4.2092,4.2092,4.2092,4.2092,4.2092,4.2092,4.2092,4.2092,4.2092,4.2092,4.2092,4.2092,4.2092,0.0,0.0,0.0,0.0,0.0,0.0,0.0,0.0,0.0,0.0,0.0,0.0,0.0,2.2476,2.2375,2.2224,2.2375,2.2526,2.2627,2.3029,0.0,2.3926,2.4716,2.5557,2.6352,2.7156,2.7961,2.8664,2.9128,2.9393,2.9508,3.0647,3.1012,3.0718,3.0867,3.0664,3.0212,2.9798,2.9538,2.9423,2.8667,2.8115,2.7712,2.7506,2.703,2.6471,2.648,2.6473,2.6355,2.618,2.6418,2.6711,2.6464,2.6834,2.7547,2.8482,2.9566,3.0684,3.1853,3.322,3.459,3.5665,3.7035,3.8478,3.976,4.0997,4.2203,4.3472,4.4369,4.5216,4.6267,4.7308,4.8282,4.9147,4.9183,4.9116,4.9143,4.9423,4.9501,4.9291,4.9568,4.9757,4.9597,4.9452,4.9266,4.9037,4.7574,4.6564,4.6324,4.4795,4.3832,4.369,4.3423,4.325,4.321,4.2996,4.2835,4.2769,4.25,4.2351,4.2284,4.2175,4.2092,4.2092,4.2092,4.2092,4.2092,4.2092,4.2092,4.2092,4.2092,4.2092,4.2092,4.2092,4.2092,4.2092,0.0,0.0,0.0,0.0,0.0,0.0,0.0,0.0,0.0,2.3795,0.0,0.0,0.0,0.0,2.3229,2.3029,2.3179,2.3329,2.3429,2.3827,2.4273,2.4618,2.5304,2.6042,2.6736,2.7489,2.8196,2.8896,2.9405,2.968,2.9783,3.0931,3.136,3.1105,3.1756,3.1691,3.1023,3.0516,3.0203,3.0088,2.9617,2.9066,2.8585,2.8481,2.8041,2.7464,2.7481,2.7381,2.7209,2.699,2.7082,2.7187,2.6733,2.7123,2.7818,2.8387,2.9101,2.9891,3.0621,3.1917,3.3292,3.4179,3.5598,3.7078,3.8107,3.9575,4.0999,4.2057,4.3107,4.4177,4.5018,4.6037,4.7174,4.846,4.8566,4.8502,4.8577,4.8786,4.898,4.9011,4.9338,4.9584,4.9701,4.9637,4.9399,4.8914,4.765,0.0,4.6186,4.4854,4.3988,4.3729,4.3423,4.329,4.329,4.3155,4.3076,4.2996,4.2648,4.2474,4.2392,4.2216,4.2092,4.2092,4.2092,4.2092,4.2092,4.2092,4.2092,4.2092,4.2092,4.2092,4.2092,4.2092,4.2092,4.2092,0.0,0.0,0.0,0.0,0.0,0.0,0.0,0.0,2.4557,2.4548,0.0,0.0,0.0,0.0,0.0,2.4152,2.4143,2.4282,2.4529,2.4784,2.5167,2.5693,0.0,0.0,2.7309,2.8019,2.8675,2.9128,2.9646,3.0011,3.0239,3.133,3.1659,3.1406,3.2426,3.2465,3.1618,3.1086,3.0661,3.0391,3.0141,2.9879,2.9554,2.9237,2.9132,2.9029,2.8659,2.8508,2.8438,2.8056,2.7802,2.7623,2.7641,2.7757,2.7918,2.7935,2.855,2.9298,0.0,0.0,0.0,3.2725,3.4163,3.5541,3.6283,3.7895,3.9631,4.1035,4.1994,4.2958,4.4028,4.4239,4.5064,4.7502,4.7893,4.8065,4.8562,4.8508,4.8611,4.9069,4.8973,4.9157,4.9837,4.9701,4.933,4.8671,4.7543,4.6609,4.5928,4.4864,4.4104,4.3729,4.3463,4.329,4.329,4.329,4.321,4.3036,4.2809,4.2581,4.2392,4.2201,4.2092,4.2092,4.2092,4.2092,4.2092,4.2092,4.2092,4.2092,4.2092,4.2092,4.2092,4.2092,4.2092,4.2092,0.0,0.0,0.0,0.0,0.0,0.0,2.5907,2.6026,2.6073,0.0,0.0,0.0,2.6278,2.5948,2.5766,2.5766,2.5438,2.5304,2.5353,2.5606,2.5907,2.6245,2.6784,2.7404,2.8066,2.8477,2.9082,2.9897,3.0045,3.0318,3.0816,3.1833,3.2265,3.2205,3.286,3.3081,3.2768,3.1783,3.1219,3.0972,3.0672,3.0308,2.9879,2.9784,2.9459,2.9112,2.8991,2.8951,2.888,2.8448,2.8431,2.8522,2.8436,2.8087,2.7824,2.8565,2.8753,2.8957,2.9733,0.0,0.0,0.0,0.0,0.0,3.5419,3.6533,3.7637,3.8908,4.0053,4.117,4.2211,4.2902,4.3721,4.5112,4.5723,4.6266,4.6885,4.7248,4.7463,4.7468,4.8311,4.8968,4.9157,4.9552,4.9489,0.0,4.7731,4.6796,4.5928,4.4864,4.4104,4.3729,4.3636,4.3518,4.329,4.329,4.325,4.321,4.285,4.2648,4.2622,4.2242,4.2092,4.2092,4.2092,4.2092,4.2092,4.2092,4.2092,4.2092,4.2092,4.2092,4.2092,4.2092,4.2092,4.2092,0.0,0.0,0.0,0.0,0.0,0.0,2.7008,2.7175,2.7319,0.0,0.0,0.0,2.7743,2.7512,2.7352,2.7352,2.7121,2.697,2.697,2.7176,2.7339,2.7242,2.776,2.8211,2.8581,2.9046,2.9588,3.0216,3.0408,3.0691,3.1008,3.2018,3.2489,3.2536,3.3313,3.353,3.3281,3.2606,3.1936,3.1322,3.1178,3.0827,3.0308,3.0308,3.0141,2.9816,2.9816,2.9711,2.9618,2.9528,2.9291,2.9099,2.8907,2.852,2.8196,2.8779,2.8925,2.9005,2.9359,2.995,3.0561,3.1147,0.0,0.0,3.4282,3.5297,3.632,3.7361,3.8435,3.9466,4.033,4.1107,4.1933,4.2946,4.3645,4.4525,4.5722,4.6076,4.641,4.6871,4.7605,4.813,4.8446,4.8841,4.8716,4.7907,4.7314,4.6514,4.5547,4.4711,4.4205,4.3949,4.3536,4.319,4.3058,4.2695,4.2656,4.2925,4.2555,4.2503,4.2688,4.2351,4.2175,4.2092,4.2092,4.2092,4.2092,4.2092,4.2092,4.2092,4.2092,4.2092,4.2092,4.2092,4.2092,4.2092,0.0,0.0,0.0,0.0,0.0,2.7873,2.8315,2.8268,2.8379,0.0,2.8921,2.8953,2.8953,2.8911,2.888,2.888,2.8828,2.8807,2.8807,2.9066,2.8975,2.8532,2.8951,2.9165,2.9031,2.9633,3.0057,3.0306,3.0826,3.1074,3.113,3.2144,3.257,3.2677,3.3632,3.3819,3.3431,3.3381,3.2768,3.1783,3.1669,3.1322,3.0879,3.0879,3.0827,3.0786,3.0786,3.0672,3.0505,3.0724,3.0232,2.9511,2.9295,2.9085,2.8921,2.8846,2.9104,2.9395,2.914,2.9609,3.0261,3.056,3.131,0.0,3.2988,3.4204,3.5385,3.6112,3.7086,3.7956,3.8483,3.9137,3.9936,4.0943,4.1666,4.2811,4.4819,4.4957,4.5345,4.668,4.6755,4.6977,4.7703,4.7846,4.7593,4.685,4.6538,4.5962,4.4942,4.4572,4.4328,4.4213,4.3266,4.2704,4.259,4.1798,4.1752,4.2396,4.2147,4.2253,4.2688,4.2514,4.2284,4.2092,4.2092,4.2092,4.2092,4.2092,4.2092,4.2092,4.2092,4.2092,4.2092,4.2092,4.2092,4.2092,0.0,0.0,0.0,0.0,0.0,0.0,2.8903,2.9252,2.9533,2.9762,3.0164,3.0397,3.0397,3.0058,2.9825,2.9825,2.9547,2.9335,2.9335,2.9571,2.9764,2.9829,2.9759,2.9992,3.0546,3.0285,3.0454,3.1083,3.1395,3.1629,3.1829,3.2694,3.3171,3.3423,3.3827,3.4101,3.415,3.4014,3.358,3.2919,3.2179,3.1721,3.1424,3.1178,3.0983,3.0786,3.0786,3.0786,3.0724,3.0776,3.0547,3.0242,3.0025,2.9825,2.9662,2.9657,2.9713,2.9776,3.0099,3.0209,3.0281,3.0683,3.1097,0.0,3.22,3.3036,3.3927,3.4646,3.5598,3.6514,3.7223,3.7903,3.8573,3.9191,3.9878,4.1151,4.3664,4.3965,4.4246,4.5053,4.5649,4.6266,4.6945,4.7545,4.7593,4.685,4.6113,4.5456,4.4927,4.4836,4.4401,4.3524,4.3274,4.2765,4.1912,4.1739,4.1881,4.2396,4.2147,4.2253,4.2688,4.2514,4.2284,4.2092,4.2092,4.2092,4.2092,4.2092,4.2092,4.2092,4.2092,4.2092,4.2092,4.2092,4.2092,4.2092,2.9301,2.9301,2.9255,0.0,0.0,0.0,0.0,3.0266,3.0586,3.1232,3.1487,3.164,3.164,3.1422,3.128,3.128,3.1112,3.098,3.098,3.1119,3.1197,3.1138,3.09,3.0897,3.1206,3.1015,3.1116,3.1484,3.1893,3.2081,3.2225,3.2897,3.3391,3.3839,3.4236,3.4474,3.458,3.4494,3.4162,3.363,3.2908,3.2392,3.2037,3.1885,3.1783,3.164,3.164,3.164,3.164,3.1424,3.1262,3.1031,3.0694,3.0533,3.0416,3.0114,3.0235,3.0425,3.0462,3.0308,3.0155,3.0421,3.0688,0.0,0.0,3.2309,3.3058,3.3707,3.4378,3.5073,3.5806,3.6495,3.7131,3.7676,3.8389,3.9511,4.1261,4.2316,4.316,4.3867,4.4275,4.4762,4.5421,4.594,4.6218,4.6313,4.5814,4.5368,4.5092,4.4654,4.4127,4.3475,4.2705,4.2016,4.1366,4.0909,4.0927,4.1384,4.1599,4.1896,4.2216,4.2434,4.2392,4.2092,4.2092,4.2092,4.2092,4.2092,4.2092,4.2092,4.2092,4.2092,4.2092,4.2092,4.2092,4.2092,3.0159,3.0125,3.0023,0.0,0.0,0.0,0.0,0.0,3.1517,3.242,3.2544,3.2493,3.2493,3.2493,3.2493,3.2493,3.2493,3.2493,3.2544,3.2606,3.2564,3.2404,3.2101,3.1866,3.1773,3.175,3.1793,3.1837,3.2245,3.2475,3.2531,3.3007,3.3563,3.4206,3.4592,3.4864,3.5017,3.4969,3.4689,3.4211,3.3767,3.3208,3.2656,3.2555,3.2493,3.2493,3.2493,3.2493,3.2443,3.2229,3.2074,3.1919,3.151,3.1335,3.1194,3.0652,3.0761,3.1012,3.0751,3.0455,3.0253,3.0294,3.0346,3.0535,0.0,0.0,0.0,3.2988,3.3423,3.3908,3.4568,3.5198,3.5773,3.6289,3.7092,3.7928,3.8693,4.0204,4.1678,4.2813,4.2922,4.3203,4.394,4.4147,4.4546,4.5257,4.5159,4.4977,4.4793,4.408,4.3577,4.3239,4.2032,4.1189,4.0887,4.0147,3.9992,4.0486,4.1108,4.1498,4.1705,4.2393,4.2459,4.2092,4.2092,4.2092,4.2092,4.2092,4.2092,4.2092,4.2092,4.2092,4.2092,4.2092,4.2092,4.2092,3.0972,3.0894,3.0849,3.0838,0.0,0.0,0.0,0.0,3.2195,3.2721,3.2606,3.2493,3.2493,3.2493,3.2493,3.2493,3.2493,3.2606,3.2757,3.3019,3.3296,3.3415,3.3006,3.284,3.2966,3.2333,3.2089,3.23,3.255,3.281,3.3038,3.326,3.3927,3.4881,3.4776,3.516,3.587,3.5608,3.5223,3.4738,3.464,3.4052,3.3181,3.2656,3.2493,3.2493,3.2493,3.2493,3.2493,3.2645,3.2873,3.3048,3.2764,3.252,3.2195,3.1691,3.1392,3.125,3.1235,3.1148,3.1004,3.0707,3.0574,3.0553,3.0725,0.0,3.185,3.2381,0.0,3.3486,3.3839,0.0,0.0,3.5038,3.5837,3.6552,3.6926,3.7676,3.9135,4.1663,4.1965,4.233,4.3223,4.3321,4.3388,4.3481,4.3481,4.3374,4.3159,4.3082,4.2664,4.1848,4.1678,4.1188,4.0399,4.0097,4.0187,4.0676,4.1168,4.1498,4.1705,4.2393,4.2459,4.2092,4.2092,4.2092,4.2092,4.2092,4.2092,4.2092,4.2092,4.2092,4.2092,4.2092,4.2092,4.2092,3.1661,3.1572,3.1528,3.1407,0.0,0.0,0.0,0.0,3.2988,3.3476,3.3469,3.3408,3.3408,3.3408,3.3408,3.3408,3.3408,3.3457,3.3568,3.3679,3.3915,3.4286,3.3517,3.3248,3.3676,3.3005,3.2667,3.2822,3.3142,3.3343,3.3441,0.0,3.4168,3.5251,3.5117,3.5603,3.6392,3.6298,3.5966,3.5488,3.5343,3.492,3.4347,3.3656,3.3408,3.3408,3.3408,3.3408,3.3457,3.3519,3.3668,3.3685,3.3284,3.3255,3.3208,3.242,3.2298,3.2325,3.2022,3.168,3.1442,3.1408,3.0979,3.0626,3.0919,3.1146,3.1421,3.1973,0.0,0.0,0.0,0.0,0.0,0.0,3.4921,3.5432,3.6123,3.6488,3.7387,3.9378,3.9937,4.0716,4.2142,4.2627,4.2947,4.3176,4.3212,4.3105,4.2891,4.2488,4.2041,4.1601,4.1186,4.0727,4.0312,4.0101,4.0026,4.0118,4.0988,4.1381,4.137,4.2311,4.2541,4.2284,4.2133,4.2092,4.2092,4.2092,4.2092,4.2092,4.2092,4.2092,4.2092,4.2092,4.2092,4.2092,3.2513,3.2251,3.2045,3.1937,3.1705,0.0,0.0,3.2969,3.3553,3.4123,3.4227,3.431,3.431,3.431,3.431,3.431,3.431,3.431,3.4408,3.4408,3.4604,3.4981,3.4241,3.3961,3.4193,3.374,3.3434,3.3283,3.3556,3.3755,0.0,0.0,0.0,3.5564,3.5631,3.6135,3.6878,3.6892,3.6675,3.6298,3.6001,3.5727,3.5307,3.4506,3.4162,3.4162,3.4162,3.4162,3.4211,3.4359,3.4408,0.0,3.4029,3.4054,3.405,3.3177,3.3028,3.3076,3.2548,3.2105,3.1816,3.1898,3.1419,3.0987,3.1147,3.1164,3.1283,3.1733,3.2036,0.0,0.0,0.0,3.3486,3.4074,0.0,3.4608,3.5365,3.5541,3.6156,3.7669,3.852,3.9482,0.0,4.1495,4.2017,4.2388,4.2388,4.2353,4.2246,4.1751,4.1418,4.1309,4.0766,4.0455,4.0381,4.0172,3.9996,3.9783,4.0942,4.1361,4.1139,4.2233,4.2581,4.2392,4.2216,4.2092,4.2092,4.2092,4.2092,4.2092,4.2092,4.2092,4.2092,4.2092,4.2092,4.2092,3.3628,3.297,3.24,3.2388,3.2344,3.2528,3.3068,3.3393,3.3803,3.4337,3.4619,3.4787,3.4787,3.4787,3.4787,3.4787,3.4787,3.4884,3.5126,3.5175,3.5271,3.5572,3.5503,3.5174,3.4693,3.4603,3.4246,3.367,3.367,3.3924,0.0,0.0,0.0,0.0,3.6277,3.677,3.7274,3.7397,3.7307,3.7062,3.6769,3.6392,3.587,3.4763,3.4384,3.4384,3.4384,3.4384,0.0,3.4981,3.5175,0.0,0.0,0.0,0.0,3.4099,3.3605,3.3076,3.2548,0.0,3.2284,3.1997,3.1878,3.1735,3.1299,3.1332,3.1512,3.1604,3.1927,3.2314,3.2668,3.3051,3.3361,3.3605,3.3902,0.0,0.0,3.4626,3.5432,3.73,3.8398,3.9013,3.9093,3.9697,4.0162,0.0,4.0373,4.0443,4.0566,4.0536,4.0536,4.0536,4.0505,4.0489,4.0489,4.0366,4.0172,3.9991,4.1157,4.1475,4.1139,4.2233,4.2581,4.2392,4.2216,4.2092,4.2092,4.2092,4.2092,4.2092,4.2092,4.2092,4.2092,4.2092,4.2092,4.2092,3.4147,3.3937,3.3641,3.33,3.3142,3.3158,3.3532,3.399,3.4516,3.5062,3.5548,3.5787,3.5631,3.5584,3.5548,3.532,3.532,3.5368,3.5476,3.5644,3.5835,3.6133,3.5923,3.5643,3.5411,3.5197,3.4829,3.4384,3.4522,3.4701,0.0,0.0,0.0,0.0,3.6478,3.702,3.7586,3.8034,3.8089,3.7789,3.7387,3.7108,3.6841,3.5644,3.5175,3.5175,3.5175,3.5175,0.0,3.5416,3.5596,3.574,3.5835,3.5936,3.5968,3.5416,3.4954,0.0,0.0,0.0,3.322,3.3102,0.0,3.2584,3.254,3.2275,3.2084,3.211,3.223,3.2395,3.2665,3.281,3.3122,3.3709,3.3882,3.4088,0.0,3.4563,3.4926,3.5569,3.6514,3.7353,3.794,3.8691,0.0,0.0,3.9843,0.0,4.0366,4.0366,4.0401,4.0489,4.0489,4.0489,4.0489,4.0366,4.0207,4.0026,4.1157,4.155,4.1315,4.2416,4.2809,4.2581,4.2392,4.2201,4.2092,4.2092,4.2092,4.2092,4.2092,4.2092,4.2092,4.2092,4.2092,4.2092,3.4769,3.4812,3.4688,3.405,3.3852,3.3811,3.3984,3.4622,3.5225,3.558,3.6231,3.6593,3.6392,3.6392,3.631,3.6133,3.6133,3.6133,3.6133,3.631,3.6487,3.664,3.6611,3.6483,3.6209,3.6171,3.5838,3.5158,3.542,3.5437,0.0,0.0,0.0,0.0,3.6937,3.7518,3.7949,3.8643,3.88,3.853,3.7998,3.7769,3.7631,3.6722,3.6216,3.5978,0.0,3.5978,3.6026,3.6086,3.6263,3.6392,3.6392,3.6581,3.6748,3.6187,3.573,3.527,3.4751,3.4161,0.0,3.3713,3.3444,0.0,3.3191,0.0,3.275,3.2442,3.2497,3.261,3.2707,3.281,3.3122,3.3709,3.3882,3.4088,0.0,3.4515,3.4631,3.4698,3.5592,3.6424,3.6992,3.7758,3.834,3.8512,3.9148,3.9631,0.0,0.0,4.0226,4.0331,4.0331,4.0366,4.0436,4.0331,4.0207,4.0011,4.0973,4.1437,4.1414,4.2281,4.2653,4.2688,4.2514,4.2284,4.2092,4.2092,4.2092,4.2092,4.2092,4.2092,4.2092,4.2092,4.2092,4.2092,3.5588,3.5642,3.5507,3.4675,3.4481,3.4481,3.4439,3.5275,3.5854,3.5854,3.6612,3.7155,3.7155,3.7155,3.7155,3.7155,3.7108,3.7108,3.7108,3.7155,3.7155,3.7155,3.7664,3.7677,3.7056,3.752,3.7197,3.6035,3.6231,3.6142,0.0,0.0,0.0,0.0,3.7662,3.82,3.8269,3.9241,3.9486,3.9247,3.8575,3.8245,3.8245,3.7959,3.7394,3.6803,3.6756,3.6756,3.6803,3.7062,3.7155,3.7155,3.7155,3.7155,3.7052,3.6559,3.5981,3.5371,3.4833,3.4272,3.3755,3.3755,0.0,0.0,0.0,0.0,3.3461,0.0,0.0,3.2985,3.282,3.3065,3.3361,3.3605,3.3902,3.4162,3.438,3.4414,3.4481,3.4664,3.5562,3.6149,3.6149,3.6884,3.7443,3.7628,3.828,3.8726,3.8963,0.0,3.9965,4.0011,4.0011,4.0101,4.0277,4.0312,4.0207,3.9975,4.0679,4.1126,4.1399,4.185,4.2268,4.2688,4.2514,4.2284,4.2092,4.2092,4.2092,4.2092,4.2092,4.2092,4.2092,4.2092,4.2092,4.2092,3.6434,3.6547,3.6587,3.6375,3.579,3.5304,3.5154,3.6127,3.6758,3.6571,3.75,3.8135,3.7939,3.7939,3.7835,3.7638,3.7638,3.7638,3.7638,3.7789,3.7939,3.7939,3.8226,3.8233,3.7824,3.8061,3.7727,3.6688,3.6907,3.6783,3.6232,0.0,0.0,0.0,3.7662,3.82,3.8269,3.9385,3.9865,3.9777,3.9397,3.9131,3.898,0.0,3.8427,3.8076,3.7638,3.7533,3.7533,3.7592,3.773,3.7939,3.7939,3.8031,3.82,3.8055,3.7276,3.6401,3.6286,3.5508,3.4743,3.4743,3.4743,3.4703,0.0,0.0,0.0,0.0,0.0,0.0,0.0,0.0,3.3466,3.3902,3.4162,3.4346,3.438,3.4515,3.4631,3.4698,3.5145,3.5466,3.5466,3.6227,3.675,3.6798,3.7383,3.8022,3.8741,0.0,0.0,3.998,4.0011,4.0031,4.0081,4.0242,4.0121,3.9783,4.0607,4.1126,4.1399,4.2019,4.2426,4.2688,4.2662,4.2433,4.2092,4.2092,4.2092,4.2092,4.2092,4.2092,4.2092,4.2092,4.2092,4.2092,3.7487,3.7409,3.739,3.739,3.7003,3.6494,3.6031,3.6906,3.7514,3.7275,3.8209,3.8859,3.8711,3.8666,3.8562,3.831,3.8264,3.8219,3.8154,3.8304,3.8349,3.8349,3.8724,3.8845,3.8641,3.8934,3.8673,3.7854,3.7923,3.7656,3.7044,0.0,3.6929,3.6985,3.8218,3.8765,3.8849,3.987,4.03,4.0257,3.9938,3.9719,0.0,3.9455,3.9336,3.9172,3.8863,3.8504,3.8154,3.8154,3.8291,3.8517,3.8517,3.8711,3.8904,3.8904,3.8232,3.744,3.7185,3.6446,3.5681,3.5426,3.5358,3.5358,3.5358,3.544,3.5386,0.0,0.0,0.0,0.0,0.0,3.3799,3.4264,3.4515,3.4601,3.4601,3.4716,3.4817,3.4898,3.5096,3.5213,3.5326,3.5768,3.6058,3.6058,3.6641,3.7199,0.0,0.0,0.0,3.928,3.9295,3.9466,3.9889,3.998,3.991,3.9696,4.0181,4.0751,4.1384,4.1796,4.2291,4.285,4.2729,4.25,4.2201,4.2133,4.2092,4.2092,4.2092,4.2092,4.2092,4.2092,4.2092,4.2092,3.8552,3.8232,3.8037,3.8037,3.811,3.7902,3.713,3.7712,3.8186,3.806,3.8847,3.9424,3.938,3.9394,3.9292,3.9042,3.9042,3.8966,3.8769,3.8782,3.8782,3.8782,3.9172,3.9394,3.9394,3.9865,3.9792,3.9183,3.9004,3.8577,0.0,0.0,3.7625,3.7682,3.8924,3.9582,3.9796,4.0491,4.0787,4.0744,4.0343,4.0126,4.0083,4.0083,4.0039,3.9996,3.9996,3.9482,3.8782,3.8782,3.889,3.9042,3.9042,3.9189,3.9394,3.9394,3.8989,3.8419,3.782,3.722,3.662,3.6021,3.5871,3.5871,3.5871,3.5991,3.6,3.5478,3.5252,3.5006,0.0,0.0,3.4332,3.4664,3.4802,3.4902,3.4902,3.4935,3.5001,3.518,3.5213,0.0,3.5504,3.5504,3.5504,3.5504,3.6028,0.0,0.0,0.0,0.0,3.8242,3.8347,3.8782,3.951,0.0,3.9696,3.9646,3.9696,4.0317,4.1422,4.1422,4.1972,4.2981,4.2809,4.2581,4.2392,4.2175,4.2092,4.2092,4.2092,4.2092,4.2092,4.2092,4.2092,4.2133,3.9446,3.894,3.8634,3.8634,3.9104,3.932,3.8823,3.8905,3.9044,3.9215,3.9741,4.0055,3.9908,3.9865,3.9865,3.9821,3.9821,3.9777,3.9733,3.9733,3.9733,3.9733,3.9821,3.9865,3.9865,4.0343,4.0265,3.969,3.947,3.9073,3.846,0.0,3.7625,3.7682,3.8924,4.0067,4.1081,4.1212,4.1269,4.1269,4.1185,4.0915,4.0573,4.0573,4.0343,3.9996,3.9996,3.9865,3.9733,3.9733,3.9777,3.9821,3.9821,3.9821,3.9865,3.9865,3.9611,3.9172,3.8477,3.8018,3.7512,3.6937,3.6783,3.6783,3.6783,3.6783,3.6833,3.6891,3.6062,3.5449,3.587,0.0,0.0,3.4868,3.4902,3.4902,3.4902,3.5034,3.5148,3.518,3.5359,3.5507,3.5638,3.5572,3.5504,3.5504,3.5609,0.0,0.0,0.0,0.0,0.0,3.8108,0.0,0.0,0.0,3.9625,3.9445,3.9625,4.0317,4.1422,4.1422,4.1972,4.2981,4.2809,4.2581,4.2392,4.2175,4.2092,4.2092,4.2092,4.2092,4.2092,4.2092,4.2092,4.2133,4.0453,4.0163,3.9979,3.9979,4.0246,4.0471,4.0471,4.0517,4.038,4.008,4.052,4.0816,4.0744,4.0744,4.0645,4.0545,4.043,4.03,4.0156,4.0083,3.9996,3.9996,4.0213,4.0343,4.0343,4.083,4.0901,4.0646,4.031,3.9828,0.0,0.0,3.8534,3.8477,3.9744,4.0879,4.1745,4.1591,0.0,4.1549,4.1423,4.1269,4.1043,4.1043,4.0915,4.0744,4.0744,4.0744,4.0659,4.017,4.017,4.0343,4.0343,4.053,4.0744,4.0744,4.0619,4.0266,3.9305,3.8866,3.8519,3.7544,3.7303,3.7303,3.7303,3.7303,3.7341,3.7419,3.6596,3.5798,3.5603,3.5295,0.0,0.0,0.0,3.5213,3.5213,3.5294,3.5377,3.5444,3.5557,3.5686,3.5831,3.5797,3.5701,3.5621,3.5589,3.5707,0.0,0.0,0.0,0.0,0.0,0.0,0.0,0.0,0.0,3.9388,3.9481,3.9991,4.0876,4.122,4.187,4.2678,4.2822,4.2729,4.2541,4.2242,4.2092,4.2092,4.2092,4.2281,4.2557,4.2557,4.2774,4.3063,4.1545,4.1375,4.1285,4.1285,4.1367,4.1543,4.1814,4.1912,4.1682,4.09,4.1207,4.148,4.1396,4.1396,4.1297,4.11,4.0944,4.0773,4.0531,4.0386,4.03,4.03,4.0659,4.083,4.083,4.1255,4.1465,4.1465,4.1097,0.0,0.0,0.0,0.0,3.977,4.076,0.0,0.0,0.0,4.1868,4.1827,4.1647,4.1522,4.1465,4.1465,4.1438,4.1396,4.1396,4.1396,4.1311,4.0573,4.053,4.083,4.083,4.1086,4.1396,4.1396,4.1438,4.1194,3.996,3.9642,3.942,3.8155,3.7877,3.7877,3.7877,3.7877,3.7877,3.7877,3.7128,3.6155,3.5219,3.518,0.0,0.0,0.0,3.5587,3.5587,3.5587,3.5636,3.5767,3.5752,3.5831,3.6037,3.6037,3.599,3.5816,3.5784,3.5718,3.5554,0.0,0.0,0.0,0.0,3.7524,3.8252,0.0,3.9346,3.9532,3.9481,3.979,4.0501,4.1123,4.1782,4.2425,4.2832,4.2875,4.2648,4.2325,4.2175,4.2189,4.2279,4.2571,4.3007,4.3152,4.3544,4.4022,4.2758,4.2334,4.1925,4.1925,4.2274,4.2505,4.2357,4.2639,4.2625,4.1947,4.1922,4.18,4.1438,4.1396,4.1396,4.1354,4.1354,4.1311,4.1297,4.1269,4.1269,4.1269,4.1311,4.1311,4.1311,4.1535,4.166,4.166,4.1462,4.1313,0.0,0.0,0.0,0.0,0.0,0.0,0.0,4.2418,4.2351,4.231,4.2133,4.1897,4.166,4.166,4.1549,4.1396,4.1396,4.1396,4.1396,4.1311,4.1311,4.1311,4.1311,4.1354,4.1396,4.1396,4.1549,4.1429,4.0336,4.0172,4.0032,3.8972,3.8671,3.8671,3.8671,3.8671,3.8671,3.8671,3.7801,3.6689,3.5645,3.5557,3.5703,0.0,0.0,0.0,3.5941,3.5941,3.5941,3.5973,3.5973,3.6037,3.6179,3.6179,3.6179,3.6164,3.6022,3.591,0.0,0.0,0.0,3.5594,0.0,3.6982,3.7763,3.8426,3.9164,3.9925,3.9768,4.0028,4.0706,4.1183,4.1782,4.2425,4.2832,4.2875,4.2688,4.2474,4.2351,4.2409,4.2771,4.2948,4.3065,4.3674,4.3935,4.4138,4.3593,4.3365,4.3183,4.3183,4.3334,4.34,4.3205,4.3298,4.321,4.2673,4.2485,4.2363,4.2213,4.2049,4.2022,4.2022,4.1758,4.1577,4.1577,4.1809,4.1924,4.1924,4.2081,4.218,4.218,4.2127,4.2131,4.2131,4.214,0.0,0.0,0.0,0.0,0.0,0.0,4.2452,4.2688,4.2607,4.2581,4.2581,4.2514,4.2418,4.2322,4.2322,4.224,4.2172,4.2172,4.2172,4.2172,4.2172,4.191,4.1577,4.1577,4.1758,4.2022,4.2022,4.2131,4.2044,4.0837,4.0563,4.0356,3.9121,3.8782,3.8782,3.8782,3.8782,3.8782,3.8782,3.7979,3.6982,3.5974,3.5846,3.5894,0.0,0.0,0.0,0.0,3.6005,3.6037,3.6116,3.6116,3.6211,3.6461,3.6445,3.6414,3.6492,3.6274,0.0,0.0,0.0,0.0,3.5797,0.0,3.7141,3.7857,3.8557,3.9273,4.0011,3.9925,4.0026,4.0313,4.1181,4.2083,4.2955,4.2956,4.2941,4.2875,4.2648,4.2816,4.3184,4.3199,4.3684,4.4384,4.4516,4.4865,4.5405,4.4166,4.4166,4.4166,4.4166,4.4143,4.4026,4.391,4.3769,4.3596,4.325,4.301,4.2809,4.2729,4.2581,4.2514,4.2514,4.2213,4.1978,4.1978,4.2273,4.2507,4.2694,4.2691,4.2776,4.3007,4.2673,4.2514,4.2514,4.2688,0.0,0.0,0.0,0.0,0.0,4.2723,4.289,4.285,4.2809,4.2809,4.2769,4.2729,4.2688,4.2688,4.2688,4.2688,4.2688,4.2688,4.2688,4.2688,4.2688,4.2404,4.1978,4.1978,4.2199,4.2514,4.2514,4.2581,4.2493,4.141,4.1021,4.0622,3.9558,3.9165,3.9053,3.9053,3.9126,3.9058,3.8635,3.8028,3.7285,3.6312,3.6132,3.6163,3.6273,0.0,0.0,0.0,3.6289,3.632,3.643,3.6445,3.6538,3.677,3.6708,3.6677,3.6785,3.6569,0.0,0.0,0.0,0.0,0.0,0.0,0.0,0.0,3.8546,3.9249,4.0137,4.0101,4.0101,4.0112,4.1209,4.231,4.3423,4.317,4.3076,4.3076,4.2875,4.3194,4.3758,4.3715,4.4379,4.5405,4.542,4.5785,4.6358,4.4534,4.4572,4.4572,4.4572,4.4435,4.4281,4.4281,4.3949,4.369,4.369,4.3463,4.313,4.2729,4.2688,4.2688,4.2688,4.2688,4.2688,4.2688,4.2688,4.2983,4.3673,4.3042,4.2998,4.3688,4.3027,4.2688,4.2688,0.0,0.0,4.2981,0.0,4.3275,4.3275,4.329,4.329,4.329,4.3076,4.2981,4.2996,4.2769,4.2688,4.2688,4.2688,4.2688,4.2688,4.2688,4.2688,4.2688,4.2688,4.2688,4.2688,4.2688,4.2688,4.2688,4.2688,4.2688,4.2581,4.2115,4.1555,4.0969,4.0487,4.0034,3.9681,3.9681,3.9839,3.9596,3.8277,3.7989,3.7697,3.6675,3.6492,3.6585,3.6938,0.0,0.0,0.0,3.6984,3.6984,3.6984,3.6984,3.6984,3.7015,3.6984,3.6984,3.7015,0.0,0.0,0.0,0.0,0.0,3.6005,3.602,0.0,3.8292,3.8308,3.9048,4.0489,4.0366,4.0312,4.0323,4.1282,4.2439,4.369,4.3423,4.329,4.329,4.3076,4.3397,4.4039,4.4438,4.5002,4.5666,4.6344,4.6594,4.6639,4.4587,4.461,4.461,4.461,4.4549,4.4473,4.432,4.4205,4.4065,4.391,4.3832,4.3738,4.3621,4.317,4.2915,4.2915,4.2769,4.2688,0.0,4.313,4.3469,4.3676,4.3499,4.3469,4.3691,4.319,4.2915,4.2915,0.0,0.0,0.0,4.325,4.329,4.329,4.329,4.329,4.329,4.325,4.321,4.321,4.313,4.309,4.309,4.309,4.309,4.309,4.309,4.309,4.309,4.309,4.309,4.309,4.309,4.301,4.2915,4.2915,4.2996,4.3036,4.2575,4.2008,4.14,4.0945,4.0353,3.9889,3.9889,3.996,3.9686,3.8568,3.8358,3.8043,3.7033,3.6847,3.6908,3.7089,3.715,0.0,3.7254,0.0,3.715,3.715,3.706,3.703,3.7119,3.7044,0.0,0.0,0.0,0.0,0.0,0.0,0.0,0.0,3.6336,0.0,3.8409,3.8457,3.9118,4.0489,4.047,4.0892,4.1652,4.1971,4.269,4.369,4.3596,4.3463,4.329,4.325,4.3867,4.4896,4.4897,4.5511,4.6504,4.655,4.6683,4.68,4.461,4.461,4.461,4.461,4.461,4.4549,4.4435,4.4358,4.4243,4.4143,4.4065,4.3988,4.3988,4.3606,0.0,4.3369,4.325,4.3185,4.3185,4.3507,4.3809,4.4032,4.3727,4.3686,4.3938,4.3392,0.0,4.3115,4.325,4.329,4.329,4.329,4.329,4.329,4.329,4.3384,4.3463,4.3463,4.3503,4.3581,4.3581,4.3581,4.3581,4.3581,4.3581,4.3581,4.3581,4.3581,4.3581,4.3581,4.3581,4.3581,4.3581,4.3488,4.3369,4.329,4.3423,4.3491,4.3255,4.2523,4.176,4.1446,4.075,4.0137,4.0261,4.0347,4.0178,3.9256,3.8889,3.846,3.7715,3.7353,3.721,3.7433,3.7462,3.7492,3.7581,0.0,3.7462,0.0,0.0,0.0,0.0,3.7405,3.7375,0.0,0.0,0.0,0.0,0.0,0.0,3.6677,3.6616,0.0,3.8606,3.8541,3.9152,4.0489,4.0489,4.1177,4.2404,4.2316,4.2901,4.391,4.3769,4.3596,4.3423,4.3329,4.4107,4.5304,4.518,4.5915,4.7019,4.6902,4.6946,4.7062,4.461,4.461,4.4625,0.0,4.461,0.0,4.461,4.4435,4.432,4.432,4.4166,4.405,4.405,4.405,4.405,4.405,0.0,0.0,0.0,4.3832,4.3986,4.4519,4.3778,4.3629,4.4282,4.3683,4.3329,4.3329,4.3329,4.3329,4.3329,4.3329,4.3329,4.3329,4.3329,4.3503,4.3729,4.3729,4.3847,4.3988,4.3988,4.3988,4.3988,4.3988,4.3988,4.3988,4.3988,4.3988,4.3988,4.3988,4.3988,4.3988,4.3988,4.4026,4.3988,4.3754,4.3832,4.3988,4.4026,4.3085,4.2082,4.2073,4.1199,4.0451,4.073,4.095,4.0914,4.0261,3.9543,3.8968,3.8603,3.7937,3.7565,3.7889,3.7934,3.7947,3.7947,0.0,3.7963,0.0,0.0,0.0,0.0,3.7905,3.7905,0.0,0.0,0.0,0.0,0.0,3.703,3.7015,3.6831,3.739,3.88,3.8621,3.9185,4.0489,4.0489,4.1228,4.2602,4.2404,4.305,4.4281,4.391,4.3729,4.369,4.3423,4.4107,4.5331,4.5289,4.6127,4.7309,4.7309,4.7309,4.7309,0.0,0.0,4.4761,4.461,4.461,4.461,4.461,4.4572,4.4534,4.4534,4.4511,4.4473,4.4473,4.4473,4.4473,4.4473,4.4166,4.3988,4.3988,4.3949,4.397,4.4122,4.3946,4.3892,4.4059,4.3907,4.3817,4.3817,4.3817,4.3817,4.3817,4.3817,4.3817,4.3817,4.3817,4.3871,4.3949,4.3949,4.3949,4.3988,4.3988,4.3988,4.3988,4.3988,4.3988,4.3988,4.3988,4.3988,4.3988,4.3988,4.3988,4.3988,4.3988,4.4104,4.4166,4.3988,4.3949,4.4026,4.4166,4.3632,4.2921,4.2679,4.1751,4.0932,4.1,4.1153,4.1117,4.0573,4.0008,3.9453,3.8968,3.8352,3.8001,3.825,3.8375,3.8472,3.8583,3.85,0.0,0.0,3.8148,3.8017,3.7905,3.7905,3.7905,0.0,0.0,0.0,0.0,3.773,3.7464,3.6999,3.6938,3.7592,3.8947,3.8784,3.9316,4.0489,4.0489,4.1228,4.2602,4.2565,4.3177,4.4281,4.4205,4.4065,4.391,4.3675,4.4364,4.5522,4.5372,4.6127,4.7309,4.7309,4.7309,4.7309,4.5055,4.4964,4.4874,4.4761,4.4648,4.461,4.461,4.461,4.461,4.461,4.461,4.461,4.461,4.461,4.461,4.461,4.4396,4.4281,4.4281,4.4166,4.4143,4.4143,4.4065,4.3988,4.3988,4.3988,4.3988,4.3988,4.3988,4.3988,4.3988,4.3988,4.3988,4.3988,4.3988,4.4065,4.4143,4.4143,4.4166,4.4281,4.4281,4.4281,4.4281,4.4281,4.4281,4.4281,4.4281,4.432,4.4396,4.4396,4.4473,4.4564,4.4564,4.4641,4.4678,4.4564,4.4412,4.432,4.4511,4.4095,4.3377,4.2647,4.19,4.1321,4.1321,4.1505,4.1576,4.1357,4.088,4.0428,4.0226,3.9441,3.8902,3.906,3.8867,3.8722,3.8805,3.875,0.0,3.86,3.85,3.8399,3.8319,3.8303,3.8303,3.8303,3.8246,0.0,3.8135,3.8033,3.7801,3.7315,3.7225,3.7824,3.9107,3.9601,4.0135,4.0627,4.0627,4.1333,4.2602,4.2602,4.3251,4.4435,4.4358,4.4243,4.4127,4.391,4.4437,4.5319,4.5417,4.6044,4.7019,4.7233,4.7309,4.7309,4.5257,4.5129,4.4949,4.4911,4.4761,4.4648,4.461,4.461,4.461,4.461,4.461,4.461,4.461,4.461,4.461,4.461,4.461,4.461,4.461,4.4435,4.4358,4.4358,4.4166,4.4104,4.4104,4.4104,4.4104,4.4104,4.4104,4.4104,4.4104,4.4104,4.4104,4.4104,4.4104,4.4166,4.4358,4.4358,4.4435,4.461,4.461,4.4625,4.4663,4.4663,4.4648,4.4701,4.4701,4.4814,4.4964,4.4964,4.5055,4.5182,4.5182,4.5182,4.5182,4.5182,4.498,4.4761,4.4911,4.4468,4.377,4.2638,4.2084,4.1814,4.1752,4.1948,4.2174,4.2206,4.1802,4.1473,4.1657,4.0763,3.996,4.0003,3.9517,3.9057,3.8958,0.0,3.8942,3.8914,3.8914,3.8887,3.8843,3.8843,3.8843,3.8832,3.8706,3.8583,3.8476,3.8303,3.8087,3.7817,3.7581,3.8082,3.933,4.0515,4.1018,4.0833,4.0833,4.1457,4.2638,4.2638,4.3362,4.4572,4.4435,4.4358,4.432,4.4143,4.4461,4.509,4.5485,4.6083,4.6734,4.7184,4.7352,4.7352,4.5478,4.5442,4.5315,4.4949,4.4874,4.4799,4.4625,4.461,4.461,4.461,4.461,4.461,4.461,4.461,4.461,4.461,4.461,4.461,4.461,4.4572,4.4534,4.4534,4.4534,4.4511,4.4511,4.4511,4.4511,4.4511,4.4511,4.4511,4.4511,4.4511,4.4511,4.4511,4.4511,4.4534,4.4534,4.4534,4.4572,4.461,4.461,4.4685,4.4836,4.4836,4.4964,4.5108,4.5108,4.5145,4.5129,4.5129,4.5182,4.5182,4.5182,4.5182,4.5182,4.5182,4.5278,4.5321,4.5204,4.4872,4.4421,4.3775,4.3283,4.2829,4.2382,4.2397,4.2571,4.2744,4.236,4.2005,4.2167,4.1655,4.1066,4.0558,4.0494,4.0264,3.9656,0.0,3.952,3.9405,3.9379,3.9335,3.9152,3.9125,3.9071,3.8969,3.8942,3.8887,3.875,3.8722,3.8556,3.8307,3.7992,3.8338,3.9472,4.0681,4.1205,4.1034,4.1034,4.1647,4.2772,4.2772,4.3441,4.461,4.4572,4.4534,4.4549,4.4358,4.464,4.5312,4.5743,4.636,4.7016,4.7398,4.7538,4.7553,4.5662,4.5589,4.5442,4.5241,4.5114,4.5002,4.4799,4.4761,4.4723,4.461,4.461,4.461,4.461,4.461,4.461,4.461,4.461,4.461,4.461,4.461,4.461,4.461,4.461,4.461,4.461,4.461,4.461,4.461,4.461,4.461,4.461,4.461,4.461,4.461,4.461,4.461,4.461,4.461,4.4648,4.4761,4.4761,4.4889,4.5055,4.5055,4.5129,4.5182,4.5182,4.5257,4.5368,4.5478,4.5589,4.5698,4.5776,4.5776,4.5776,4.5776,4.5739,4.5667,4.5682,4.5449,4.5048,4.4363,4.3926,4.346,4.2812,4.279,4.2929,4.3129,4.3035,4.2937,4.3098,4.2663,4.2233,4.2032,4.1409,0.0,0.0,4.0094,3.9781,3.972,3.9642,3.9573,3.9461,3.9461,3.9435,3.9372,3.9372,3.9335,3.9175,3.9121,3.8958,3.8738,3.8901,3.9237,3.9675,4.0957,4.1472,4.1221,4.1221,4.1635,4.2427,4.2801,4.3407,4.4198,4.4606,4.4685,4.4572,4.4496,4.4642,4.5002,4.5847,4.6361,4.6732,4.7516,4.7794,4.7794,4.5807,4.5662,4.5552,4.5515,4.5368,4.5204,4.5002,4.4964,4.4889,4.4685,4.4648,4.4648,4.461,4.461,4.461,4.461,4.461,4.461,4.461,4.461,4.461,4.461,4.461,4.461,4.461,4.461,4.461,4.461,4.461,4.461,4.461,4.461,4.461,4.461,4.461,4.461,4.461,4.4648,4.4761,4.4911,4.4964,4.5092,4.5257,4.5257,4.5331,4.5405,4.5405,4.5552,4.5719,4.5864,4.6024,4.6152,4.6278,4.6298,4.6298,4.6298,4.6171,4.608,4.6227,4.6124,4.5787,4.4949,4.4561,4.4117,4.3311,4.3174,4.3325,4.3522,4.3641,4.3759,4.3948,4.364,4.3345,4.3354,0.0,0.0,0.0,4.057,4.0037,4.0037,3.9961,3.9884,3.9884,3.9884,3.9884,3.9833,3.9807,3.9729,3.959,3.9458,3.9282,3.9094,3.9735,4.006,3.9954,4.1295,4.1784,4.1439,4.1439,4.17,4.2185,4.2872,4.3416,4.3919,4.4654,4.4889,4.4739,4.4701,4.4648,4.4771,4.5738,4.6226,4.6502,4.7463,4.7954,4.8049,4.5807,4.5771,4.5698,4.5515,4.5478,4.5405,4.522,4.5182,4.5092,4.4911,4.4874,4.4799,4.461,4.461,4.461,4.461,4.461,4.461,4.461,4.461,4.461,4.461,4.461,4.461,4.461,4.461,4.461,4.461,4.461,4.461,4.461,4.461,4.461,4.461,4.461,4.461,4.461,4.4799,4.4874,4.4911,4.5092,4.5294,4.5478,4.5478,4.5698,4.604,4.604,4.6116,4.6227,4.6278,4.6262,4.6278,4.6314,4.6298,4.6298,4.6298,4.6545,4.6823,4.6858,4.6963,4.6827,4.5699,4.5401,4.51,4.3999,4.3743,4.3802,4.401,4.4068,4.4138,4.439,4.444,4.427,4.3907,0.0,0.0,4.1681,4.0922,4.0461,4.0461,4.0461,4.0444,4.0444,4.0444,4.0387,4.028,4.0138,4.0011,3.9875,3.9729,3.9547,3.9299,4.0046,4.0469,4.0439,4.1548,4.1996,4.1866,4.1866,4.2033,4.2404,4.3047,4.3631,4.4138,4.4871,4.5182,4.5145,4.4964,4.4874,4.4951,4.5449,4.6049,4.664,4.7176,4.7751,4.826,4.5807,4.5807,4.5771,4.5698,4.5698,4.5625,4.5405,4.5405,4.5331,4.5129,4.4964,4.4874,4.4799,4.4685,4.461,4.461,4.461,4.461,4.461,4.4723,4.4799,4.4799,4.4799,4.4799,4.4799,4.4648,4.461,4.461,4.461,4.461,4.461,4.461,4.461,4.461,4.461,4.4648,4.4799,4.4874,4.5024,4.5278,4.5368,4.5589,4.588,4.588,4.6024,4.6207,4.6207,4.6243,4.6333,4.6423,4.6493,4.6493,4.6633,4.6754,4.6858,4.7012,4.7201,4.7437,4.7554,4.7654,4.7375,4.6004,4.5844,4.5646,4.4298,4.3993,4.4051,4.4293,4.435,4.4435,4.4742,4.4797,4.4794,4.471,0.0,4.3349,4.2695,4.1847,4.1138,4.0676,4.0558,4.051,4.051,4.051,4.0485,4.0436,4.0387,4.0288,4.0155,3.9935,3.9947,4.0231,4.0772,4.0909,4.0631,4.1812,4.2349,4.2206,4.2061,4.2058,4.2096,4.2794,4.3302,4.3713,4.4382,4.4872,4.5182,4.5129,4.5092,4.5117,4.5595,4.6198,4.6839,4.7317,4.7912,4.8453,4.5807,4.5807,4.5807,4.5807,4.5807,4.5735,4.5625,4.5589,4.5515,4.5331,4.5129,4.4964,4.4911,4.4723,4.461,4.461,4.461,4.461,4.461,4.4852,4.5002,4.5002,4.5002,4.5002,4.5002,4.4852,4.4776,4.4776,4.4739,4.4685,4.4685,4.461,4.461,4.4685,4.4685,4.4814,4.5002,4.5077,4.5241,4.5515,4.5625,4.5844,4.6096,4.6132,4.6243,4.6388,4.6388,4.6439,4.6509,4.6633,4.6687,4.6738,4.6858,4.703,4.7251,4.7504,4.7654,4.782,4.8017,4.7981,4.7579,4.6331,4.6229,4.6068,4.4635,4.4355,4.4423,4.4631,4.4659,4.4742,4.5005,4.5059,4.5113,4.5247,4.4638,4.395,4.3293,4.2418,4.1594,4.0855,4.068,4.0631,4.0631,4.0631,4.0631,4.0631,4.0583,4.0485,4.0305,4.013,4.0289,4.0846,4.1349,4.1553,4.1411,4.2325,4.2649,4.2476,4.2302,4.2158,4.1979,4.2664,4.3069,4.3286,4.4201,4.475,4.5039,4.5237,4.5294,4.5341,4.5606,4.6066,4.6749,4.7194,4.7793,4.8368,4.5807,4.5807,4.5807,4.5807,4.5807,4.5807,4.5807,4.5807,4.5735,4.5515,4.5331,4.5129,4.4911,4.4723,4.461,4.461,4.461,4.461,4.461,4.498,4.5182,4.522,4.5182,4.5182,4.5182,4.5182,4.5182,4.5182,4.5002,4.4911,4.4911,4.4685,4.4723,4.4911,4.4911,4.5002,4.522,4.5405,4.5515,4.5552,4.5952,4.6112,4.6096,4.6243,4.6439,4.6582,4.6582,4.6738,4.6876,4.6876,4.6876,4.6876,4.6876,4.703,4.7285,4.7605,4.7853,4.8033,4.8179,4.7916,4.7409,4.6683,4.66,4.6358,4.5088,4.4896,4.5005,4.5005,4.5005,4.5032,4.5194,4.5203,4.5247,4.5371,4.4785,4.4052,4.331,4.2516,4.1757,4.0998,4.0912,4.0912,4.0912,4.0912,4.0912,4.0912,4.0769,4.0576,4.033,4.0305,4.0519,4.0987,4.1718,4.2421,4.3004,4.3082,4.2929,4.2602,4.2602,4.2445,4.2141,4.2845,4.3098,4.2979,4.4379,4.4894,4.4729,4.529,4.5515,4.5478,4.5294,4.5609,4.628,4.6734,4.7338,4.7979,4.5807,4.5807,4.5807,4.5807,4.5807,4.5807,4.5807,4.5807,4.5771,4.5698,4.5405,4.5182,4.5129,4.4814,4.461,4.461,4.461,4.4739,4.5017,4.5145,4.5331,4.5589,4.5478,4.5405,4.5405,4.5257,4.5182,4.5182,4.5129,4.5092,4.5092,4.5055,4.5055,4.5092,4.5092,4.5204,4.5405,4.5478,4.5662,4.5916,4.606,4.6223,4.6474,4.6493,4.6633,4.6807,4.6807,4.6842,4.6876,4.6876,4.6876,4.6961,4.7217,4.742,4.7605,4.7935,4.8098,4.8212,4.8532,4.8104,4.7409,4.6683,4.6333,4.5909,4.4997,4.4896,4.5032,4.5113,4.514,4.5194,4.5318,4.5344,4.5371,4.5397,4.5207,4.482,4.4087,4.331,4.2551,4.1774,4.1222,4.0912,4.0912,4.0912,4.0912,4.0912,4.0769,4.0673,4.0576,4.0881,4.1384,4.2027,4.2574,4.3205,4.3917,4.3614,4.3402,4.3312,4.3052,4.2774,4.2476,4.267,4.2896,4.3162,4.404,4.4623,4.4957,4.5651,4.5844,4.5698,4.5478,4.5812,4.647,4.6928,4.7551,4.8266,4.5807,4.5807,4.5807,4.5807,4.5735,4.5662,4.5662,4.5625,4.5552,4.5552,4.5278,4.5092,4.5092,4.4776,4.461,4.461,4.461,4.4776,4.5182,4.5182,4.5368,4.5771,4.5662,4.5625,4.5625,4.5515,4.5442,4.5442,4.5368,4.5331,4.5331,4.5257,4.5257,4.5331,4.5331,4.5442,4.5625,4.5698,4.5896,4.6112,4.6259,4.6404,4.6617,4.6703,4.6807,4.6876,4.6876,4.6876,4.6876,4.6876,4.6961,4.708,4.7403,4.7588,4.777,4.8098,4.826,4.8388,4.8707,4.8074,4.7177,4.6811,4.6326,4.5795,4.5094,4.5059,4.5167,4.5274,4.5274,4.53,4.5397,4.5397,4.5397,4.5397,4.5397,4.5121,4.4414,4.3914,4.3224,4.2137,4.1619,4.1222,4.0929,4.0912,4.0912,4.0912,4.0817,4.0745,4.0697,4.1252,4.1835,4.2471,4.3075,4.3726,4.4395,4.4051,4.3789,4.3598,4.3402,4.3113,4.2805,4.2759,4.2813,4.3008,4.3905,4.4461,4.4769,4.5718,4.604,4.5896,4.5698,4.5877,4.6296,4.7065,4.7614,4.813,4.5807,4.5807,4.5807,4.5807,4.5625,4.5515,4.5515,4.5331,4.5182,4.5182,4.5002,4.4911,4.4911,4.4723,4.461,4.461,4.4625,4.4776,4.5182,4.522,4.5405,4.5771,4.5807,4.5807,4.5807,4.5807,4.5807,4.5807,4.5625,4.5515,4.5515,4.5331,4.5368,4.5515,4.5515,4.5625,4.5844,4.6024,4.6112,4.6168,4.6474,4.6617,4.6668,4.6842,4.6876,4.6876,4.6876,4.6876,4.6876,4.6876,4.703,4.7251,4.7436,4.7621,4.7803,4.813,4.8356,4.8564,4.8769,4.7845,4.6844,4.6973,4.6505,4.586,4.5321,4.53,4.5397,4.5397,4.5397,4.5397,4.5397,4.5397,4.5397,4.5397,4.5397,4.5156,4.4501,4.4345,4.3759,4.2292,4.205,4.1723,4.0981,4.0912,4.0912,4.0912,4.0912,4.0899,4.0824,4.1486,4.2116,4.26,4.3382,4.4058,4.4598,4.4412,4.4109,4.3658,4.3628,4.3462,4.3113,4.3007,4.2837,4.2715,4.3977,4.4423,4.4333,4.5614,4.6132,4.6096,4.588,4.5807,4.5965,4.7035,4.7478,4.7729,4.5807,4.5807,4.5807,4.5807,4.5625,4.5515,4.5515,4.5331,4.5182,4.5182,4.5002,4.4911,4.4911,4.4723,4.461,4.461,4.4723,4.4927,4.5182,4.5368,4.5552,4.5771,4.5807,4.5807,4.5807,4.5807,4.5807,4.5807,4.5771,4.5735,4.5735,4.5698,4.5698,4.5735,4.5735,4.5859,4.604,4.6076,4.6259,4.6493,4.6547,4.6687,4.6842,4.6876,4.6876,4.6876,4.6876,4.6876,4.6876,4.6876,4.7149,4.7436,4.7486,4.7754,4.813,4.8356,4.8564,4.8769,4.8925,4.7889,4.6844,4.7118,4.618,4.5237,4.5201,4.53,4.5397,4.5397,4.5397,4.5397,4.5397,4.5397,4.5397,4.5397,4.5397,4.5328,4.5173,4.4647,4.3966,4.3051,4.2378,4.1723,4.0981,4.0912,4.0912,4.0912,4.0912,4.1129,4.1692,4.2309,4.2954,4.3585,4.4228,4.4567,4.4615,4.4542,4.4355,4.3981,4.3881,4.3674,4.3342,4.3312,4.3129,4.2919,4.4301,4.4722,4.4552,4.5915,4.6404,4.6243,4.6096,4.604,4.6099,4.6724,4.7312,4.8006,4.5807,4.5807,4.5771,4.5662,4.5478,4.5315,4.5241,4.5039,4.4889,4.4889,4.4814,4.4761,4.4761,4.4648,4.461,4.461,4.4799,4.5002,4.5182,4.5405,4.5589,4.5771,4.5807,4.5807,4.5807,4.5807,4.5807,4.5807,4.5807,4.5807,4.5807,4.5807,4.5807,4.5807,4.5896,4.5988,4.6112,4.6259,4.6439,4.6617,4.6687,4.6807,4.6876,4.6876,4.6876,4.6876,4.6876,4.6876,4.6911,4.6996,4.7251,4.7504,4.7571,4.7869,4.8227,4.8452,4.8627,4.8832,4.9032,4.8022,4.6961,4.7278,4.6216,4.514,4.5274,4.5344,4.5397,4.5397,4.5397,4.5397,4.5397,4.5397,4.5397,4.5397,4.5397,4.5397,4.5397,4.5079,4.4544,4.381,4.3034,4.2137,4.1015,4.0912,4.0912,4.0912,4.124,4.1602,4.1999,4.3011,4.3701,4.4,4.4575,4.4831,4.4709,4.4626,4.4457,4.4196,4.4056,4.3881,4.3628,4.3479,4.3312,4.3211,4.4462,4.4919,4.4835,4.6088,4.6528,4.6439,4.6243,4.6187,4.6267,4.688,4.7691,4.864,4.5807,4.5771,4.5698,4.5515,4.5331,4.5092,4.4911,4.4723,4.461,4.461,4.461,4.461,4.461,4.461,4.461,4.461,4.4814,4.5002,4.5182,4.5405,4.5625,4.5771,4.5807,4.5807,4.5807,4.5807,4.5807,4.5807,4.5807,4.5807,4.5807,4.5807,4.5807,4.5807,4.6004,4.6096,4.6168,4.6474,4.6617,4.6668,4.6842,4.6876,4.6876,4.6876,4.6876,4.6876,4.6876,4.6876,4.6927,4.7132,4.7319,4.7537,4.7688,4.7968,4.8292,4.8483,4.869,4.8925,4.9138,4.8141,4.7118,4.7409,4.6327,4.5247,4.5371,4.5397,4.5397,4.5397,4.5397,4.5397,4.5397,4.5397,4.5397,4.5397,4.5397,4.5397,4.5397,4.5397,4.5121,4.4397,4.3534,4.2447,4.105,4.0912,4.0963,4.1084,4.1654,4.2137,4.2396,4.3621,4.4285,4.4293,4.4734,4.494,4.4803,4.4654,4.4514,4.4338,4.4196,4.4056,4.3898,4.3598,4.3432,4.3454,4.4605,4.5033,4.5082,4.6243,4.6687,4.6617,4.6439,4.6369,4.6429,4.7277,4.8222,4.9171,4.5807,4.5662,4.5515,4.5515,4.5204,4.4911,4.4911,4.4723,4.461,4.461,4.461,4.461,4.461,4.461,4.461,4.461,4.4942,4.5182,4.5182,4.5552,4.5771,4.5807,4.5807,4.5807,4.5807,4.5807,4.5807,4.5807,4.5807,4.5807,4.5807,4.5807,4.5807,4.5807,4.6004,4.6152,4.6278,4.6493,4.6703,4.6842,4.6876,4.6876,4.6876,4.6876,4.6876,4.6876,4.6876,4.6876,4.6927,4.7132,4.7319,4.7537,4.7869,4.8179,4.8483,4.8707,4.894,4.9138,4.9199,4.8213,4.7233,4.7437,4.6327,4.5247,4.5371,4.5397,4.5397,4.5397,4.5397,4.5397,4.5397,4.5397,4.5397,4.5397,4.5397,4.5397,4.5397,4.5397,4.5121,4.4397,4.3034,4.1843,4.0981,4.0912,4.117,4.1809,4.1947,4.2585,4.3931,4.419,4.4527,4.5049,4.5035,4.494,4.4803,4.4654,4.4587,4.4542,4.4367,4.4155,4.3898,4.3868,4.3674,4.3484,4.4825,4.5259,4.5114,4.6547,4.703,4.6842,4.6633,4.6563,4.6689,4.791,4.8445,4.876,4.5662,4.5552,4.5442,4.5188,4.5039,4.4874,4.4761,4.4648,4.461,4.461,4.461,4.461,4.461,4.461,4.461,4.461,4.498,4.5182,4.5182,4.5589,4.5807,4.5807,4.5807,4.5807,4.5807,4.5807,4.5807,4.5807,4.5807,4.5807,4.5807,4.5807,4.5844,4.5952,4.6116,4.6314,4.6493,4.6668,4.6807,4.6876,4.6876,4.6876,4.6876,4.6876,4.6876,4.6876,4.6876,4.6961,4.7115,4.7301,4.747,4.7654,4.8017,4.8292,4.8547,4.8815,4.9063,4.9229,4.9441,4.8436,4.7392,4.7578,4.6453,4.5344,4.5397,4.5397,4.5397,4.5397,4.5397,4.5397,4.5397,4.5397,4.5397,4.5397,4.5397,4.5397,4.5397,4.5397,4.5121,4.4397,4.3707,4.3,4.2258,4.2189,4.2327,4.2654,4.3051,4.3586,4.4259,4.4682,4.5052,4.5283,4.5113,4.4951,4.4913,4.4709,4.4615,4.4615,4.4514,4.4355,4.4126,4.3969,4.3839,4.3757,4.495,4.5418,4.5373,4.6681,4.7149,4.7064,4.6842,4.6772,4.6915,4.8172,4.8629,4.8801]}]]